[[{"header":{"parameterUnit":"m.s-1","parameterCategory":1,"la1":30.6,"la2":29.2853,"lo1":-89.7004,"lo2":-87.6739,"dy":0.0162,"dx":0.0183,"nx":112,"ny":82,"refTime":"2023-11-21T18:00:00:Z","depth":0,"parameterNumber":2,"parameterNumberName":"U-component_of_WINDS"},"data":[0.0,0.0,0.0,0.0,0.0,0.0,0.0,0.0,0.0,0.0,0.0,0.0,0.0,0.0,0.0,0.0,0.0,0.0,0.0,0.0,0.0,0.0,0.0,0.0,0.0,0.0,0.0,0.0,0.0,0.0,0.0,0.0,0.0,0.0,0.0,0.0,0.0,0.0,0.0,0.0,0.0,0.0,0.0,0.0,0.0,0.0,0.0,0.0,0.0,0.0,0.0,0.0,0.0,0.0,0.0,0.0,0.0,0.0,0.0,0.0,0.0,0.0,0.0,0.0,0.0,0.0,0.0,0.0,0.0,0.0,0.0,0.0,0.0,0.0,0.0,0.0,0.0,0.0,0.0,0.0,0.0,0.0,0.0,0.0,0.0,0.0,0.0,0.0,0.0,0.0,5.138,5.818,6.8301,7.4965,7.5811,7.6082,7.1988,6.2076,0.0,0.0,0.0,0.0,0.0,0.0,0.0,0.0,0.0,0.0,0.0,0.0,0.0,0.0,0.0,0.0,0.0,0.0,0.0,0.0,0.0,0.0,0.0,0.0,0.0,0.0,0.0,0.0,0.0,0.0,0.0,0.0,0.0,0.0,0.0,0.0,0.0,0.0,0.0,0.0,0.0,0.0,0.0,0.0,0.0,0.0,0.0,0.0,0.0,0.0,0.0,0.0,0.0,0.0,0.0,0.0,0.0,0.0,0.0,0.0,0.0,0.0,0.0,0.0,0.0,0.0,0.0,0.0,0.0,0.0,0.0,0.0,0.0,0.0,0.0,0.0,0.0,0.0,0.0,0.0,0.0,0.0,0.0,0.0,0.0,0.0,0.0,0.0,0.0,0.0,0.0,0.0,0.0,0.0,0.0,0.0,0.0,0.0,0.0,0.0,0.0,0.0,0.0,0.0,5.5188,6.6897,7.2022,7.5168,7.6589,7.4492,6.9992,6.2685,0.0,0.0,0.0,0.0,0.0,0.0,0.0,0.0,0.0,0.0,0.0,0.0,0.0,0.0,0.0,0.0,0.0,0.0,0.0,0.0,0.0,0.0,0.0,0.0,0.0,0.0,0.0,0.0,0.0,0.0,0.0,0.0,0.0,0.0,0.0,0.0,0.0,0.0,0.0,0.0,0.0,0.0,0.0,0.0,0.0,0.0,0.0,0.0,0.0,0.0,0.0,0.0,0.0,0.0,0.0,0.0,0.0,0.0,0.0,0.0,0.0,0.0,0.0,0.0,0.0,0.0,0.0,0.0,0.0,0.0,0.0,0.0,0.0,0.0,0.0,0.0,0.0,0.0,0.0,0.0,0.0,0.0,0.0,0.0,0.0,0.0,0.0,0.0,0.0,0.0,0.0,0.0,0.0,0.0,0.0,0.0,0.0,0.0,0.0,0.0,0.0,0.0,0.0,5.3119,5.8757,6.9113,7.2834,7.4897,7.5608,7.4018,6.9958,6.2854,5.981,0.0,0.0,0.0,0.0,0.0,0.0,0.0,0.0,0.0,0.0,0.0,0.0,0.0,0.0,0.0,0.0,0.0,0.0,0.0,0.0,0.0,0.0,0.0,0.0,0.0,0.0,0.0,0.0,0.0,0.0,0.0,0.0,0.0,0.0,0.0,0.0,0.0,0.0,0.0,0.0,0.0,0.0,0.0,0.0,0.0,0.0,0.0,0.0,0.0,0.0,0.0,0.0,0.0,0.0,0.0,0.0,0.0,0.0,0.0,0.0,0.0,0.0,0.0,0.0,0.0,0.0,0.0,0.0,0.0,0.0,0.0,0.0,0.0,0.0,0.0,0.0,0.0,0.0,0.0,0.0,0.0,0.0,0.0,0.0,0.0,0.0,0.0,0.0,0.0,0.0,0.0,0.0,0.0,0.0,0.0,0.0,0.0,0.0,0.0,0.0,0.0,0.0,5.7698,6.1975,6.9857,7.2732,7.4153,7.4322,7.2529,6.8741,6.2516,5.778,0.0,0.0,0.0,0.0,0.0,0.0,0.0,0.0,0.0,0.0,0.0,0.0,0.0,0.0,0.0,0.0,0.0,0.0,0.0,0.0,0.0,0.0,0.0,0.0,0.0,0.0,0.0,0.0,0.0,0.0,0.0,0.0,0.0,0.0,0.0,0.0,0.0,0.0,0.0,0.0,0.0,0.0,0.0,0.0,0.0,0.0,0.0,0.0,0.0,0.0,0.0,0.0,0.0,0.0,0.0,0.0,0.0,0.0,0.0,0.0,0.0,0.0,0.0,0.0,0.0,0.0,0.0,0.0,0.0,0.0,0.0,0.0,0.0,0.0,0.0,0.0,0.0,0.0,0.0,0.0,0.0,0.0,0.0,0.0,0.0,0.0,0.0,0.0,0.0,0.0,0.0,0.0,0.0,0.0,0.0,0.0,0.0,0.0,0.0,0.0,0.0,0.0,5.9318,6.4681,7.1515,7.2428,7.2834,7.351,6.8436,6.4106,6.1535,5.4566,0.0,0.0,0.0,0.0,0.0,0.0,0.0,0.0,0.0,0.0,0.0,0.0,0.0,0.0,0.0,0.0,0.0,0.0,0.0,0.0,0.0,0.0,0.0,0.0,0.0,0.0,0.0,0.0,0.0,0.0,0.0,0.0,0.0,0.0,0.0,0.0,0.0,0.0,0.0,0.0,0.0,0.0,0.0,0.0,0.0,0.0,0.0,0.0,0.0,0.0,0.0,0.0,0.0,0.0,0.0,0.0,0.0,0.0,0.0,0.0,0.0,0.0,0.0,0.0,0.0,0.0,0.0,0.0,0.0,0.0,0.0,0.0,0.0,0.0,0.0,0.0,0.0,0.0,0.0,0.0,0.0,0.0,0.0,0.0,0.0,0.0,0.0,0.0,0.0,0.0,0.0,0.0,0.0,0.0,0.0,0.0,0.0,0.0,0.0,0.0,0.0,0.0,5.9432,6.4275,0.0,7.2124,7.2326,7.2157,6.9654,6.5933,6.0858,0.0,0.0,0.0,0.0,0.0,0.0,0.0,0.0,0.0,0.0,0.0,0.0,0.0,0.0,0.0,0.0,0.0,0.0,0.0,0.0,0.0,0.0,0.0,0.0,0.0,0.0,0.0,0.0,0.0,0.0,0.0,0.0,0.0,0.0,0.0,0.0,0.0,0.0,0.0,0.0,0.0,0.0,0.0,0.0,0.0,0.0,0.0,0.0,0.0,0.0,0.0,0.0,0.0,0.0,0.0,0.0,0.0,0.0,0.0,0.0,0.0,0.0,0.0,0.0,0.0,0.0,0.0,0.0,0.0,0.0,0.0,0.0,0.0,0.0,0.0,0.0,0.0,0.0,0.0,0.0,0.0,0.0,0.0,0.0,0.0,0.0,0.0,0.0,0.0,0.0,0.0,0.0,0.0,0.0,0.0,0.0,0.0,0.0,0.0,0.0,0.0,0.0,5.5539,5.942,6.4038,0.0,7.1616,7.1853,7.1345,6.8639,6.5019,6.0385,0.0,0.0,0.0,0.0,0.0,0.0,0.0,0.0,0.0,0.0,0.0,0.0,0.0,0.0,0.0,0.0,0.0,0.0,0.0,0.0,0.0,0.0,0.0,0.0,0.0,0.0,0.0,0.0,0.0,0.0,0.0,0.0,0.0,0.0,0.0,0.0,0.0,0.0,0.0,0.0,0.0,0.0,0.0,0.0,0.0,0.0,0.0,0.0,0.0,0.0,0.0,0.0,0.0,0.0,0.0,0.0,0.0,0.0,0.0,0.0,0.0,0.0,0.0,0.0,0.0,0.0,0.0,0.0,0.0,0.0,0.0,0.0,0.0,0.0,0.0,0.0,0.0,0.0,0.0,0.0,0.0,0.0,0.0,0.0,0.0,0.0,0.0,0.0,0.0,0.0,0.0,0.0,0.0,0.0,0.0,0.0,0.0,0.0,0.0,0.0,0.0,0.0,5.4974,5.9554,6.441,6.962,7.0872,7.1312,7.1312,6.4444,6.0148,0.0,0.0,0.0,0.0,0.0,0.0,0.0,0.0,0.0,0.0,0.0,0.0,0.0,0.0,0.0,0.0,0.0,0.0,0.0,0.0,0.0,0.0,0.0,0.0,0.0,0.0,0.0,0.0,0.0,0.0,0.0,0.0,0.0,0.0,0.0,0.0,0.0,0.0,0.0,0.0,0.0,0.0,0.0,0.0,0.0,0.0,0.0,0.0,0.0,0.0,0.0,0.0,0.0,0.0,0.0,0.0,0.0,0.0,0.0,0.0,0.0,0.0,0.0,0.0,0.0,0.0,0.0,0.0,0.0,0.0,0.0,0.0,0.0,0.0,0.0,0.0,0.0,0.0,0.0,0.0,0.0,0.0,0.0,0.0,0.0,0.0,0.0,0.0,0.0,0.0,0.0,0.0,0.0,0.0,0.0,0.0,0.0,0.0,0.0,0.0,0.0,0.0,0.0,5.5871,6.0367,6.4986,6.9688,7.0872,7.1312,7.1312,6.6373,6.2381,6.0216,0.0,0.0,0.0,0.0,0.0,0.0,0.0,0.0,0.0,0.0,0.0,0.0,0.0,0.0,0.0,0.0,0.0,0.0,0.0,0.0,0.0,0.0,0.0,0.0,0.0,0.0,0.0,0.0,0.0,0.0,0.0,0.0,0.0,0.0,0.0,0.0,0.0,0.0,0.0,0.0,0.0,0.0,0.0,0.0,0.0,0.0,0.0,0.0,0.0,0.0,0.0,0.0,0.0,0.0,0.0,0.0,0.0,0.0,0.0,0.0,0.0,0.0,0.0,0.0,0.0,0.0,0.0,0.0,0.0,0.0,0.0,0.0,0.0,0.0,0.0,0.0,0.0,0.0,0.0,0.0,0.0,0.0,0.0,0.0,0.0,0.0,0.0,0.0,0.0,0.0,0.0,0.0,0.0,0.0,0.0,0.0,0.0,0.0,0.0,0.0,0.0,0.0,5.5784,6.0283,6.4783,6.9282,7.0669,7.1312,7.1312,6.7455,6.3362,5.9471,0.0,0.0,0.0,0.0,0.0,0.0,0.0,0.0,0.0,0.0,0.0,0.0,0.0,0.0,0.0,0.0,0.0,0.0,0.0,0.0,0.0,0.0,0.0,0.0,0.0,0.0,0.0,0.0,0.0,0.0,0.0,0.0,0.0,0.0,0.0,0.0,0.0,0.0,0.0,0.0,0.0,0.0,0.0,0.0,0.0,0.0,0.0,0.0,0.0,0.0,0.0,0.0,0.0,0.0,0.0,0.0,0.0,0.0,0.0,0.0,0.0,0.0,0.0,0.0,0.0,0.0,0.0,0.0,0.0,0.0,0.0,0.0,0.0,0.0,0.0,0.0,0.0,0.0,0.0,0.0,0.0,0.0,0.0,0.0,0.0,0.0,0.0,0.0,0.0,0.0,0.0,0.0,0.0,0.0,0.0,0.0,0.0,0.0,0.0,0.0,0.0,0.0,5.5243,5.9674,6.4106,6.8605,7.0432,7.1312,7.1312,6.7861,6.3565,5.8524,0.0,0.0,0.0,0.0,0.0,0.0,0.0,0.0,0.0,0.0,0.0,0.0,0.0,0.0,0.0,0.0,0.0,0.0,0.0,0.0,0.0,0.0,0.0,0.0,0.0,0.0,0.0,0.0,0.0,0.0,0.0,0.0,0.0,0.0,0.0,0.0,0.0,0.0,0.0,0.0,0.0,0.0,0.0,0.0,0.0,0.0,0.0,0.0,0.0,0.0,0.0,0.0,0.0,0.0,0.0,0.0,0.0,0.0,0.0,0.0,5.4106,0.0,0.0,0.0,0.0,0.0,0.0,0.0,0.0,0.0,0.0,0.0,0.0,0.0,0.0,0.0,0.0,0.0,0.0,0.0,0.0,0.0,0.0,0.0,0.0,0.0,0.0,0.0,0.0,0.0,0.0,0.0,0.0,0.0,0.0,0.0,0.0,0.0,0.0,0.0,0.0,0.0,5.5987,5.9979,6.4106,6.8605,7.0432,7.1312,7.1312,6.7861,6.4208,6.0791,5.5683,0.0,0.0,0.0,0.0,0.0,0.0,0.0,0.0,0.0,0.0,0.0,0.0,0.0,0.0,0.0,0.0,0.0,0.0,0.0,0.0,0.0,0.0,0.0,0.0,0.0,0.0,0.0,0.0,0.0,0.0,0.0,0.0,0.0,0.0,0.0,0.0,0.0,0.0,0.0,0.0,0.0,0.0,0.0,0.0,0.0,0.0,0.0,0.0,0.0,0.0,0.0,0.0,0.0,0.0,0.0,0.0,0.0,0.0,0.0,0.0,5.6381,0.0,0.0,0.0,0.0,0.0,0.0,0.0,0.0,0.0,0.0,0.0,0.0,0.0,0.0,0.0,0.0,0.0,0.0,0.0,0.0,0.0,0.0,0.0,0.0,0.0,0.0,0.0,0.0,0.0,0.0,0.0,0.0,0.0,0.0,0.0,0.0,0.0,0.0,0.0,0.0,5.6224,6.008,6.4106,6.8605,7.0432,7.1312,7.1312,6.8504,6.5019,6.0994,5.6799,0.0,0.0,0.0,0.0,0.0,0.0,0.0,0.0,0.0,0.0,0.0,0.0,0.0,0.0,0.0,0.0,0.0,0.0,0.0,0.0,0.0,0.0,0.0,0.0,0.0,0.0,0.0,0.0,0.0,0.0,0.0,0.0,0.0,0.0,0.0,0.0,0.0,0.0,0.0,0.0,0.0,0.0,0.0,0.0,0.0,0.0,0.0,0.0,0.0,0.0,0.0,0.0,0.0,6.4127,6.5632,6.776,6.776,6.754,6.7063,6.4457,6.1337,5.8143,5.8914,0.0,0.0,0.0,0.0,0.0,0.0,0.0,0.0,0.0,0.0,0.0,0.0,0.0,0.0,0.0,0.0,0.0,0.0,0.0,0.0,0.0,0.0,0.0,0.0,5.4329,5.3044,4.9932,0.0,0.0,0.0,0.0,0.0,0.0,0.0,0.0,0.0,0.0,0.0,5.6055,5.9877,6.3869,6.8233,7.0026,7.0939,7.0939,6.9079,6.5899,6.1163,5.8457,5.4941,0.0,0.0,0.0,0.0,0.0,0.0,0.0,0.0,0.0,0.0,0.0,0.0,0.0,0.0,0.0,0.0,0.0,0.0,0.0,0.0,0.0,0.0,0.0,0.0,0.0,0.0,0.0,0.0,0.0,0.0,0.0,0.0,5.2087,5.2821,0.0,0.0,0.0,0.0,0.0,0.0,0.0,0.0,0.0,0.0,0.0,0.0,0.0,6.2401,6.6072,6.7026,6.8311,7.0036,7.0844,7.1762,7.2753,7.2753,7.345,7.4698,7.4992,0.0,6.2915,6.0309,0.0,0.0,0.0,0.0,0.0,0.0,0.0,0.0,0.0,0.0,0.0,0.0,0.0,0.0,0.0,0.0,0.0,0.0,0.0,0.0,0.0,0.0,5.6867,5.5818,5.5513,5.5277,0.0,5.2198,4.9729,4.9018,4.797,0.0,0.0,0.0,0.0,0.0,0.0,0.0,5.5446,5.9133,6.2888,6.6711,6.847,6.9383,6.9383,6.847,6.6779,6.4174,6.008,5.7119,5.5697,5.2551,0.0,0.0,0.0,0.0,0.0,0.0,0.0,0.0,0.0,0.0,0.0,0.0,0.0,0.0,0.0,0.0,0.0,0.0,0.0,0.0,0.0,0.0,0.0,0.0,0.0,0.0,0.0,0.0,0.0,5.4509,5.5868,5.3482,5.5904,5.6748,0.0,0.0,0.0,0.0,0.0,0.0,0.0,0.0,0.0,6.4383,6.5264,6.721,7.0367,7.2092,7.4001,7.6093,7.7341,7.8626,7.9837,7.9837,8.0461,8.1562,8.1452,7.8956,7.4515,6.8972,6.5081,6.2438,0.0,0.0,0.0,0.0,5.7409,5.733,5.6975,5.7328,0.0,5.8141,0.0,0.0,0.0,0.0,0.0,0.0,0.0,0.0,0.0,0.0,6.025,5.9607,5.9776,5.9979,5.9539,5.6833,5.3754,0.0,5.0338,4.9864,4.9796,0.0,0.0,0.0,0.0,5.2604,5.6427,5.9505,6.2719,6.6406,6.7793,6.8605,6.9079,6.8368,6.6948,6.4749,6.1603,5.8705,5.6235,5.4537,5.3379,0.0,0.0,0.0,0.0,0.0,0.0,0.0,0.0,0.0,0.0,0.0,0.0,0.0,0.0,0.0,0.0,0.0,0.0,0.0,0.0,0.0,0.0,0.0,0.0,0.0,0.0,0.0,0.0,5.6748,5.829,5.4289,5.7886,5.9134,0.0,0.0,0.0,0.0,0.0,0.0,6.2401,6.431,6.688,7.0367,7.1468,7.3266,7.5873,7.7671,7.9727,8.1966,8.3141,8.4572,8.6151,8.6151,8.6444,8.6995,8.6407,8.5453,8.3765,7.6423,7.1174,6.7577,6.5742,6.4256,6.3005,6.2373,6.2077,6.1878,6.1435,6.1576,6.1849,6.1086,5.9559,5.7706,5.5813,0.0,0.0,0.0,0.0,5.7712,5.9201,6.1264,6.3057,6.3429,6.3937,6.4208,6.3632,6.1298,5.8118,0.0,5.2706,5.2063,5.1352,0.0,0.0,0.0,0.0,5.3078,5.6596,5.937,6.2212,6.5358,6.6508,6.7286,6.7895,6.7387,6.6339,6.4715,6.2685,6.025,5.7273,5.6574,5.5057,5.2718,0.0,0.0,0.0,0.0,0.0,0.0,0.0,0.0,0.0,0.0,0.0,0.0,0.0,0.0,0.0,0.0,0.0,0.0,0.0,0.0,0.0,0.0,0.0,0.0,0.0,0.0,0.0,0.0,0.0,5.5684,5.9061,0.0,0.0,0.0,0.0,6.0052,6.3025,6.5888,6.8348,7.0734,7.3854,7.7928,7.958,8.1929,8.5086,8.5233,8.6151,8.7766,8.7839,8.8757,9.0298,9.0298,9.0335,9.0372,9.0335,8.8977,8.6261,7.8919,7.5322,7.3964,6.9339,6.7485,6.715,6.4678,6.3791,6.3511,6.1851,6.2361,6.3886,6.5152,6.5021,6.3752,6.0738,5.9356,0.0,0.0,5.8287,5.9268,6.0791,6.2821,6.485,6.6271,6.6609,6.6643,6.6609,6.4816,6.1704,0.0,5.3788,5.2063,5.1352,0.0,5.0845,5.0236,5.1995,5.3721,5.4634,5.7915,6.0791,6.2448,6.3903,6.4783,6.4816,6.4783,6.4715,6.4613,6.3159,6.1941,6.1061,5.8907,5.7329,5.6541,5.4409,0.0,0.0,0.0,0.0,0.0,0.0,0.0,0.0,0.0,0.0,0.0,0.0,0.0,0.0,0.0,0.0,0.0,0.0,0.0,0.0,0.0,0.0,0.0,0.0,0.0,0.0,0.0,0.0,6.4787,6.8017,0.0,6.5264,6.4751,6.5007,6.5815,6.8862,7.2018,7.4992,7.7414,8.0351,8.3911,8.4572,8.6151,8.8867,8.9381,9.0225,9.1363,9.1877,9.2427,9.2978,9.2978,9.2684,9.2207,9.2207,9.14,8.9858,8.6738,8.281,7.8589,7.635,7.4493,7.2958,7.2017,7.1586,7.129,6.9578,6.9417,6.9424,6.6345,6.4953,6.3943,6.1008,6.0458,6.0809,6.0789,6.167,6.2854,6.3869,6.5797,6.7489,6.7523,6.7895,6.8132,6.7624,6.6542,6.4816,6.1975,5.8829,5.6393,5.5649,5.3957,5.3078,5.4228,5.4296,5.4972,5.7171,5.8998,6.0858,6.2888,6.3599,6.4106,6.4546,6.4174,6.37,6.3193,6.1772,6.0385,5.9167,5.7423,5.5887,5.46,5.4253,5.3474,0.0,0.0,0.0,0.0,0.0,0.0,0.0,0.0,0.0,0.0,0.0,0.0,0.0,0.0,0.0,0.0,0.0,0.0,0.0,0.0,0.0,0.0,0.0,0.0,0.0,0.0,6.9119,7.0734,7.4258,7.5285,7.2018,7.1505,7.1688,7.2532,7.5542,7.8662,8.1672,8.3875,8.6151,8.8536,8.916,9.0115,9.1436,9.2244,9.2941,9.3529,9.4042,9.4299,9.4299,9.4299,9.3859,9.3088,9.3088,9.2611,9.1767,9.1216,8.8353,8.4132,8.2774,8.1044,7.9194,7.856,7.8063,7.7512,7.5976,7.4828,7.3464,6.9883,6.7867,6.6553,6.4381,6.3854,6.4069,6.459,6.5243,6.5899,6.6643,6.8132,6.935,6.8808,6.9079,6.9316,6.8774,6.7895,6.6812,6.5595,6.2753,6.0114,5.8863,5.7036,5.6156,5.7374,5.6697,5.6867,5.9099,6.0047,6.1095,6.2618,6.299,6.3125,6.3091,6.2888,6.211,6.0588,5.9539,5.8457,5.7205,5.5987,5.4971,5.4147,5.4111,5.3602,5.262,0.0,0.0,0.0,0.0,0.0,0.0,0.0,0.0,0.0,0.0,0.0,0.0,0.0,0.0,0.0,0.0,0.0,0.0,0.0,0.0,0.0,0.0,0.0,6.0676,6.765,7.2753,7.2973,7.7194,7.8846,7.5652,7.7561,7.9286,7.9984,8.303,8.5894,8.8243,8.9858,9.1069,9.184,9.3455,9.3932,9.3161,9.3932,9.4336,9.4336,9.4336,9.4373,9.4373,9.4373,9.3932,9.3125,9.3125,9.2648,9.1803,9.1803,9.1326,9.0408,8.8059,8.6628,8.5715,8.3883,8.2648,8.1708,8.0153,7.7844,7.5711,7.5868,7.4295,7.2119,7.1339,6.9871,6.8621,6.9341,6.8816,6.8132,6.891,6.9654,7.0229,7.0195,7.0195,7.0195,7.0161,6.8977,6.7726,6.6948,6.5087,6.2888,6.0588,6.0182,5.9911,5.9201,5.9066,0.0,6.0047,6.0825,6.1332,6.1366,6.2009,6.1806,6.0283,6.0825,5.9979,5.7002,5.6697,5.6359,5.5649,5.4905,5.4823,5.5539,5.4056,5.3303,5.3388,0.0,0.0,0.0,0.0,0.0,0.0,0.0,0.0,0.0,0.0,0.0,0.0,0.0,0.0,0.0,0.0,0.0,0.0,0.0,0.0,0.0,0.0,6.8935,6.9155,7.312,7.7965,8.3251,8.56,8.6407,8.5527,8.6554,8.6921,8.5967,8.8904,9.1069,9.173,9.2721,9.3382,9.3602,9.4042,9.4189,9.3969,9.4777,9.518,9.518,9.5768,9.6025,9.6025,9.6025,9.529,9.3969,9.3969,9.3125,9.1803,9.1803,9.1657,9.1363,9.0115,8.9124,8.8173,8.6532,8.467,8.2842,8.1818,8.0625,7.9158,7.733,7.6777,7.6373,7.4045,7.2674,7.1734,7.1236,7.0393,6.9485,6.918,7.006,7.0872,7.0331,7.0601,7.0703,6.962,6.9079,6.8368,6.7083,6.6339,6.5189,6.2956,6.211,6.1501,6.0791,6.0182,0.0,6.0858,6.1163,6.1704,6.2787,6.3091,6.2821,6.1839,6.0452,5.8829,5.6934,5.4735,5.345,5.3247,5.2536,5.2695,5.3969,5.3638,5.4223,0.0,0.0,0.0,0.0,0.0,0.0,0.0,0.0,0.0,0.0,0.0,0.0,0.0,0.0,0.0,0.0,0.0,0.0,0.0,0.0,0.0,0.0,7.0881,7.5579,7.8662,8.0424,8.3324,8.8573,9.0849,9.184,9.151,9.2501,9.2501,9.0886,9.2831,9.4263,9.4593,9.5034,9.5437,9.5804,9.5804,9.5658,9.529,9.5768,9.6025,9.6025,9.6502,9.6685,9.6685,9.6685,9.5804,9.4299,9.4299,9.3345,9.1803,9.1803,9.1803,0.0,0.0,0.0,0.0,0.0,8.6701,8.4756,8.3618,8.226,8.069,7.8777,7.8135,7.7741,7.6036,7.469,7.3562,7.2984,7.1794,7.0567,7.0128,7.0669,7.121,7.077,7.1007,7.1075,7.0229,6.9789,6.9214,6.7996,6.7489,0.0,6.4749,6.3802,6.3193,6.2753,6.1772,6.1332,6.211,6.1941,6.2076,6.2956,6.3057,6.2482,6.1095,5.9776,0.0,0.0,0.0,5.1555,5.0947,5.1157,0.0,0.0,0.0,5.4399,5.6332,5.5584,0.0,0.0,5.1778,5.1327,0.0,0.0,0.0,0.0,0.0,0.0,0.0,0.0,0.0,0.0,0.0,0.0,0.0,0.0,0.0,0.0,7.6276,8.0975,8.7912,8.8426,8.8904,9.1033,9.3932,9.5511,9.4777,9.6098,9.6355,9.4813,9.5474,9.6245,9.6942,0.0,0.0,0.0,0.0,9.7676,9.6979,9.6979,9.6942,9.6832,9.6832,9.6795,9.6685,9.6685,9.5878,9.4446,9.4446,9.3492,9.195,9.195,9.1877,9.1803,9.1803,9.1693,9.1363,8.9931,8.8316,8.6664,8.5123,0.0,0.0,8.0241,7.8883,7.7561,7.7488,7.5963,7.431,7.431,7.2832,7.1312,7.1312,7.1312,7.1312,7.1312,7.1312,7.1312,7.121,7.0669,6.9958,6.9248,6.8504,6.759,6.617,6.5256,6.4681,6.4613,6.3429,6.2753,6.3429,6.2854,6.2415,6.2516,0.0,0.0,5.9573,5.9167,5.7239,5.3078,5.1894,5.0744,4.9424,5.0601,5.1914,5.3324,5.3401,5.4154,5.5721,5.5044,5.4752,5.4752,5.3288,5.2207,0.0,0.0,0.0,0.0,0.0,0.0,0.0,0.0,0.0,0.0,0.0,0.0,0.0,0.0,0.0,7.7524,8.27,8.7729,9.2464,9.4116,9.4997,9.5474,9.6649,9.7346,9.7199,9.808,9.8227,9.7273,9.797,9.8484,9.8631,9.8631,9.8704,9.8851,9.8888,9.8814,9.8631,9.8631,9.83,9.7676,0.0,0.0,9.6685,9.6685,9.6171,9.529,9.529,9.4373,9.2868,9.2868,9.2427,9.1803,9.1803,9.1033,8.9858,8.9528,8.7986,8.5894,8.4939,8.3875,8.27,8.1232,8.0094,7.9176,7.8552,7.6433,0.0,7.431,7.2832,7.1312,7.1312,7.1312,7.1312,7.1312,7.1312,7.1142,7.0534,7.0297,6.9958,6.9248,6.8977,6.8571,6.7624,6.6373,6.529,6.4681,6.3869,6.3362,6.3497,6.2854,6.2618,6.3226,6.3294,6.2888,6.1839,6.008,5.8118,5.6055,5.3518,5.1961,5.1657,5.1346,5.1651,5.2468,5.3192,5.4226,5.5721,5.6181,5.6453,5.64,5.4852,5.3788,0.0,0.0,0.0,0.0,0.0,0.0,0.0,0.0,0.0,0.0,0.0,6.6329,0.0,0.0,7.8662,8.2737,8.7472,9.1803,9.5034,9.7236,9.8337,9.797,9.8594,9.9255,9.9659,10.0393,10.0613,9.9732,10.0099,10.0283,10.0283,9.9916,9.9879,10.0283,9.9916,9.9695,9.9695,9.9292,9.8924,9.8484,9.808,9.7897,9.786,9.7089,9.6502,9.6098,9.5694,9.4593,9.3088,9.2648,9.217,9.1803,9.1803,9.1069,8.9968,8.9564,8.839,8.6775,8.5159,8.4058,8.3141,8.1525,8.0167,7.9103,7.8699,7.6917,7.5048,7.5048,7.365,7.2056,7.2056,7.1688,7.1312,7.1312,7.1312,7.121,7.0838,7.0737,7.0534,6.9789,6.9654,6.9282,6.8098,6.7286,6.6406,6.5324,6.4208,6.3632,6.4005,6.3429,6.3226,6.3971,6.3734,6.3193,6.2448,5.9979,5.7983,5.6867,5.504,5.3856,5.345,5.3112,5.3073,5.343,5.3871,5.4965,5.6921,5.7314,5.7693,5.8067,5.729,5.5914,0.0,0.0,0.0,0.0,0.0,0.0,0.0,0.0,6.4535,6.6086,6.9352,7.2613,7.4757,7.9507,8.4242,8.7655,9.1473,9.4887,9.7273,9.9438,10.0613,10.0099,10.0613,10.1274,10.1898,10.2595,10.2705,10.2008,10.1971,10.1898,10.1677,10.109,10.098,10.1494,10.0907,10.0503,10.0503,9.9879,9.9512,9.9328,9.8668,9.8521,9.8814,9.753,9.6832,9.6649,9.5878,9.4777,9.3492,9.2464,9.206,9.2024,9.1877,9.14,9.0739,8.9931,8.894,8.7692,8.5747,8.4462,8.3398,8.1966,8.0498,7.925,7.9103,7.7648,7.6039,7.6039,7.4642,7.309,7.309,7.2498,7.1917,7.1917,7.1776,7.16,7.16,7.1457,7.1142,7.0534,7.0398,6.9958,6.8571,6.8233,6.7624,6.6136,6.4783,6.414,6.4749,6.4174,6.3937,6.4546,6.3937,6.3159,6.2245,5.9945,5.822,5.7509,5.6765,5.6089,5.548,5.531,5.5175,5.5006,5.5006,5.5956,5.7857,5.8036,5.8503,5.9275,5.9275,5.779,6.4661,6.2067,6.0518,6.1923,6.3214,6.5344,0.0,0.0,7.3376,7.445,7.6797,7.8964,7.9963,8.3618,8.7766,9.1767,9.518,9.819,10.0576,10.1788,10.2705,10.3293,10.3403,10.3513,10.3586,10.3696,10.3696,10.3586,10.3586,10.3293,10.2595,10.2522,10.2118,10.1494,10.1384,10.1384,10.1384,10.1274,10.0907,10.0209,10.0099,9.9328,9.8007,9.786,9.7383,9.6649,9.5878,9.5401,9.5107,9.3602,9.2941,9.2868,9.2097,9.173,9.1583,9.0776,8.905,8.7105,8.6848,8.5747,8.4315,8.3434,8.2517,8.1672,8.0938,7.8923,7.6833,7.6833,7.5512,7.4158,7.4158,7.4005,7.3928,7.3928,7.3252,7.2666,7.2666,7.1917,7.1278,7.121,7.1176,7.0906,7.0094,6.9383,6.8436,6.6914,6.5967,6.5459,6.5561,6.4918,6.4512,6.458,6.3937,6.2956,6.1535,6.1129,6.0588,5.9776,5.9066,5.8592,5.8524,5.7881,5.7205,5.6562,5.6562,5.6679,5.6923,5.7736,5.8503,5.9222,5.9275,5.836,6.4971,6.4319,6.4841,0.0,6.8709,7.2608,7.584,7.7748,7.9387,8.1253,8.3988,8.643,8.7736,9.0573,9.3345,0.0,9.8614,10.0869,10.1391,10.26,10.3013,10.1905,10.2191,10.3072,10.4504,10.421,10.4284,10.5275,10.4908,10.421,10.3403,10.2999,10.2301,10.1494,10.1494,10.1494,10.1494,10.1494,10.1274,10.098,10.0503,10.0209,9.9952,9.8521,9.7456,9.6649,9.5878,9.5254,9.4703,9.3565,9.2794,9.2317,9.195,9.1803,9.1693,9.0922,8.9674,8.828,8.7325,8.6261,8.5086,8.3838,8.2847,8.2039,8.1232,7.9873,7.8515,7.8078,7.6935,7.5765,7.5335,7.4757,7.431,7.431,7.3928,7.365,7.365,7.3332,7.288,7.2279,7.2193,7.173,7.0385,6.9925,6.9383,6.8301,6.6745,6.6,6.6846,6.5967,6.5222,6.5222,6.4952,6.4377,6.3328,6.2821,6.2448,6.211,6.14,6.0791,6.0385,6.0047,5.9505,5.8727,5.9242,5.9564,5.9459,5.9889,6.0749,6.1909,6.1532,6.125,6.5451,0.0,0.0,7.0234,7.5073,8.004,8.2129,8.4534,8.6818,8.8653,9.1099,9.3192,9.4121,9.5981,9.7615,9.8452,10.1128,10.2945,10.2316,10.3013,10.2573,9.9921,9.9732,10.0613,10.2595,10.3513,10.4504,10.5899,10.5715,10.5091,10.4284,10.3696,10.2889,10.1898,10.1788,10.1677,10.1494,10.1494,10.1494,10.1494,10.0907,10.0796,10.109,9.8888,9.7456,9.6685,9.6098,9.5364,9.4556,9.3749,9.2941,9.2134,9.1877,9.1803,9.173,9.1143,9.0298,8.9234,8.8096,8.6995,8.5857,8.4242,8.3361,8.2663,8.1636,8.0755,7.9947,7.914,7.8179,7.728,7.6415,7.5649,7.5156,7.5156,7.4903,7.4684,7.4684,7.431,7.365,7.2962,7.2582,7.197,7.0744,7.0331,7.0094,6.9755,6.7963,6.7015,6.8098,6.7083,6.6237,6.6034,6.5797,6.5392,6.4647,6.4106,6.3802,6.3802,6.3294,6.2753,6.2245,6.2009,6.1535,6.0757,6.1199,6.1392,6.1467,6.152,6.223,6.3562,6.2987,6.3059,0.0,0.0,7.0835,7.6554,8.192,8.6572,8.9414,9.3676,9.7096,9.7311,9.8087,9.8566,9.7889,9.8464,9.9307,10.011,10.2265,10.3925,10.3806,10.3182,10.1648,9.8337,9.6612,9.6025,0.0,10.12,10.421,10.5128,10.5899,10.6009,10.5128,10.5018,10.432,10.2705,10.2705,10.2301,10.1494,10.1494,10.1494,10.1494,10.1494,10.109,10.0283,9.8631,9.7456,9.6685,9.6685,9.6208,9.5401,9.4593,9.3786,9.2978,9.2134,9.1803,9.1803,9.1767,9.0776,8.9417,8.9344,8.8316,8.6701,8.5086,8.4535,8.4242,8.2627,8.1599,8.0791,7.9984,7.9176,7.8343,7.7463,7.7243,7.7181,7.7181,7.6498,7.5718,7.5718,7.4234,7.2797,7.2797,7.1969,7.1312,7.1278,7.0669,7.0432,7.1142,6.9958,6.9011,6.9079,6.8335,6.7557,6.6846,6.6136,6.5392,6.4647,6.458,6.458,6.458,6.4546,6.4512,6.4512,6.3835,6.3091,6.2347,6.1637,6.1354,6.1537,6.1432,6.1844,6.2726,6.2663,6.2663,7.0762,0.0,8.0391,8.5197,9.0493,9.5212,9.7903,10.0595,10.2211,10.1203,9.9855,9.8567,9.7308,9.6318,9.6194,9.7684,10.0904,10.3017,10.2382,10.301,10.1648,9.6137,9.5988,0.0,0.0,0.0,0.0,10.399,10.4577,10.4798,10.5128,10.5128,10.4614,10.3513,10.3513,10.3109,10.2301,10.2301,10.2008,10.1494,10.1494,10.0796,9.9512,9.8924,9.797,9.6685,9.6685,9.6245,9.5437,9.463,9.3822,9.3015,9.2134,9.1803,9.1803,9.1803,9.1106,9.0115,8.9601,8.8353,8.6811,8.5747,8.538,8.5196,8.4132,8.3251,8.2443,8.1599,8.0791,7.9874,7.8516,7.8185,7.8038,7.7451,7.7019,7.6793,7.6793,7.6264,7.558,7.4903,7.4535,7.4082,7.3412,7.3043,7.2731,7.2414,7.0924,6.9654,6.9147,6.8876,6.8605,6.8368,6.7624,6.7049,6.6812,6.5899,6.5324,6.5324,6.4884,6.4613,6.4613,6.4377,6.4106,6.3869,6.3726,6.3364,6.2855,6.2427,6.2578,6.3311,6.2856,6.3164,7.6921,8.2375,8.8268,9.3905,9.8671,10.2404,10.402,10.529,10.5213,10.2289,9.9534,9.6876,9.4432,9.2608,9.2253,9.4559,9.7433,9.976,10.0876,10.1015,9.9279,9.4815,9.4446,9.3822,0.0,0.0,0.0,10.2191,10.3403,10.4284,10.5091,10.5422,10.5201,10.4394,10.432,10.3806,10.2705,10.2705,10.2301,10.1494,10.1494,10.0686,9.9108,9.9108,9.8227,9.6685,9.6685,9.6098,9.5034,9.452,9.3639,9.2574,9.2024,9.1803,9.1803,9.1803,9.1289,9.0482,8.9711,8.8536,8.7252,8.6151,8.5783,8.56,8.4499,8.3838,8.3177,8.2076,8.1415,8.0718,7.936,7.9029,7.8809,7.7965,7.7781,7.7708,7.7378,7.7019,7.6563,7.5959,7.551,7.5048,7.4385,7.431,7.3928,7.2962,7.1866,7.0856,7.0046,6.9654,6.9485,6.9485,6.8808,6.8335,6.8335,6.7184,6.6474,6.6474,6.5797,6.5392,6.5392,6.5121,6.4986,6.4986,6.4811,6.4633,6.4391,6.3673,6.3698,6.4443,6.3698,6.4031,8.5169,8.9837,9.4477,10.2286,10.6097,10.7905,10.7713,10.7598,10.602,10.0827,9.7127,9.3549,0.0,0.0,8.7774,9.0992,9.2648,9.5107,9.9805,9.7933,9.5694,0.0,0.0,0.0,0.0,0.0,0.0,9.9952,0.0,10.41,10.5128,10.6009,10.6009,10.5201,10.5201,10.443,10.2815,10.2705,10.2301,10.1567,10.1494,10.0686,9.9108,9.9108,9.8227,9.6685,9.6649,9.5768,9.4336,9.4263,9.3308,9.184,9.1803,9.1803,9.1803,9.1803,9.1326,9.0555,8.9748,8.8904,8.7949,8.6407,8.5894,8.5563,8.4058,8.3544,8.3141,8.1636,8.1122,8.0865,8.0057,7.9837,7.9653,7.8846,7.8626,7.8369,7.7598,7.6636,7.5891,7.5927,7.5156,7.446,7.446,7.4385,7.4082,7.309,7.288,7.2498,7.1457,7.0703,7.0263,7.0263,6.9586,6.9147,6.9147,6.8402,6.7963,6.7963,6.7286,6.688,6.688,6.6136,6.5764,6.5764,6.5019,6.5062,6.589,6.5028,6.5028,6.5821,6.5028,6.4994,9.2294,9.8672,10.4397,10.7829,10.9598,11.0021,10.8098,10.6213,10.2978,9.6166,9.0681,8.5495,0.0,0.0,0.0,8.7684,9.3969,0.0,10.2595,10.3403,0.0,9.9145,0.0,9.808,9.6502,9.6906,0.0,0.0,10.12,10.2595,10.5899,10.6302,10.6302,10.6082,10.6082,10.5605,10.4504,10.3293,10.2595,10.2412,10.1788,10.0686,9.9108,9.9108,9.8227,9.6685,9.6061,9.5584,9.5107,9.3896,9.3161,9.2721,9.206,9.1803,9.1803,9.1803,9.1657,9.1363,9.0592,8.9381,8.8133,8.7729,8.7178,8.6628,8.6224,8.5233,8.4205,8.3801,8.281,8.1709,8.0901,8.0681,8.0498,7.969,7.9029,7.8699,7.9066,7.7961,7.7139,7.776,7.7166,7.6563,7.6563,7.5891,7.5369,7.5048,7.4385,7.3252,7.1546,7.1142,7.1041,7.1041,7.0364,6.9925,6.9925,6.9214,6.8808,6.8808,6.8064,6.7624,6.7624,6.6914,6.6542,6.6542,6.5797,6.5556,6.5765,6.5013,6.4742,6.4948,6.4661,6.4742,10.0019,10.579,11.0291,11.1983,11.2214,11.0906,10.6521,10.2904,9.7981,8.8805,8.3178,0.0,7.3194,0.0,0.0,0.0,0.0,0.0,10.2705,10.388,10.3696,0.0,10.2008,0.0,10.0099,10.0393,10.1494,0.0,10.2595,10.3182,10.6192,10.6706,10.689,10.689,10.6596,10.5789,10.4614,10.3293,10.2522,10.2191,10.1384,10.0319,9.9108,9.8741,9.7897,9.6685,0.0,9.5621,9.4887,9.4006,9.3198,9.2464,9.1987,9.1803,9.1803,9.1803,9.1803,9.173,9.1289,9.0298,8.9124,8.8426,8.7655,8.6921,8.6591,8.56,8.4609,8.4609,8.3691,8.2627,8.2186,8.2076,8.1782,8.0608,7.9984,7.969,7.9764,7.9066,7.8442,7.8552,7.8479,7.8185,7.7451,7.7185,7.6766,7.5927,7.5299,7.4385,7.2832,7.2193,7.2004,7.2004,7.1138,7.0669,7.0669,6.9992,6.9451,6.9113,6.8335,6.776,6.7421,6.7015,6.6948,6.7286,6.6576,6.6508,6.7184,6.6406,6.6034,6.6034,6.6034,6.6034,10.7482,11.1406,11.3714,11.5099,11.3907,11.0598,10.3712,9.8327,9.1681,8.0467,0.0,7.1681,6.727,6.9599,7.4404,8.1232,0.0,9.4006,10.2301,10.2779,10.2889,10.4504,10.399,10.3513,10.3513,10.3403,10.4284,10.6486,10.5385,10.5201,10.6596,10.7367,10.7697,10.7587,10.678,10.5605,10.41,10.3293,10.2485,10.1604,10.0796,9.9989,9.9071,9.8374,9.7566,9.6685,9.6575,9.5768,9.4446,9.4226,9.3272,9.195,9.184,9.1803,9.1803,9.1803,9.1803,9.1803,9.1803,9.1253,9.0372,8.8867,8.7802,8.7031,8.6187,8.538,8.4756,8.4756,8.4168,8.3581,8.3581,8.3508,8.3067,8.1672,8.1158,8.0828,8.0241,8.0021,7.969,7.8919,7.9323,7.9286,7.7745,7.8112,7.8007,7.6239,7.6027,7.5649,7.483,7.3694,7.3044,7.3044,7.2142,7.1546,7.1546,7.0792,7.006,6.9417,6.8639,6.7929,6.7286,6.7184,6.7421,6.8064,6.7455,6.776,6.9113,6.8402,6.8082,6.8116,6.8116,6.8116,11.1906,11.4984,11.6792,11.6407,11.3407,10.8713,10.1212,9.3141,0.0,0.0,6.9155,6.4812,6.2077,6.6507,7.3303,8.1819,0.0,0.0,0.0,0.0,10.7073,0.0,0.0,0.0,0.0,0.0,0.0,0.0,0.0,10.8101,10.8395,10.8505,10.8285,10.7587,10.678,10.5899,10.4908,10.41,10.3293,10.2485,10.1677,10.0503,9.9108,9.8961,9.808,9.6649,9.6025,0.0,9.518,9.3859,9.3125,9.2794,9.206,9.1803,9.1803,9.1803,9.1803,9.1803,9.1803,9.1253,9.0445,8.9528,8.8647,8.7839,8.7031,8.6224,8.56,8.56,8.5013,8.4389,8.4389,8.3911,8.3361,8.3067,8.1966,8.1158,8.1672,8.1269,8.0534,7.9727,7.969,7.9507,7.8552,7.8516,7.8233,7.7228,7.7019,7.6956,7.6793,7.5156,7.4005,7.4005,7.3125,7.2498,7.2498,7.164,7.1075,7.0939,7.0229,6.9722,6.962,6.9011,6.8774,6.8876,6.8774,6.8842,6.9113,6.8977,6.9016,6.9118,6.9118,6.9118,11.5022,11.7484,11.8715,11.6907,11.2291,10.5597,9.5788,0.0,0.0,0.0,6.3836,6.1273,5.9495,0.0,0.0,0.0,0.0,0.0,0.0,0.0,0.0,0.0,0.0,0.0,0.0,0.0,0.0,0.0,0.0,10.99,10.9386,10.9019,10.8211,10.7,10.6192,10.5311,10.4504,10.3696,10.2889,10.2081,10.1274,10.0283,9.9108,9.8668,9.7823,9.6685,9.6282,9.5914,9.5437,9.4226,9.3492,9.3015,9.2134,9.1803,9.1803,9.1803,9.1803,9.1803,9.1803,9.1546,9.1106,9.0298,8.9197,8.8059,8.7252,8.6444,8.5894,8.6297,8.5857,8.5233,8.5233,8.4646,8.3911,8.3508,8.248,8.1856,8.2663,8.2186,8.1379,8.0571,8.0755,8.0645,7.9433,7.958,7.9433,7.8185,7.8002,7.7818,7.7378,7.6498,7.5685,7.512,7.3694,7.2797,7.2797,7.1917,7.1142,7.0737,7.0398,7.0026,6.962,6.9282,6.9282,6.9654,6.9316,6.9485,7.0263,6.9857,7.0021,7.0614,7.0614,7.0614,11.7215,11.9215,11.9715,11.71,11.1098,10.2828,9.0985,8.1722,0.0,0.0,6.0035,5.9319,5.8419,0.0,0.0,0.0,0.0,0.0,0.0,0.0,0.0,0.0,0.0,0.0,0.0,0.0,0.0,0.0,0.0,0.0,11.0304,10.9312,10.8211,10.7,10.5899,10.4908,10.388,10.3293,10.2485,10.1494,10.0907,9.9989,9.9071,9.8447,9.7603,9.6685,9.6685,9.6355,9.5694,9.4703,9.3932,9.3235,9.2207,9.1803,9.1803,9.1803,9.1803,9.1803,9.1803,9.1803,9.1657,9.0849,8.9638,8.8316,8.7509,8.6701,8.6187,8.6811,8.6554,8.604,8.604,8.5453,8.4609,8.3654,8.292,8.2627,8.3287,8.292,8.226,8.1636,8.1893,8.1746,8.0277,8.0571,8.0498,7.9066,7.8699,7.8369,7.7671,7.7451,7.7019,7.6197,7.4535,7.3332,7.309,7.2364,7.1504,7.0466,7.0663,7.0391,6.9586,6.9586,6.9857,7.0398,6.9857,7.0161,7.1312,7.0737,7.0874,7.1688,7.1688,7.1688,11.8484,11.96,11.9715,11.71,11.0291,10.1095,8.9535,0.0,0.0,6.1759,5.9048,5.8382,5.8988,0.0,0.0,0.0,0.0,8.2443,0.0,0.0,0.0,0.0,0.0,0.0,0.0,0.0,0.0,0.0,0.0,0.0,11.1111,10.9606,10.8688,10.8615,10.711,10.5495,10.388,10.3806,10.2999,10.1494,10.1384,10.0613,9.9108,9.9035,9.8154,9.6685,9.6685,9.6649,0.0,9.4923,9.4263,9.4042,9.2427,9.1803,9.1803,9.1803,9.1803,9.1803,9.1803,9.1803,9.1657,9.0849,9.0005,8.916,8.8316,8.7545,8.6921,8.6995,8.6958,8.6885,8.6885,8.6297,8.5306,8.3765,8.3361,8.3324,8.3398,8.3361,8.3287,8.3214,8.2663,8.1929,8.1048,8.0938,8.0718,7.98,7.9066,7.8552,7.8479,7.7818,7.7243,7.7181,7.6197,7.512,7.4234,7.4082,7.3252,7.13,7.2039,7.2141,7.1109,7.1109,7.1142,7.121,7.1142,7.1176,7.1312,7.1244,7.1299,7.1607,7.1607,7.1607,11.7792,11.9715,11.9715,11.71,10.8983,9.8865,8.8308,0.0,6.8373,6.0781,5.8591,5.8107,5.8437,5.8988,6.13,0.0,0.0,0.0,8.5196,0.0,0.0,0.0,0.0,0.0,0.0,0.0,0.0,0.0,0.0,0.0,11.0487,10.8982,10.7881,10.7404,10.6192,10.5091,10.388,10.3403,10.2595,10.1494,10.1494,10.0686,9.9108,9.9108,9.8227,9.6685,9.6685,9.6685,0.0,9.496,9.4299,9.4116,9.2464,9.1803,9.1803,9.1803,9.1803,9.1803,9.1803,9.1803,9.173,9.1436,9.0776,8.9895,8.861,8.7986,8.7619,8.7142,8.6995,8.6995,8.6995,8.6407,8.5637,8.5013,8.4095,8.3544,8.4022,8.3361,8.281,8.3324,8.2737,8.226,8.2443,8.2039,8.1452,8.0645,8.0241,7.9874,7.936,7.9029,7.8626,7.8148,7.6723,7.5649,7.5227,7.461,7.3963,7.3125,7.288,7.2666,7.2193,7.16,7.1312,7.1312,7.1312,7.1312,7.1312,7.1312,7.1693,7.2347,7.2347,7.2347,11.4907,11.8215,11.9292,11.6484,10.7675,9.7097,0.0,0.0,6.7124,5.9976,5.8238,5.7997,5.7997,5.7997,5.9171,6.2768,6.2989,6.6623,7.7855,8.0241,0.0,0.0,0.0,0.0,0.0,0.0,0.0,0.0,0.0,0.0,10.9606,10.7881,10.6706,10.6376,10.5605,10.4614,10.3586,10.2999,10.2301,10.1494,10.1494,10.0686,9.9108,9.9108,9.8227,9.6685,9.6685,9.6685,0.0,9.496,9.4299,9.4116,9.2464,9.1803,9.1803,9.1803,9.1803,9.1803,9.1803,9.1803,9.1803,9.1803,9.1436,9.0702,8.9344,8.8573,8.8096,8.7509,8.7178,8.6995,8.6995,8.6407,8.5783,8.5783,8.4939,8.4278,8.4829,8.4058,8.3361,8.3691,8.3287,8.2994,8.3361,8.292,8.237,8.1819,8.1305,8.0791,8.0241,7.9947,7.958,7.9029,7.7786,7.6637,7.5859,7.544,7.483,7.3928,7.3492,7.2962,7.2364,7.1688,7.1312,7.1312,7.1312,7.1312,7.1312,7.1312,7.1688,7.2364,7.2364,7.2364,10.9406,11.4599,11.8292,11.4907,10.6405,9.6136,0.0,0.0,6.6327,5.9419,5.7997,5.7997,5.7997,5.7997,5.8804,6.1227,6.3686,6.8385,7.7341,8.1342,0.0,0.0,0.0,0.0,0.0,0.0,0.0,0.0,0.0,0.0,10.8799,10.6523,10.5495,10.6376,10.5605,10.432,10.2705,10.2705,10.2301,10.1494,10.1494,10.0686,9.9108,9.9108,9.8227,9.6685,9.6685,9.6685,0.0,9.496,9.4299,9.4116,9.2464,9.1803,9.1803,9.1803,9.1803,9.1803,9.1803,9.1803,9.1803,9.1803,9.1803,9.1657,9.0812,8.9454,8.8206,8.8206,8.7619,8.6995,8.6995,8.6407,8.5783,8.5783,8.5783,8.5783,8.5783,8.5747,8.5527,8.4756,8.4572,8.4315,8.3544,8.3398,8.3398,8.3398,8.2039,8.1012,8.1012,8.0277,7.98,7.9764,7.9764,7.8711,7.6,7.6692,7.5959,7.3009,7.3729,7.3412,7.1401,7.1312,7.1312,7.1312,7.1312,7.1312,7.1312,7.1312,7.1312,7.1312,7.1312,7.1312,9.8557,10.2481,10.4482,10.1712,9.4792,8.6852,7.9882,0.0,6.5154,5.9255,5.7997,5.7997,5.7997,5.7997,5.9538,6.42,6.5595,6.8274,7.4368,0.0,0.0,0.0,0.0,0.0,0.0,0.0,0.0,0.0,0.0,0.0,10.7183,10.5899,10.5201,10.5495,10.4687,10.3806,10.2705,10.2705,10.2301,10.1494,10.0907,10.0099,9.9071,9.8521,9.7713,9.6685,9.6685,9.6685,9.6575,9.496,9.4299,9.4116,9.2464,9.1803,9.1803,9.1803,9.1803,9.1803,9.1803,9.1803,9.1803,9.1803,9.1803,9.173,9.151,9.0665,8.9601,8.85,8.7619,8.6995,8.6995,8.6811,8.6628,8.6628,8.6187,8.5783,8.5783,8.538,8.5086,8.5343,8.4976,8.4682,8.4976,8.4572,8.4242,8.4242,8.3801,8.3251,8.2737,8.2443,8.1856,8.0755,8.0608,8.0039,7.8646,7.8353,7.7502,7.5762,7.4819,7.3729,7.2364,7.1688,7.1312,7.1312,7.1312,7.1312,7.1312,7.1312,7.1312,7.1312,7.1312,7.1312,0.0,9.3518,9.5904,9.3793,8.7887,0.0,0.0,0.0,6.3475,5.8952,5.7997,5.7997,5.7997,5.7997,5.9245,6.3135,6.453,6.6916,7.2055,0.0,0.0,0.0,0.0,0.0,0.0,0.0,0.0,0.0,0.0,0.0,10.6486,10.5311,10.4504,10.421,10.3696,10.3109,10.2301,10.2191,10.1788,10.098,10.0503,9.9732,9.8631,9.8117,9.7456,9.6685,9.6392,9.6245,0.0,9.452,9.3859,9.3712,9.2354,9.1803,9.1803,9.1803,9.1803,9.1803,9.1803,9.1803,9.1803,9.1803,9.1583,9.1289,9.0996,9.0776,9.0262,8.8647,8.7839,8.7399,8.7105,8.6995,8.6995,8.6995,8.6628,8.6261,8.6261,8.5857,8.549,8.538,8.5416,8.549,8.538,8.5159,8.5049,8.5049,8.4792,8.4425,8.3911,8.3875,8.3361,8.2039,8.1929,8.1599,8.0755,7.969,7.8406,7.6949,7.5822,7.4431,7.2691,7.2008,7.1582,7.1312,7.1312,7.1312,7.1312,7.1312,7.1312,7.1312,7.1312,7.1312,0.0,8.6368,9.0562,0.0,0.0,0.0,0.0,0.0,0.0,0.0,0.0,0.0,5.807,5.8033,5.8364,5.9465,6.163,6.5118,7.0697,7.7524,0.0,0.0,0.0,0.0,0.0,0.0,0.0,0.0,0.0,0.0,10.6302,10.4687,10.3403,10.2595,10.2595,10.2301,10.1494,10.1384,10.098,10.0283,10.0209,9.9328,9.7897,9.7823,9.7383,0.0,9.5914,9.5547,9.5327,9.3859,9.3198,9.3015,9.2207,9.184,9.1803,9.1803,9.1803,9.1803,9.1803,9.1803,9.1803,9.1803,9.1289,9.0555,8.9748,8.9931,9.0152,8.8683,8.8243,8.8023,8.7288,8.7105,8.7068,8.7031,8.6995,8.6995,8.6995,8.6995,8.6554,8.5049,8.6004,8.6554,8.5049,8.538,8.5894,8.5894,8.5233,8.4756,8.4682,8.4682,8.4389,8.3581,8.3508,8.3177,8.2333,8.0791,7.8971,7.6837,7.6611,7.5335,7.2587,7.2428,7.209,7.1413,7.1345,7.1312,7.1312,7.1312,7.1312,7.1312,7.1312,7.1312,6.6007,0.0,7.4542,7.2549,7.0073,6.7581,0.0,0.0,0.0,0.0,0.0,0.0,0.0,5.84,5.9281,6.3246,6.5375,6.8091,7.2496,0.0,0.0,0.0,0.0,0.0,0.0,0.0,0.0,0.0,0.0,10.6192,10.4577,10.3513,10.2595,10.1788,10.1788,10.1677,10.1494,10.0907,10.0503,10.0283,9.9035,9.8264,9.786,9.7273,9.6539,9.5804,9.6245,9.5731,9.4593,9.485,9.4226,9.3088,9.2868,9.2391,9.1803,9.1803,9.1803,9.1803,9.1803,9.1803,9.1803,9.1803,9.1657,9.1363,9.0555,8.9601,8.883,8.905,8.8683,8.8169,8.7986,8.7912,8.7766,8.7142,8.6995,8.6995,8.6995,8.6995,8.6885,8.6518,8.6738,8.6885,8.6518,8.6591,8.6738,8.6738,8.6554,8.6224,8.56,8.5527,8.5196,8.4389,8.4315,8.3985,8.3214,8.1636,7.9808,7.7653,7.693,7.558,7.3298,7.2699,7.2326,7.2157,7.1616,7.1312,7.1312,7.1312,7.1312,7.1312,7.1312,7.1312,6.0266,6.4095,6.7658,6.6554,6.5049,6.3615,0.0,0.0,0.0,0.0,0.0,0.0,0.0,0.0,0.0,6.2989,6.5301,6.9706,0.0,0.0,0.0,0.0,0.0,0.0,0.0,0.0,0.0,0.0,0.0,10.5678,10.399,10.3109,10.2301,10.1494,10.1494,10.1274,10.098,10.0503,9.9916,9.9181,9.83,9.7713,9.7309,9.6906,9.6465,9.6061,9.6135,9.5437,9.4299,9.4373,9.3639,9.2501,9.2501,9.2207,9.1803,9.1803,9.1803,9.1803,9.1803,9.1803,9.173,9.1363,9.1253,9.1106,9.0298,8.9454,8.8757,8.883,8.8536,8.8096,8.7766,8.7655,8.7545,8.7105,8.6995,8.6995,8.6995,8.6995,8.6885,8.6518,8.6738,8.6885,8.6518,8.6775,8.6995,8.6995,8.6995,8.6848,8.6407,8.6334,8.604,8.5233,8.5159,8.4829,8.4022,8.281,8.1045,7.8505,7.7921,7.6594,7.4111,7.3308,7.2597,7.1921,7.1515,7.1312,7.1312,7.1312,7.1312,7.1312,7.1312,7.1546,5.9185,6.2508,6.5711,6.5223,6.3949,6.2711,0.0,0.0,0.0,0.0,0.0,0.0,0.0,0.0,0.0,0.0,0.0,0.0,0.0,0.0,0.0,0.0,0.0,0.0,0.0,0.0,0.0,0.0,0.0,10.5385,10.399,10.2999,10.2191,10.1494,10.1494,10.109,10.0283,10.0209,9.9365,9.7897,9.7787,9.7346,9.6685,9.6685,9.6575,9.6318,0.0,0.0,9.3896,9.3602,9.2831,9.1803,9.195,9.1913,9.1803,9.1803,9.1803,9.1803,9.1803,9.1803,9.1693,9.0996,9.0776,9.0629,8.9858,8.9601,8.9417,8.861,8.839,8.8243,8.7545,8.7288,8.7142,8.7031,8.6995,8.6995,8.6995,8.6995,8.6811,8.6114,8.6518,8.6775,8.6114,8.6554,8.6995,8.6995,8.6995,8.6995,8.6995,8.6995,8.6738,8.604,8.5967,8.5637,8.4866,8.4168,8.257,7.9629,7.9134,7.7677,7.4721,7.3883,7.2868,7.1515,7.1379,7.1312,7.1312,7.1312,7.1312,7.1312,7.1312,7.183,6.155,6.3835,6.4746,6.1279,6.0714,6.0789,0.0,0.0,0.0,0.0,0.0,0.0,0.0,0.0,0.0,0.0,0.0,0.0,0.0,0.0,0.0,0.0,0.0,0.0,0.0,0.0,0.0,0.0,0.0,10.4173,10.388,10.2485,10.1604,10.1494,10.1494,10.109,10.0283,9.9622,9.8814,9.7897,9.7199,9.6832,9.6685,9.6685,9.5951,9.474,0.0,9.4887,9.2354,9.4336,9.3822,9.1877,9.2611,9.2464,9.1803,9.1803,9.1803,9.1803,9.1803,9.1803,9.1767,9.1657,9.162,9.1473,9.0665,9.0445,9.0262,8.9454,8.9234,8.9197,8.9087,8.8536,8.7839,8.7178,8.6995,8.6995,8.6995,8.6995,8.6958,8.6848,8.6921,8.6958,8.6848,8.6921,8.6995,8.6995,8.6995,8.6995,8.6995,8.6995,8.6958,8.6848,8.6811,8.6481,8.5673,8.549,8.4308,8.1521,7.9929,7.7677,7.4721,7.3883,7.3105,7.2259,7.1616,7.1312,7.1312,7.1312,7.1312,7.1312,7.1312,7.183,5.989,6.1135,6.1986,6.1681,6.2784,6.3502,0.0,0.0,0.0,0.0,0.0,0.0,0.0,0.0,0.0,0.0,0.0,0.0,0.0,0.0,0.0,0.0,0.0,0.0,0.0,0.0,0.0,0.0,0.0,0.0,10.388,10.2375,10.1274,10.0907,10.1274,10.0686,9.8998,9.9071,9.8704,9.7897,9.7089,9.6465,9.6061,9.6061,9.5401,9.4336,0.0,9.4299,9.2574,9.3749,9.3235,9.184,9.2244,9.2134,9.1803,9.1803,9.1803,9.1803,9.1803,9.1803,9.1803,9.1803,9.1803,9.173,9.1363,9.1253,9.1179,9.0812,9.0078,8.9307,8.8867,8.85,8.7986,8.7215,8.6995,8.6995,8.6995,8.6995,8.6995,8.6995,8.6995,8.6995,8.6995,8.6995,8.6995,8.6995,8.6995,8.6995,8.6995,8.6995,8.6995,8.6995,8.6995,8.6848,8.6481,8.604,8.467,8.196,7.9489,7.7302,7.5502,7.4592,7.3747,7.3003,7.2665,7.2496,7.2496,7.2615,7.2615,7.2462,7.3241,7.4008,5.8914,5.9575,6.0599,6.2925,0.0,0.0,0.0,0.0,0.0,0.0,0.0,0.0,0.0,0.0,0.0,0.0,0.0,0.0,0.0,0.0,0.0,0.0,0.0,0.0,0.0,0.0,0.0,0.0,0.0,0.0,10.388,10.2375,10.12,10.0613,10.098,10.0283,9.8484,9.8704,9.8411,9.7603,9.6979,9.6282,9.5511,9.5511,9.496,9.4042,9.4226,9.3712,9.2831,9.3015,9.2574,9.1803,9.1803,9.1803,9.1803,9.1803,9.1803,9.1803,9.1803,9.1803,9.1803,9.1803,9.1803,9.1803,9.1803,9.1803,9.1803,9.1803,9.0922,8.9748,8.8757,8.8353,8.7986,8.7215,8.6995,8.6995,8.6995,8.6995,8.6995,8.6995,8.6995,8.6995,8.6995,8.7178,8.7215,8.7031,8.7178,8.7215,8.7031,8.6995,8.6995,8.6995,8.6995,8.6995,8.6995,8.6261,8.4922,8.2903,7.934,7.7059,7.647,7.5242,7.4322,7.3747,7.3578,7.3477,7.3477,7.3928,7.4031,7.3806,7.4865,7.5917,6.1667,6.2511,0.0,0.0,0.0,0.0,0.0,0.0,0.0,0.0,0.0,0.0,0.0,0.0,0.0,0.0,0.0,0.0,0.0,0.0,0.0,0.0,0.0,0.0,0.0,0.0,0.0,0.0,0.0,0.0,10.388,10.2375,10.1494,10.1384,10.0686,10.0283,10.0099,9.8704,9.7566,9.6795,9.6722,9.6282,9.5511,9.5511,9.4666,9.3235,9.3969,9.3382,9.195,9.2758,9.2574,9.1803,9.1803,9.1803,9.1803,9.1803,9.1803,9.1803,9.1803,9.1803,9.1803,9.1803,9.1803,9.1803,9.1803,9.1803,9.1803,9.1803,9.173,9.1253,8.9748,8.8757,8.7986,8.7215,8.6995,8.6995,8.6995,8.6995,8.6995,8.6995,8.6995,8.6995,8.6995,8.7619,8.7876,8.7105,8.7655,8.7839,8.7105,8.6995,8.6995,8.6995,8.6995,8.6995,8.6995,8.6261,8.5747,8.5532,8.0314,7.7301,7.7232,7.5515,7.4593,7.4525,7.3849,7.3477,7.3477,7.4531,7.4822,7.4492,7.4929,7.6034,5.9501,6.13,0.0,0.0,0.0,0.0,0.0,0.0,0.0,0.0,0.0,0.0,0.0,0.0,0.0,0.0,0.0,0.0,0.0,0.0,0.0,0.0,0.0,0.0,0.0,0.0,0.0,0.0,0.0,0.0,10.3182,10.1604,10.0503,9.9989,9.9695,9.9071,9.808,9.7933,9.7236,9.5951,9.5951,9.5547,9.474,9.4263,9.3382,9.2317,9.2611,9.2391,9.184,9.217,9.2097,9.1803,9.1803,9.1803,9.1803,9.1803,9.1803,9.1803,9.1803,9.1803,9.1803,9.1803,9.1803,9.1803,9.1803,9.1803,9.1803,9.1803,9.1436,9.0812,8.9711,8.9197,8.8647,8.7325,8.6995,8.6995,8.6995,8.6995,8.6995,8.6995,8.7399,8.7582,8.7105,8.7655,8.7949,8.7142,8.7692,8.7912,8.7105,8.7435,8.7545,8.7068,8.6995,8.6995,8.6995,8.6261,8.5783,8.5783,8.2713,8.0883,8.0883,7.9536,7.8275,7.709,7.7262,7.6792,7.5608,7.6644,7.7347,7.7743,7.8788,7.9864,5.7675,5.9348,0.0,0.0,0.0,0.0,0.0,0.0,0.0,0.0,0.0,0.0,0.0,0.0,0.0,0.0,0.0,0.0,0.0,0.0,0.0,0.0,0.0,0.0,0.0,0.0,0.0,0.0,0.0,0.0,0.0,10.1017,9.9916,9.9145,9.8851,9.819,9.7089,9.7126,9.6575,9.5511,9.4997,9.4446,9.3896,9.3345,9.2611,9.1803,9.1803,9.1803,9.1803,9.1803,9.1803,9.1803,9.1803,9.1803,9.1803,9.1803,9.1803,9.1803,9.1803,9.1803,9.1803,9.1803,9.1803,9.1803,9.1803,9.1803,9.1803,9.1803,9.1216,9.0408,8.9638,8.9234,8.8683,8.7325,8.7215,8.7399,8.7399,8.7582,8.7766,8.7766,8.8206,8.839,8.7876,8.8206,8.8316,8.7509,8.8059,8.828,8.7472,8.7876,8.7876,8.7105,8.6995,8.6995,8.6995,8.6518,8.6187,8.6187,8.497,8.3882,8.3043,8.1969,8.0823,7.953,7.9967,7.956,7.8293,7.895,7.974,8.0561,8.1266,8.2234,5.6919,5.7143,0.0,0.0,0.0,0.0,0.0,0.0,0.0,0.0,0.0,0.0,0.0,0.0,0.0,0.0,0.0,0.0,0.0,0.0,0.0,0.0,0.0,0.0,0.0,0.0,0.0,0.0,0.0,0.0,0.0,10.0686,9.9916,9.9108,9.83,9.786,9.786,9.6282,9.5511,9.5474,9.3859,9.3088,9.3088,9.3088,9.2611,9.1803,9.1803,9.1803,9.1803,9.1803,9.1803,9.1803,9.1803,9.1803,9.1803,9.1803,9.1803,9.1803,9.1803,9.1803,9.1803,9.1803,9.1803,9.1803,9.1803,9.1803,9.1803,9.1803,9.1216,9.0408,8.9638,8.8793,8.7986,8.7215,8.7619,8.8206,8.8206,8.8867,8.9417,8.9417,8.9417,8.9417,8.9417,8.9417,8.916,8.8316,8.8904,8.9124,8.8316,8.8206,8.7912,8.7105,8.7031,8.7031,8.7031,8.7031,8.7031,8.6995,8.6995,8.5769,8.319,8.2049,8.1484,8.1402,8.1402,8.1402,8.1402,8.132,8.1709,8.2501,8.1674,8.2317,5.7921,0.0,0.0,0.0,0.0,0.0,0.0,0.0,0.0,0.0,0.0,0.0,0.0,0.0,0.0,0.0,0.0,0.0,0.0,0.0,0.0,0.0,0.0,0.0,0.0,0.0,0.0,0.0,0.0,0.0,0.0,9.9035,9.8227,9.7456,9.7163,9.6502,9.5364,9.5474,9.496,9.3822,9.3345,9.3088,9.3088,9.2464,9.2024,9.1803,9.1803,9.1803,9.1803,9.1803,9.1803,9.1803,9.1803,9.1803,9.1803,9.1803,9.1803,9.1803,9.1803,9.1803,9.1803,9.1803,9.1803,9.1803,9.1803,9.1803,9.1693,9.1106,9.0408,8.9711,8.9491,8.8793,8.8133,8.7912,8.8463,8.905,8.905,8.9234,8.9417,8.9417,8.9858,9.0078,8.9528,8.9895,8.9968,8.9197,8.9748,9.0188,8.9931,8.8904,8.8316,8.8683,8.8206,8.7839,8.7839,8.7839,8.7619,8.7031,8.6995,8.6636,8.5806,8.5518,8.4678,8.3379,8.3882,8.3081,8.0961,8.1484,8.1833,8.2042,8.2678,8.3636,5.8399,0.0,0.0,0.0,0.0,0.0,0.0,0.0,0.0,0.0,0.0,0.0,0.0,0.0,0.0,0.0,0.0,0.0,0.0,0.0,0.0,0.0,0.0,0.0,0.0,0.0,0.0,0.0,0.0,0.0,9.819,9.7676,9.6906,9.5768,9.5731,9.529,9.4299,9.4446,9.4079,9.3088,9.2758,9.2574,9.2574,9.2024,9.1803,9.1803,9.1803,9.1803,9.1803,9.1803,9.1803,9.1803,9.1803,9.1803,9.1803,9.1803,9.1803,9.1803,9.1803,9.1803,9.1803,9.1803,9.1803,9.1803,9.1803,9.1803,9.162,9.0849,9.0262,8.9821,8.9491,8.9307,8.9087,8.8757,8.9307,8.9895,8.9895,9.0152,9.0372,9.0372,9.0739,9.0922,9.0445,9.0482,9.0445,8.9968,9.0041,9.0115,9.0115,8.9271,8.8867,8.9381,8.8977,8.8683,8.8683,8.8683,8.8463,8.7986,8.7949,8.7949,8.7949,8.7362,8.6459,8.5373,8.5736,8.4907,8.2572,8.2909,8.312,8.3277,8.4137,8.5059,0.0,0.0,0.0,0.0,0.0,0.0,0.0,0.0,0.0,0.0,0.0,0.0,0.0,0.0,0.0,0.0,0.0,0.0,0.0,0.0,0.0,0.0,0.0,0.0,0.0,0.0,0.0,0.0,0.0,9.8227,9.6685,9.6575,9.5841,9.4226,9.4263,9.4226,9.4079,9.3418,9.3051,9.2978,9.217,9.1803,9.1803,9.1803,9.1803,9.1803,9.1803,9.1803,9.1803,9.1803,9.1803,9.1803,9.1803,9.1803,9.1803,9.1803,9.1803,9.1803,9.1803,9.1803,9.1803,9.1803,9.1803,9.1803,9.1803,9.1803,9.162,9.0849,9.0555,9.0335,8.9711,9.0005,9.0335,8.9784,9.0188,9.0702,9.0702,9.1289,9.1803,9.1803,9.1803,9.1803,9.1803,9.1179,9.0702,9.0702,9.0115,8.9638,8.9638,8.9564,8.9564,8.9638,8.9564,8.9528,8.9528,8.9528,8.9491,8.9417,8.9417,8.9417,8.9417,8.8023,8.7178,8.7105,8.7178,8.6574,8.5231,8.4979,8.4895,8.5182,8.5607,8.6199,0.0,0.0,0.0,0.0,0.0,0.0,0.0,0.0,0.0,0.0,0.0,0.0,0.0,0.0,0.0,0.0,0.0,0.0,0.0,0.0,0.0,0.0,0.0,0.0,0.0,0.0,0.0,9.8154,9.7566,9.6795,9.5804,9.5768,9.5034,9.3418,9.3969,9.3675,9.2354,9.2831,9.2758,9.206,9.1877,9.1803,9.1803,9.1803,9.1803,9.1803,9.1803,9.1803,9.1803,9.1803,9.1803,9.1803,9.1803,9.1803,9.1803,9.1803,9.1803,9.1803,9.1803,9.1803,9.1803,9.1803,9.1803,9.1803,9.1803,9.1803,9.162,9.0849,9.0152,8.9784,9.0225,9.0005,8.9931,9.1033,9.1436,9.1546,9.1546,9.1693,9.1803,9.1803,9.1803,9.1803,9.1803,9.1657,9.1546,9.1546,9.14,9.1289,9.1289,9.0739,9.0592,9.1216,9.0739,9.0335,9.0335,9.0335,9.0078,8.9454,8.9417,8.9417,8.9417,8.9087,8.861,8.7949,8.8573,8.7554,8.4847,8.5371,8.5217,8.4446,8.4793,8.5502,0.0,0.0,0.0,0.0,0.0,0.0,0.0,0.0,0.0,0.0,0.0,0.0,0.0,0.0,0.0,0.0,0.0,0.0,0.0,0.0,0.0,0.0,0.0,0.0,0.0,0.0,9.7566,9.6795,9.6355,9.5621,9.441,9.4373,9.3786,9.2537,9.2868,9.2684,9.1803,9.2244,9.2244,9.1803,9.1803,9.1803,9.1803,9.1803,9.1803,9.1803,9.1803,9.1803,9.1803,9.1803,9.1803,9.1803,9.1803,9.1803,9.1803,9.1803,9.1546,9.1216,9.1216,9.1216,9.1216,9.1216,9.1216,9.1289,9.1693,9.1546,9.1143,9.0739,9.0592,9.0555,9.0592,9.0592,9.0776,9.1583,9.1803,9.1803,9.1803,9.1803,9.1803,9.1803,9.1803,9.1803,9.1803,9.1803,9.1657,9.1289,9.1216,9.1216,9.1216,9.0849,9.0922,9.1693,9.1436,9.1179,9.1179,9.1179,9.0996,9.0592,9.0555,9.0555,9.0555,9.0555,9.0005,8.8793,8.9197,8.8059,8.532,8.6617,8.6538,8.5028,8.6147,8.7052,0.0,0.0,0.0,0.0,0.0,0.0,0.0,0.0,0.0,0.0,0.0,0.0,0.0,0.0,0.0,0.0,0.0,0.0,0.0,0.0,0.0,0.0,0.0,0.0,9.6795,9.7052,9.6795,9.5584,9.5364,9.4666,9.3198,9.3088,9.2721,9.184,9.1803,9.1803,9.1803,9.1803,9.1803,9.1803,9.1803,9.1803,9.1803,9.1803,9.1803,9.1803,9.1803,9.1803,9.1803,9.1803,9.173,9.1583,9.1583,9.1583,9.1583,9.1436,9.1069,9.0592,9.0445,9.0408,9.0445,9.0555,9.0519,9.0592,9.151,9.1253,9.0629,9.0776,9.1106,9.1253,9.0739,9.0996,9.1436,9.1546,9.1693,9.1803,9.1803,9.1803,9.1803,9.1803,9.1803,9.1803,9.1803,9.1803,9.1583,9.0922,9.0812,9.0812,9.0812,9.0812,9.1069,9.173,9.1803,9.1803,9.1803,9.1803,9.1803,9.1803,9.1803,9.1803,9.1803,9.1803,9.1179,8.9858,8.9821,8.8604,8.6099,8.8028,8.8099,8.6347,8.7992,8.904,0.0,0.0,0.0,0.0,0.0,0.0,0.0,0.0,0.0,0.0,0.0,0.0,0.0,0.0,0.0,0.0,0.0,0.0,0.0,0.0,0.0,0.0,9.529,9.5401,9.6575,9.5547,9.496,9.5474,9.485,9.4042,9.3161,9.3088,9.2721,9.184,9.1803,9.1803,9.1803,9.1803,9.1803,9.1803,9.1803,9.1803,9.1803,9.1803,9.1803,9.1803,9.1803,9.1803,9.1803,9.1803,9.14,9.0776,9.0776,9.0776,9.0702,9.0005,9.0115,9.0519,8.9821,8.9564,8.9711,9.0372,9.0152,8.9858,9.1326,9.1253,9.0739,9.1436,9.0702,8.9858,9.0445,9.0188,8.9931,9.0592,9.1289,9.1803,9.1803,9.1803,9.1803,9.1803,9.1803,9.1803,9.1803,9.1803,9.1767,9.1657,9.1657,9.1657,9.1657,9.1657,9.1693,9.1803,9.1803,9.1803,9.1803,9.1803,9.1803,9.1803,9.1803,9.1803,9.1803,9.1803,9.1693,9.1473,9.1473,8.9984,8.6913,8.8852,8.9175,8.7905,8.8494,8.904,0.0,0.0,0.0,0.0,0.0,0.0,0.0,0.0,0.0,0.0,0.0,0.0,0.0,0.0,0.0,0.0,0.0,0.0,0.0,0.0,0.0,9.4777,9.452,9.4556,9.529,9.4703,9.4263,9.4153,9.3822,9.3272,9.2427,9.2354,9.2207,9.1803,9.1363,9.1143,9.1143,9.0702,9.0482,9.0482,9.0922,9.0886,9.0482,9.0482,9.0702,9.1143,9.1143,9.0886,9.0482,9.0482,9.0262,8.9931,8.9931,8.9931,8.9895,8.9564,8.9344,8.9271,8.9381,8.9124,8.894,9.0188,9.0078,8.9711,9.1326,9.1253,9.0776,9.1583,9.0959,9.0152,9.0519,9.0335,9.0188,9.0519,9.1216,9.1803,9.1803,9.1803,9.1803,9.1803,9.1803,9.1803,9.1803,9.1803,9.1803,9.1803,9.1803,9.1803,9.1803,9.1803,9.1803,9.1803,9.1803,9.1803,9.1803,9.1803,9.1803,9.1803,9.1803,9.1803,9.1803,9.1803,9.1803,9.1803,9.1803,9.0456,8.7728,8.9473,8.9356,8.7551,8.8173,8.8801,0.0,0.0,0.0,0.0,0.0,0.0,0.0,0.0,0.0,0.0,0.0,0.0,0.0,0.0,0.0,0.0,0.0,0.0,0.0,9.3786,9.3749,9.3969,9.3786,9.3822,9.4263,9.3896,9.3492,9.3125,9.2905,9.2501,9.184,9.1803,9.1803,9.1803,9.1033,9.0592,9.0592,8.9821,8.9417,8.9417,9.0005,9.0005,8.9417,8.9417,8.9528,8.9711,9.0115,8.9968,8.9417,8.9417,8.9307,8.9124,8.9124,8.9124,8.9087,8.8904,8.8536,8.828,8.8904,8.872,8.8463,9.0078,9.0078,8.9711,9.1326,9.1253,9.0739,9.1326,9.0922,9.0262,9.0041,9.0152,9.0298,9.0298,9.1069,9.1803,9.1803,9.1803,9.1803,9.1803,9.1803,9.1803,9.1803,9.1803,9.1803,9.1803,9.1803,9.1803,9.1803,9.1803,9.1803,9.1803,9.1803,9.1803,9.1803,9.1803,9.1803,9.1803,9.1803,9.1803,9.1803,9.1803,9.1803,9.1803,9.1803,9.0716,8.8667,9.0134,8.9843,8.7777,8.8683,8.9234,0.0,0.0,0.0,0.0,0.0,0.0,0.0,0.0,0.0,0.0,0.0,0.0,0.0,0.0,0.0,0.0,9.3675,9.3161,9.3161,9.2464,9.2244,9.3051,9.2427,9.2537,9.4153,9.2868,9.2244,9.3051,9.2317,9.184,9.1803,9.1803,9.1803,9.1803,9.1033,9.0592,9.0592,8.9821,8.9417,8.9417,8.9454,8.9454,8.9417,8.9417,8.861,8.7288,8.883,8.9454,8.9417,8.9417,8.8977,8.828,8.828,8.828,8.8169,8.7435,8.7582,8.8206,8.8243,8.8243,8.8463,9.0078,9.0078,8.9711,9.1326,9.1253,9.0629,9.0665,9.0078,8.9307,8.8536,8.8904,8.9491,8.9491,9.0665,9.1803,9.1803,9.1803,9.1803,9.1803,9.1803,9.1803,9.1803,9.1803,9.1803,9.1803,9.1803,9.1803,9.1803,9.1803,9.1803,9.1803,9.1803,9.1803,9.1803,9.1803,9.1803,9.1803,9.1803,9.1803,9.1803,9.1803,9.1803,9.1803,9.1803,9.1173,8.9924,9.1136,9.11,8.9852,9.1027,9.0812,0.0,0.0,0.0,0.0,0.0,0.0,0.0,0.0,0.0,0.0,0.0,0.0,9.2684,9.3161,9.3529,9.3529,9.2831,9.2281,9.2281,9.1987,9.1913,9.2244,9.1987,9.2024,9.2648,9.2134,9.1913,9.2244,9.1987,9.1583,9.1069,9.1033,9.0812,9.0298,8.9491,8.883,8.8316,8.8536,8.839,8.7876,8.839,8.8353,8.7876,8.7876,8.7545,8.7031,8.7619,8.7582,8.7142,8.7655,8.7692,8.7435,8.7435,8.7435,8.7399,8.7105,8.7178,8.7509,8.8023,8.8206,8.839,8.9491,9.0005,9.0298,9.0849,9.1179,9.1363,9.1363,9.0812,9.0115,8.9821,8.9968,9.0298,9.0812,9.1363,9.1803,9.1803,9.1803,9.1803,9.1803,9.1803,9.1803,9.1803,9.1803,9.1803,9.1803,9.1803,9.1803,9.1803,9.1803,9.1803,9.1803,9.1803,9.1803,9.1803,9.1803,9.1803,9.1803,9.1803,9.1803,9.1803,9.1803,9.1803,9.1803,9.1803,9.1173,9.0006,9.0662,9.0406,8.9248,8.997,8.9968,0.0,0.0,0.0,0.0,0.0,0.0,0.0,0.0,0.0,0.0,9.0298,9.1473,9.173,9.2281,9.2648,9.2648,9.217,9.1803,9.1803,9.1803,9.1803,9.1803,9.1803,9.1803,9.1803,9.1803,9.1693,9.1436,9.14,0.0,9.0262,9.0225,8.9858,8.905,8.85,8.7692,8.6628,8.7399,8.7252,8.6224,8.6995,8.6958,8.6187,8.6187,8.6077,8.582,8.6077,8.6187,8.6224,8.6775,8.6995,8.6995,8.6995,8.6995,8.6995,8.6995,8.6995,8.7142,8.7912,8.8206,8.8316,8.916,8.9968,9.0592,9.0592,9.1179,9.173,9.1473,9.1033,9.0555,9.0298,9.0408,9.0812,9.162,9.1803,9.1803,9.1803,9.1803,9.1803,9.1803,9.1803,9.1803,9.1803,9.1803,9.1803,9.1803,9.1803,9.1803,9.1803,9.1803,9.1803,9.1803,9.1803,9.1803,9.1803,9.1803,9.1803,9.1803,9.1803,9.1803,9.1803,9.1803,9.1803,9.1803,9.1803,9.1435,9.0637,9.0886,9.0556,8.9838,9.0118,9.0225,0.0,0.0,0.0,0.0,0.0,0.0,8.303,0.0,8.4022,8.7288,8.9271,9.0665,9.1583,9.1767,9.1803,9.1803,9.1803,9.1803,9.1803,9.1803,9.1803,9.1803,9.1803,9.1803,9.1767,9.1803,9.1473,9.0629,9.0592,9.0262,8.9417,8.9344,8.8977,8.8206,8.8133,8.7362,8.582,8.6554,8.6151,8.4609,8.538,8.5343,8.4609,8.4609,8.4168,8.3508,8.4278,8.549,8.6921,8.6958,8.6958,8.6995,8.6995,8.6995,8.6995,8.6995,8.6995,8.7105,8.7876,8.8169,8.8316,8.9124,8.9931,9.0592,9.0592,9.1143,9.162,9.0849,9.0629,9.0482,8.9674,9.0078,9.0849,9.162,9.1803,9.1803,9.1803,9.1803,9.1803,9.1803,9.1803,9.1803,9.1803,9.1803,9.1803,9.1803,9.1803,9.1803,9.1803,9.1803,9.1803,9.1803,9.1803,9.1803,9.1803,9.1803,9.1803,9.1803,9.1803,9.1803,9.1803,9.1803,9.1803,9.1803,9.1803,9.1803,9.1803,9.1803,9.1803,9.1803,9.1803,9.1803,5.5757,0.0,0.0,0.0,0.0,0.0,7.022,7.334,7.679,8.1195,8.3875,8.6554,9.0262,9.14,9.1803,9.1803,9.1803,9.1803,9.1803,9.1803,9.1803,9.1803,9.1803,9.1583,9.0996,9.1473,9.1216,0.0,9.0298,9.0005,8.861,8.7986,8.7582,8.7362,8.6775,8.6261,8.5783,8.5453,8.5049,8.4609,8.4829,8.4829,8.4609,8.4609,8.4499,8.4278,8.4499,8.4866,8.5306,8.5894,8.6114,8.6187,8.6775,8.6995,8.6995,8.6995,8.6995,8.7031,8.7252,8.7729,8.8243,8.8463,8.9087,8.9858,9.0445,9.0776,9.1033,9.1363,9.1473,9.1436,9.1179,9.1289,9.151,9.173,9.1803,9.1803,9.1803,9.1803,9.1803,9.1803,9.1803,9.1803,9.1803,9.1803,9.1803,9.1803,9.1803,9.1803,9.1803,9.1803,9.1803,9.1803,9.1803,9.1803,9.1803,9.1803,9.1803,9.1803,9.1803,9.1803,9.1803,9.1803,9.1803,9.1803,9.1803,9.1803,9.1803,9.1803,9.1803,9.1803,9.1803,9.1803,0.0,0.0,0.0,0.0,0.0,0.0,6.6329,6.8715,7.1578,0.0,8.0204,8.3067,8.6885,8.8793,8.9895,9.0225,9.0849,9.1436,9.173,9.1803,9.1803,9.1803,9.151,9.1106,9.0665,9.0739,9.0262,8.9014,8.9344,8.905,8.7766,8.7252,8.6848,8.6518,8.604,8.549,8.4792,8.4682,8.4278,8.3618,8.3948,8.3911,8.3581,8.3581,8.3434,8.3104,8.3434,8.3398,8.3177,8.4315,8.5196,8.5857,8.6334,8.6701,8.6995,8.6995,8.6995,8.6995,8.6995,8.7325,8.7692,8.7692,8.8243,8.905,8.9858,9.0335,9.0776,9.1583,9.1803,9.1803,9.1803,9.1803,9.1803,9.1803,9.1803,9.1803,9.1803,9.1803,9.1803,9.1803,9.1803,9.1803,9.1803,9.1803,9.1803,9.1803,9.1803,9.1803,9.1803,9.1803,9.1803,9.1803,9.1803,9.1803,9.1803,9.1803,9.1803,9.1803,9.1803,9.1803,9.1803,9.1803,9.1803,9.1803,9.1803,9.1803,9.1803,9.1803,9.1803,9.1803,9.1803,9.1803,0.0,0.0,0.0,0.0,0.0,0.0,6.6769,6.7026,6.743,7.3523,7.6717,7.9286,8.2076,8.4646,8.6518,8.7031,8.8867,9.0555,9.1546,9.173,9.173,9.1546,9.0996,9.0519,9.0372,8.9784,8.905,8.8133,8.8059,8.7766,8.7031,8.6921,8.6554,8.582,8.5637,8.4866,8.3434,8.4022,8.3618,8.2186,8.292,8.2884,8.2186,8.2186,8.1819,8.1158,8.1893,8.1782,8.1232,8.27,8.4168,8.5527,8.571,8.6224,8.6885,8.6995,8.6995,8.6995,8.6995,8.6995,8.7031,8.7105,8.7582,8.8243,8.9271,8.9968,9.0665,9.1546,9.1803,9.1803,9.1803,9.1803,9.1803,9.1803,9.1803,9.1803,9.1803,9.1803,9.1803,9.1803,9.1803,9.1803,9.1803,9.1803,9.1803,9.1803,9.1803,9.1803,9.1803,9.1803,9.1803,9.1803,9.1803,9.1803,9.1803,9.1803,9.1803,9.1803,9.1803,9.1803,9.1803,9.1803,9.1803,9.1803,9.1803,9.1803,9.1803,9.1803,9.1803,9.1803,9.1803,9.1803,0.0,0.0,0.0,0.0,0.0,0.0,5.8767,5.9575,6.1741,6.5632,6.8348,7.1578,7.6607,8.0057,8.1819,8.0645,8.4535,8.8463,9.0555,9.14,9.1326,9.0041,9.0298,9.0078,8.8793,8.9124,8.883,8.7362,8.7252,8.7178,8.7031,8.6371,8.5967,8.5783,8.4535,8.3728,8.3398,8.292,8.2517,8.2186,8.237,8.2333,8.2186,8.2186,8.2113,8.1966,8.2113,8.2113,8.2003,8.2296,8.2994,8.4022,8.527,8.5894,8.6114,8.6775,8.6995,8.6995,8.6995,8.6995,8.7105,8.7766,8.7619,8.7655,8.9748,9.0041,8.9968,9.14,9.1803,9.1803,9.1803,9.1803,9.1803,9.1803,9.1803,9.1803,9.1803,9.1803,9.1803,9.1803,9.1803,9.1803,9.1803,9.1803,9.1803,9.1803,9.1803,9.1803,9.1803,9.1803,9.1803,9.1803,9.1803,9.1803,9.1803,9.1803,9.1803,9.1803,9.1803,9.1803,9.1803,9.1803,9.1803,9.1803,9.1803,9.1803,9.1803,9.1803,9.1803,9.1803,9.1803,9.1803,0.0,0.0,0.0,5.8694,0.0,0.0,0.0,5.829,5.9061,6.2695,6.409,6.5999,7.0477,7.3303,7.5506,7.7084,8.0424,8.3654,8.6077,8.883,9.0152,8.894,8.916,8.894,8.7729,8.7986,8.7876,8.7068,8.6628,8.6407,8.6407,8.5637,8.4829,8.4022,8.3618,8.2847,8.1636,8.2003,8.1782,8.1012,8.1415,8.1379,8.0975,8.0975,8.0975,8.1012,8.1415,8.1599,8.1636,8.2039,8.2443,8.2957,8.4572,8.5453,8.5894,8.6701,8.6995,8.6995,8.6995,8.6995,8.7068,8.7472,8.7325,8.7399,8.9417,9.0298,9.0776,9.1583,9.1803,9.1803,9.1803,9.1803,9.1803,9.1803,9.1803,9.1803,9.1803,9.1803,9.1803,9.1803,9.1803,9.1803,9.1803,9.1803,9.1803,9.1803,9.1803,9.1803,9.1803,9.1803,9.1803,9.1803,9.1803,9.1803,9.1803,9.1803,9.1803,9.1803,9.1803,9.1803,9.1803,9.1803,9.1803,9.1803,9.1803,9.1803,9.1803,9.1803,9.1803,9.1803,9.1803,9.1803,0.0,0.0,0.0,0.0,0.0,5.9208,0.0,0.0,0.0,6.108,6.1263,6.1814,0.0,0.0,0.0,7.2899,0.0,0.0,0.0,8.3728,0.0,8.6775,8.7105,8.7068,8.6591,8.6114,8.6114,8.6738,8.5453,8.4903,8.5527,8.4646,8.3544,8.2223,8.2517,8.1782,7.98,8.1085,8.1085,7.98,8.0461,8.0424,7.98,7.98,7.98,7.9837,8.0498,8.0865,8.1048,8.1709,8.2039,8.237,8.3985,8.5013,8.5673,8.6664,8.6995,8.6995,8.6995,8.6995,8.6995,8.6995,8.7105,8.7509,8.8977,9.0445,9.1583,9.1767,9.1803,9.1803,9.1803,9.1803,9.1803,9.1803,9.1803,9.1803,9.1803,9.1803,9.1803,9.1803,9.1803,9.1803,9.1803,9.1803,9.1803,9.1803,9.1803,9.1803,9.1803,9.1803,9.1803,9.1803,9.1803,9.1803,9.1803,9.1803,9.1803,9.1803,9.1803,9.1803,9.1803,9.1803,9.1803,9.1803,9.1803,9.1803,9.1803,9.1803,9.1803,9.1803,9.1803,9.1803,0.0,0.0,0.0,0.0,6.398,0.0,0.0,0.0,5.9501,5.785,0.0,0.0,0.0,0.0,0.0,0.0,0.0,0.0,7.2496,7.4258,7.7047,8.1305,8.3104,8.4205,8.4829,8.2957,8.2847,8.571,8.2553,8.1709,8.4572,8.3287,8.237,8.2186,8.0901,8.0057,7.98,7.9984,7.9984,7.98,7.9874,7.9874,7.98,7.98,7.98,7.98,7.9874,8.0351,8.1012,8.1122,8.1562,8.237,8.3985,8.4646,8.4903,8.6444,8.6995,8.6995,8.6995,8.6995,8.6995,8.6995,8.7472,8.8243,8.916,9.0041,9.0886,9.1583,9.1803,9.1803,9.1803,9.1803,9.1803,9.1803,9.1803,9.1803,9.1803,9.1803,9.1803,9.1803,9.1803,9.1803,9.1803,9.1803,9.1803,9.1803,9.1803,9.1803,9.1803,9.1803,9.1803,9.1803,9.1803,9.1803,9.1803,9.1803,9.1803,9.1803,9.1803,9.1803,9.1803,9.1803,9.1803,9.1803,9.1803,9.1803,9.1803,9.1803,9.1803,9.1803,9.1803,9.1803,0.0,0.0,0.0,0.0,0.0,0.0,0.0,0.0,5.818,0.0,0.0,0.0,0.0,0.0,0.0,0.0,6.4824,6.688,0.0,0.0,7.2165,7.7524,0.0,0.0,8.0167,7.991,8.0534,8.2847,8.0131,7.936,8.1672,8.1158,8.0571,8.0131,7.991,7.9323,7.8369,7.9286,7.9286,7.8369,7.8846,7.8846,7.8369,7.8369,7.8883,7.98,7.98,8.0498,8.1709,8.1709,8.1893,8.2296,8.3471,8.4205,8.4756,8.5894,8.6591,8.6995,8.6995,8.6995,8.6995,8.6995,8.7545,8.828,8.861,8.9601,9.0665,9.1033,9.1436,9.1803,9.1803,9.1803,9.1803,9.1803,9.1803,9.1803,9.1803,9.1803,9.1803,9.1803,9.1803,9.1803,9.1803,9.1803,9.1803,9.1803,9.1803,9.1803,9.1803,9.1803,9.1803,9.1803,9.1803,9.1803,9.1803,9.1803,9.1803,9.1803,9.1803,9.1803,9.1803,9.1803,9.1803,9.1803,9.1803,9.1803,9.1803,9.1803,9.1803,9.1803,9.1803,9.1803,6.917,0.0,0.0,0.0,0.0,0.0,0.0,0.0,0.0,0.0,0.0,0.0,0.0,0.0,0.0,0.0,0.0,6.3172,0.0,6.5411,6.7393,7.2826,0.0,0.0,0.0,7.6754,7.7561,7.9837,7.69,7.6203,7.8956,7.8883,7.8736,7.8589,7.8919,7.8516,7.7341,7.8516,7.8516,7.7341,7.7965,7.7928,7.7304,7.7304,7.8112,7.947,7.947,8.0388,8.1856,8.1856,8.2003,8.226,8.2847,8.3581,8.4389,8.5159,8.5967,8.6664,8.6664,8.6811,8.6995,8.6995,8.7399,8.7912,8.8133,8.916,9.0335,9.0555,9.1179,9.1803,9.1803,9.1803,9.1803,9.1803,9.1803,9.1803,9.1803,9.1803,9.1803,9.1803,9.1803,9.1803,9.1803,9.1803,9.1803,9.1803,9.1803,9.1803,9.1803,9.1803,9.1803,9.1803,9.1803,9.1803,9.1803,9.1803,9.1803,9.1803,9.1803,9.1803,9.1803,9.1803,9.1803,9.1803,9.1803,9.1803,9.1803,9.1803,9.1803,9.1803,9.1803,9.1803,0.0,0.0,0.0,6.7053,0.0,0.0,0.0,0.0,6.2181,0.0,0.0,0.0,0.0,0.0,0.0,0.0,0.0,0.0,0.0,6.0933,6.13,6.6219,7.0844,0.0,0.0,7.3377,7.3193,7.7157,7.2312,7.1578,7.7121,7.6644,7.6937,7.8552,7.7818,7.7378,7.7304,7.7378,7.7378,7.7304,7.7341,7.7341,7.7304,7.7304,7.7818,7.8626,7.8626,7.9543,8.1048,8.1048,8.1489,8.2186,8.2223,8.2737,8.3544,8.4352,8.5159,8.582,8.582,8.6334,8.6995,8.6995,8.7031,8.7178,8.7949,8.8793,8.9601,9.0408,9.1179,9.1803,9.1803,9.1803,9.1803,9.1803,9.1803,9.1803,9.1803,9.1803,9.1803,9.1803,9.1803,9.1803,9.1803,9.1803,9.1803,9.1803,9.1803,9.1803,9.1803,9.1803,9.1803,9.1803,9.1803,9.1803,9.1803,9.1803,9.1803,9.1803,9.1803,9.1803,9.1803,9.1803,9.1803,9.1803,9.1803,9.1803,9.1803,9.1803,9.1803,9.1803,9.1803,9.1803,0.0,0.0,7.8328,7.2311,0.0,0.0,0.0,0.0,0.0,0.0,0.0,0.0,0.0,0.0,0.0,0.0,0.0,0.0,0.0,5.8914,5.9428,6.2144,6.6769,0.0,0.0,6.8274,6.9706,7.1615,6.9009,6.9082,7.312,7.4588,7.5579,7.613,7.69,7.7304,7.7304,7.7304,7.7598,7.8148,7.7598,7.7598,7.8148,7.8148,7.8626,7.9396,7.9947,8.0498,8.1048,8.1562,8.1636,8.1452,8.2003,8.237,8.27,8.3508,8.4646,8.5857,8.6407,8.6775,8.6995,8.6995,8.7362,8.7839,8.8133,8.9124,9.0262,9.0519,9.1179,9.1803,9.1803,9.1803,9.1803,9.1803,9.1803,9.1803,9.1803,9.1803,9.1803,9.1803,9.1803,9.1803,9.1803,9.1803,9.1803,9.1803,9.1803,9.1803,9.1803,9.1803,9.1803,9.1803,9.1803,9.1803,9.1803,9.1803,9.1803,9.1803,9.1803,9.1803,9.1803,9.1803,9.1803,9.1803,9.1803,9.1803,9.1803,9.1803,9.1803,9.1803,9.1803,9.1803,8.1118,8.1562,0.0,7.6103,7.4199,0.0,6.582,0.0,0.0,0.0,0.0,0.0,0.0,0.0,0.0,0.0,0.0,0.0,0.0,5.7997,0.0,5.9428,6.3099,6.4934,6.3429,6.5064,6.6529,6.734,6.5902,6.6529,7.0106,7.2132,7.3744,7.4882,7.6497,7.7304,7.7304,7.7304,7.7598,7.8148,7.7598,7.7598,7.8148,7.8148,7.8589,7.9396,7.991,8.0314,8.0608,8.1122,8.1195,8.1048,8.1562,8.1929,8.2296,8.3104,8.4425,8.593,8.6738,8.6995,8.7068,8.7325,8.7582,8.7876,8.8463,8.9344,9.0225,9.0519,9.1179,9.1803,9.1803,9.1803,9.1803,9.1803,9.1803,9.1803,9.1803,9.1803,9.1803,9.1803,9.1803,9.1803,9.1803,9.1803,9.1803,9.1803,9.1803,9.1803,9.1803,9.1803,9.1803,9.1803,9.1803,9.1803,9.1803,9.1803,9.1803,9.1803,9.1803,9.1803,9.1803,9.1803,9.206,9.2684,9.2097,9.2097,9.2684,9.2097,9.1803,9.1803,9.1803,9.1803]},{"header":{"parameterUnit":"m.s-1","parameterCategory":1,"la1":30.6,"la2":29.2853,"lo1":-89.7004,"lo2":-87.6739,"dy":0.0162,"dx":0.0183,"nx":112,"ny":82,"refTime":"2023-11-21T18:00:00:Z","depth":0,"parameterNumber":3,"parameterNumberName":"V-component_of_WINDS"},"data":[0.0,0.0,0.0,0.0,0.0,0.0,0.0,0.0,0.0,0.0,0.0,0.0,0.0,0.0,0.0,0.0,0.0,0.0,0.0,0.0,0.0,0.0,0.0,0.0,0.0,0.0,0.0,0.0,0.0,0.0,0.0,0.0,0.0,0.0,0.0,0.0,0.0,0.0,0.0,0.0,0.0,0.0,0.0,0.0,0.0,0.0,0.0,0.0,0.0,0.0,0.0,0.0,0.0,0.0,0.0,0.0,0.0,0.0,0.0,0.0,0.0,0.0,0.0,0.0,0.0,0.0,0.0,0.0,0.0,0.0,0.0,0.0,0.0,0.0,0.0,0.0,0.0,0.0,0.0,0.0,0.0,0.0,0.0,0.0,0.0,0.0,0.0,0.0,0.0,0.0,-3.2106,-3.376,-3.9434,-4.3281,-4.3769,-4.3926,-4.1562,-3.584,0.0,0.0,0.0,0.0,0.0,0.0,0.0,0.0,0.0,0.0,0.0,0.0,0.0,0.0,0.0,0.0,0.0,0.0,0.0,0.0,0.0,0.0,0.0,0.0,0.0,0.0,0.0,0.0,0.0,0.0,0.0,0.0,0.0,0.0,0.0,0.0,0.0,0.0,0.0,0.0,0.0,0.0,0.0,0.0,0.0,0.0,0.0,0.0,0.0,0.0,0.0,0.0,0.0,0.0,0.0,0.0,0.0,0.0,0.0,0.0,0.0,0.0,0.0,0.0,0.0,0.0,0.0,0.0,0.0,0.0,0.0,0.0,0.0,0.0,0.0,0.0,0.0,0.0,0.0,0.0,0.0,0.0,0.0,0.0,0.0,0.0,0.0,0.0,0.0,0.0,0.0,0.0,0.0,0.0,0.0,0.0,0.0,0.0,0.0,0.0,0.0,0.0,0.0,0.0,-3.3819,-3.8818,-4.1582,-4.3398,-4.4219,-4.3008,-4.041,-3.6191,0.0,0.0,0.0,0.0,0.0,0.0,0.0,0.0,0.0,0.0,0.0,0.0,0.0,0.0,0.0,0.0,0.0,0.0,0.0,0.0,0.0,0.0,0.0,0.0,0.0,0.0,0.0,0.0,0.0,0.0,0.0,0.0,0.0,0.0,0.0,0.0,0.0,0.0,0.0,0.0,0.0,0.0,0.0,0.0,0.0,0.0,0.0,0.0,0.0,0.0,0.0,0.0,0.0,0.0,0.0,0.0,0.0,0.0,0.0,0.0,0.0,0.0,0.0,0.0,0.0,0.0,0.0,0.0,0.0,0.0,0.0,0.0,0.0,0.0,0.0,0.0,0.0,0.0,0.0,0.0,0.0,0.0,0.0,0.0,0.0,0.0,0.0,0.0,0.0,0.0,0.0,0.0,0.0,0.0,0.0,0.0,0.0,0.0,0.0,0.0,0.0,0.0,0.0,-3.2711,-3.4784,-3.9902,-4.2051,-4.3242,-4.3652,-4.2734,-4.0391,-3.6289,-3.4531,0.0,0.0,0.0,0.0,0.0,0.0,0.0,0.0,0.0,0.0,0.0,0.0,0.0,0.0,0.0,0.0,0.0,0.0,0.0,0.0,0.0,0.0,0.0,0.0,0.0,0.0,0.0,0.0,0.0,0.0,0.0,0.0,0.0,0.0,0.0,0.0,0.0,0.0,0.0,0.0,0.0,0.0,0.0,0.0,0.0,0.0,0.0,0.0,0.0,0.0,0.0,0.0,0.0,0.0,0.0,0.0,0.0,0.0,0.0,0.0,0.0,0.0,0.0,0.0,0.0,0.0,0.0,0.0,0.0,0.0,0.0,0.0,0.0,0.0,0.0,0.0,0.0,0.0,0.0,0.0,0.0,0.0,0.0,0.0,0.0,0.0,0.0,0.0,0.0,0.0,0.0,0.0,0.0,0.0,0.0,0.0,0.0,0.0,0.0,0.0,0.0,0.0,-3.5704,-3.5781,-4.0332,-4.1992,-4.2812,-4.291,-4.1875,-3.9687,-3.6094,-3.3359,0.0,0.0,0.0,0.0,0.0,0.0,0.0,0.0,0.0,0.0,0.0,0.0,0.0,0.0,0.0,0.0,0.0,0.0,0.0,0.0,0.0,0.0,0.0,0.0,0.0,0.0,0.0,0.0,0.0,0.0,0.0,0.0,0.0,0.0,0.0,0.0,0.0,0.0,0.0,0.0,0.0,0.0,0.0,0.0,0.0,0.0,0.0,0.0,0.0,0.0,0.0,0.0,0.0,0.0,0.0,0.0,0.0,0.0,0.0,0.0,0.0,0.0,0.0,0.0,0.0,0.0,0.0,0.0,0.0,0.0,0.0,0.0,0.0,0.0,0.0,0.0,0.0,0.0,0.0,0.0,0.0,0.0,0.0,0.0,0.0,0.0,0.0,0.0,0.0,0.0,0.0,0.0,0.0,0.0,0.0,0.0,0.0,0.0,0.0,0.0,0.0,0.0,-3.635,-3.7344,-4.1289,-4.1816,-4.2051,-4.2441,-3.9512,-3.7012,-3.5527,-3.1504,0.0,0.0,0.0,0.0,0.0,0.0,0.0,0.0,0.0,0.0,0.0,0.0,0.0,0.0,0.0,0.0,0.0,0.0,0.0,0.0,0.0,0.0,0.0,0.0,0.0,0.0,0.0,0.0,0.0,0.0,0.0,0.0,0.0,0.0,0.0,0.0,0.0,0.0,0.0,0.0,0.0,0.0,0.0,0.0,0.0,0.0,0.0,0.0,0.0,0.0,0.0,0.0,0.0,0.0,0.0,0.0,0.0,0.0,0.0,0.0,0.0,0.0,0.0,0.0,0.0,0.0,0.0,0.0,0.0,0.0,0.0,0.0,0.0,0.0,0.0,0.0,0.0,0.0,0.0,0.0,0.0,0.0,0.0,0.0,0.0,0.0,0.0,0.0,0.0,0.0,0.0,0.0,0.0,0.0,0.0,0.0,0.0,0.0,0.0,0.0,0.0,0.0,-3.5711,-3.7109,0.0,-4.1641,-4.1758,-4.166,-4.0215,-3.8066,-3.5137,0.0,0.0,0.0,0.0,0.0,0.0,0.0,0.0,0.0,0.0,0.0,0.0,0.0,0.0,0.0,0.0,0.0,0.0,0.0,0.0,0.0,0.0,0.0,0.0,0.0,0.0,0.0,0.0,0.0,0.0,0.0,0.0,0.0,0.0,0.0,0.0,0.0,0.0,0.0,0.0,0.0,0.0,0.0,0.0,0.0,0.0,0.0,0.0,0.0,0.0,0.0,0.0,0.0,0.0,0.0,0.0,0.0,0.0,0.0,0.0,0.0,0.0,0.0,0.0,0.0,0.0,0.0,0.0,0.0,0.0,0.0,0.0,0.0,0.0,0.0,0.0,0.0,0.0,0.0,0.0,0.0,0.0,0.0,0.0,0.0,0.0,0.0,0.0,0.0,0.0,0.0,0.0,0.0,0.0,0.0,0.0,0.0,0.0,0.0,0.0,0.0,0.0,-3.4368,-3.5351,-3.6973,0.0,-4.1348,-4.1484,-4.1191,-3.9629,-3.7539,-3.4863,0.0,0.0,0.0,0.0,0.0,0.0,0.0,0.0,0.0,0.0,0.0,0.0,0.0,0.0,0.0,0.0,0.0,0.0,0.0,0.0,0.0,0.0,0.0,0.0,0.0,0.0,0.0,0.0,0.0,0.0,0.0,0.0,0.0,0.0,0.0,0.0,0.0,0.0,0.0,0.0,0.0,0.0,0.0,0.0,0.0,0.0,0.0,0.0,0.0,0.0,0.0,0.0,0.0,0.0,0.0,0.0,0.0,0.0,0.0,0.0,0.0,0.0,0.0,0.0,0.0,0.0,0.0,0.0,0.0,0.0,0.0,0.0,0.0,0.0,0.0,0.0,0.0,0.0,0.0,0.0,0.0,0.0,0.0,0.0,0.0,0.0,0.0,0.0,0.0,0.0,0.0,0.0,0.0,0.0,0.0,0.0,0.0,0.0,0.0,0.0,0.0,0.0,-3.4019,-3.5431,-3.7187,-4.0195,-4.0918,-4.1172,-4.1172,-3.7207,-3.4726,0.0,0.0,0.0,0.0,0.0,0.0,0.0,0.0,0.0,0.0,0.0,0.0,0.0,0.0,0.0,0.0,0.0,0.0,0.0,0.0,0.0,0.0,0.0,0.0,0.0,0.0,0.0,0.0,0.0,0.0,0.0,0.0,0.0,0.0,0.0,0.0,0.0,0.0,0.0,0.0,0.0,0.0,0.0,0.0,0.0,0.0,0.0,0.0,0.0,0.0,0.0,0.0,0.0,0.0,0.0,0.0,0.0,0.0,0.0,0.0,0.0,0.0,0.0,0.0,0.0,0.0,0.0,0.0,0.0,0.0,0.0,0.0,0.0,0.0,0.0,0.0,0.0,0.0,0.0,0.0,0.0,0.0,0.0,0.0,0.0,0.0,0.0,0.0,0.0,0.0,0.0,0.0,0.0,0.0,0.0,0.0,0.0,0.0,0.0,0.0,0.0,0.0,0.0,-3.2911,-3.5205,-3.7519,-4.0234,-4.0918,-4.1172,-4.1172,-3.832,-3.6016,-3.4766,0.0,0.0,0.0,0.0,0.0,0.0,0.0,0.0,0.0,0.0,0.0,0.0,0.0,0.0,0.0,0.0,0.0,0.0,0.0,0.0,0.0,0.0,0.0,0.0,0.0,0.0,0.0,0.0,0.0,0.0,0.0,0.0,0.0,0.0,0.0,0.0,0.0,0.0,0.0,0.0,0.0,0.0,0.0,0.0,0.0,0.0,0.0,0.0,0.0,0.0,0.0,0.0,0.0,0.0,0.0,0.0,0.0,0.0,0.0,0.0,0.0,0.0,0.0,0.0,0.0,0.0,0.0,0.0,0.0,0.0,0.0,0.0,0.0,0.0,0.0,0.0,0.0,0.0,0.0,0.0,0.0,0.0,0.0,0.0,0.0,0.0,0.0,0.0,0.0,0.0,0.0,0.0,0.0,0.0,0.0,0.0,0.0,0.0,0.0,0.0,0.0,0.0,-3.2207,-3.4805,-3.7402,-4.0,-4.0801,-4.1172,-4.1172,-3.8945,-3.6582,-3.4336,0.0,0.0,0.0,0.0,0.0,0.0,0.0,0.0,0.0,0.0,0.0,0.0,0.0,0.0,0.0,0.0,0.0,0.0,0.0,0.0,0.0,0.0,0.0,0.0,0.0,0.0,0.0,0.0,0.0,0.0,0.0,0.0,0.0,0.0,0.0,0.0,0.0,0.0,0.0,0.0,0.0,0.0,0.0,0.0,0.0,0.0,0.0,0.0,0.0,0.0,0.0,0.0,0.0,0.0,0.0,0.0,0.0,0.0,0.0,0.0,0.0,0.0,0.0,0.0,0.0,0.0,0.0,0.0,0.0,0.0,0.0,0.0,0.0,0.0,0.0,0.0,0.0,0.0,0.0,0.0,0.0,0.0,0.0,0.0,0.0,0.0,0.0,0.0,0.0,0.0,0.0,0.0,0.0,0.0,0.0,0.0,0.0,0.0,0.0,0.0,0.0,0.0,-3.1894,-3.4453,-3.7012,-3.9609,-4.0664,-4.1172,-4.1172,-3.918,-3.6699,-3.3789,0.0,0.0,0.0,0.0,0.0,0.0,0.0,0.0,0.0,0.0,0.0,0.0,0.0,0.0,0.0,0.0,0.0,0.0,0.0,0.0,0.0,0.0,0.0,0.0,0.0,0.0,0.0,0.0,0.0,0.0,0.0,0.0,0.0,0.0,0.0,0.0,0.0,0.0,0.0,0.0,0.0,0.0,0.0,0.0,0.0,0.0,0.0,0.0,0.0,0.0,0.0,0.0,0.0,0.0,0.0,0.0,0.0,0.0,0.0,0.0,-1.9693,0.0,0.0,0.0,0.0,0.0,0.0,0.0,0.0,0.0,0.0,0.0,0.0,0.0,0.0,0.0,0.0,0.0,0.0,0.0,0.0,0.0,0.0,0.0,0.0,0.0,0.0,0.0,0.0,0.0,0.0,0.0,0.0,0.0,0.0,0.0,0.0,0.0,0.0,0.0,0.0,0.0,-3.2324,-3.4629,-3.7012,-3.9609,-4.0664,-4.1172,-4.1172,-3.918,-3.707,-3.5098,-3.2148,0.0,0.0,0.0,0.0,0.0,0.0,0.0,0.0,0.0,0.0,0.0,0.0,0.0,0.0,0.0,0.0,0.0,0.0,0.0,0.0,0.0,0.0,0.0,0.0,0.0,0.0,0.0,0.0,0.0,0.0,0.0,0.0,0.0,0.0,0.0,0.0,0.0,0.0,0.0,0.0,0.0,0.0,0.0,0.0,0.0,0.0,0.0,0.0,0.0,0.0,0.0,0.0,0.0,0.0,0.0,0.0,0.0,0.0,0.0,0.0,-2.0521,0.0,0.0,0.0,0.0,0.0,0.0,0.0,0.0,0.0,0.0,0.0,0.0,0.0,0.0,0.0,0.0,0.0,0.0,0.0,0.0,0.0,0.0,0.0,0.0,0.0,0.0,0.0,0.0,0.0,0.0,0.0,0.0,0.0,0.0,0.0,0.0,0.0,0.0,0.0,0.0,-3.2461,-3.4687,-3.7012,-3.9609,-4.0664,-4.1172,-4.1172,-3.9551,-3.7539,-3.5215,-3.2793,0.0,0.0,0.0,0.0,0.0,0.0,0.0,0.0,0.0,0.0,0.0,0.0,0.0,0.0,0.0,0.0,0.0,0.0,0.0,0.0,0.0,0.0,0.0,0.0,0.0,0.0,0.0,0.0,0.0,0.0,0.0,0.0,0.0,0.0,0.0,0.0,0.0,0.0,0.0,0.0,0.0,0.0,0.0,0.0,0.0,0.0,0.0,0.0,0.0,0.0,0.0,0.0,0.0,-2.334,-2.3888,-2.4663,-2.4663,-2.4583,-2.4409,-2.346,-2.2325,-2.1162,-2.1443,0.0,0.0,0.0,0.0,0.0,0.0,0.0,0.0,0.0,0.0,0.0,0.0,0.0,0.0,0.0,0.0,0.0,0.0,0.0,0.0,0.0,0.0,0.0,0.0,-3.1367,-3.0625,-2.8828,0.0,0.0,0.0,0.0,0.0,0.0,0.0,0.0,0.0,0.0,0.0,-3.2363,-3.457,-3.6875,-3.9394,-4.043,-4.0957,-4.0957,-3.9883,-3.8047,-3.5312,-3.375,-3.0926,0.0,0.0,0.0,0.0,0.0,0.0,0.0,0.0,0.0,0.0,0.0,0.0,0.0,0.0,0.0,0.0,0.0,0.0,0.0,0.0,0.0,0.0,0.0,0.0,0.0,0.0,0.0,0.0,0.0,0.0,0.0,0.0,-1.8958,-1.9225,0.0,0.0,0.0,0.0,0.0,0.0,0.0,0.0,0.0,0.0,0.0,0.0,0.0,-2.2712,-2.4048,-2.4396,-2.4863,-2.5491,-2.5785,-2.6119,-2.648,-2.648,-2.6734,-2.7188,-2.7295,0.0,-2.2899,-2.1951,0.0,0.0,0.0,0.0,0.0,0.0,0.0,0.0,0.0,0.0,0.0,0.0,0.0,0.0,0.0,0.0,0.0,0.0,0.0,0.0,0.0,0.0,-3.2832,-3.2226,-3.2051,-3.1914,0.0,-3.0137,-2.8711,-2.8301,-2.7695,0.0,0.0,0.0,0.0,0.0,0.0,0.0,-3.2012,-3.4141,-3.6309,-3.8516,-3.9531,-4.0059,-4.0059,-3.9531,-3.8555,-3.7051,-3.4687,-3.2152,-2.9459,-2.5915,0.0,0.0,0.0,0.0,0.0,0.0,0.0,0.0,0.0,0.0,0.0,0.0,0.0,0.0,0.0,0.0,0.0,0.0,0.0,0.0,0.0,0.0,0.0,0.0,0.0,0.0,0.0,0.0,0.0,-1.984,-2.0334,-1.9466,-2.0347,-2.0655,0.0,0.0,0.0,0.0,0.0,0.0,0.0,0.0,0.0,-2.3434,-2.3754,-2.4462,-2.5611,-2.6239,-2.6934,-2.7696,-2.815,-2.8617,-2.9058,-2.9058,-2.9285,-2.9686,-2.9646,-2.8738,-2.7121,-2.5104,-2.3688,-2.2726,0.0,0.0,0.0,0.0,-2.878,-3.1452,-3.2564,-3.1778,0.0,-3.0266,0.0,0.0,0.0,0.0,0.0,0.0,0.0,0.0,0.0,0.0,-3.4785,-3.4414,-3.4512,-3.4629,-3.4375,-3.2812,-3.1035,0.0,-2.9062,-2.8789,-2.875,0.0,0.0,0.0,0.0,-3.0371,-3.2578,-3.4355,-3.6211,-3.834,-3.9141,-3.9609,-3.9883,-3.9473,-3.8652,-3.7383,-3.5566,-3.3553,-3.1332,-2.839,-2.6179,0.0,0.0,0.0,0.0,0.0,0.0,0.0,0.0,0.0,0.0,0.0,0.0,0.0,0.0,0.0,0.0,0.0,0.0,0.0,0.0,0.0,0.0,0.0,0.0,0.0,0.0,0.0,0.0,-2.0655,-2.1216,-1.976,-2.1069,-2.1523,0.0,0.0,0.0,0.0,0.0,0.0,-2.2712,-2.3407,-2.4342,-2.5611,-2.6012,-2.6667,-2.7615,-2.827,-2.9018,-2.9833,-3.0261,-3.0782,-3.1356,-3.1356,-3.1463,-3.1664,-3.145,-3.1102,-3.0488,-2.7816,-2.5905,-2.4596,-2.3928,-2.4666,-2.642,-2.8261,-3.0445,-3.2728,-3.4758,-3.3782,-3.1684,-3.1799,-3.084,-2.9403,-2.89,0.0,0.0,0.0,0.0,-3.332,-3.418,-3.5371,-3.6406,-3.6621,-3.6914,-3.707,-3.6738,-3.5391,-3.3555,0.0,-3.043,-3.0059,-2.9648,0.0,0.0,0.0,0.0,-3.0644,-3.2676,-3.4277,-3.5918,-3.7734,-3.8398,-3.8848,-3.9199,-3.8906,-3.8301,-3.7363,-3.6191,-3.4785,-3.3066,-3.0717,-2.8661,-2.6717,0.0,0.0,0.0,0.0,0.0,0.0,0.0,0.0,0.0,0.0,0.0,0.0,0.0,0.0,0.0,0.0,0.0,0.0,0.0,0.0,0.0,0.0,0.0,0.0,0.0,0.0,0.0,0.0,0.0,-2.0267,-2.1496,0.0,0.0,0.0,0.0,-2.1857,-2.2939,-2.3981,-2.4877,-2.5745,-2.6881,-2.8364,-2.8965,-2.982,-3.0969,-3.1022,-3.1356,-3.1944,-3.1971,-3.2305,-3.2866,-3.2866,-3.2879,-3.2893,-3.2879,-3.2385,-3.1396,-2.8724,-2.7415,-2.6921,-2.5237,-2.5736,-2.7643,-2.9135,-3.0941,-3.3062,-3.4816,-3.2984,-3.0472,-3.3376,-3.2596,-3.0751,-3.1282,-3.1229,0.0,0.0,-3.3652,-3.4219,-3.5098,-3.6269,-3.7441,-3.8262,-3.8457,-3.8476,-3.8457,-3.7422,-3.5625,0.0,-3.1055,-3.0059,-2.9648,0.0,-2.9355,-2.9004,-3.0019,-3.1016,-3.1543,-3.3437,-3.5098,-3.6055,-3.6894,-3.7402,-3.7422,-3.7402,-3.7363,-3.7305,-3.6465,-3.5762,-3.5254,-3.215,-2.9368,-2.6817,-2.5661,0.0,0.0,0.0,0.0,0.0,0.0,0.0,0.0,0.0,0.0,0.0,0.0,0.0,0.0,0.0,0.0,0.0,0.0,0.0,0.0,0.0,0.0,0.0,0.0,0.0,0.0,0.0,0.0,-2.3581,-2.4756,0.0,-2.3754,-2.3567,-2.3661,-2.3955,-2.5064,-2.6213,-2.7295,-2.8177,-2.9245,-3.0541,-3.0782,-3.1356,-3.2345,-3.2532,-3.2839,-3.3253,-3.344,-3.3641,-3.3841,-3.3841,-3.3734,-3.3561,-3.3561,-3.3267,-3.2706,-3.157,-3.014,-2.8604,-2.7789,-2.8409,-2.9848,-3.0384,-3.206,-3.4004,-3.4312,-3.3483,-3.2558,-3.3441,-3.1855,-2.9987,-3.2781,-3.2485,-3.1824,-3.4393,-3.5605,-3.6289,-3.6875,-3.7988,-3.8965,-3.8984,-3.9199,-3.9336,-3.9043,-3.8418,-3.7422,-3.5781,-3.3965,-3.2559,-3.2129,-3.1152,-3.0644,-3.1309,-3.1348,-3.1738,-3.3008,-3.4062,-3.5137,-3.6309,-3.6719,-3.7012,-3.7266,-3.7051,-3.6777,-3.6484,-3.5664,-3.4863,-3.416,-3.2488,-3.0344,-2.767,-2.6168,-2.5078,0.0,0.0,0.0,0.0,0.0,0.0,0.0,0.0,0.0,0.0,0.0,0.0,0.0,0.0,0.0,0.0,0.0,0.0,0.0,0.0,0.0,0.0,0.0,0.0,0.0,0.0,-2.5157,-2.5745,-2.7028,-2.7402,-2.6213,-2.6026,-2.6092,-2.64,-2.7495,-2.8631,-2.9726,-3.0528,-3.1356,-3.2225,-3.2452,-3.2799,-3.328,-3.3574,-3.3828,-3.4042,-3.4229,-3.4322,-3.4322,-3.4322,-3.4162,-3.3881,-3.3881,-3.3708,-3.34,-3.32,-3.2158,-3.0621,-3.0127,-3.0301,-3.1195,-3.194,-3.3136,-3.4308,-3.3628,-3.3708,-3.4062,-3.2959,-3.1647,-3.0858,-3.3336,-3.3418,-3.3175,-3.5435,-3.6912,-3.8047,-3.8476,-3.9336,-4.0039,-3.9726,-3.9883,-4.0019,-3.9707,-3.9199,-3.8574,-3.7871,-3.623,-3.4707,-3.3984,-3.293,-3.2422,-3.3125,-3.2734,-3.2832,-3.4121,-3.4668,-3.5273,-3.6152,-3.6367,-3.6445,-3.6426,-3.6309,-3.5859,-3.498,-3.4375,-3.375,-3.3027,-3.2324,-3.0471,-2.7441,-2.5376,-2.4146,-2.3566,0.0,0.0,0.0,0.0,0.0,0.0,0.0,0.0,0.0,0.0,0.0,0.0,0.0,0.0,0.0,0.0,0.0,0.0,0.0,0.0,0.0,0.0,0.0,-2.2084,-2.4623,-2.648,-2.656,-2.8096,-2.8698,-2.7535,-2.823,-2.8858,-2.9112,-3.0221,-3.1263,-3.2118,-3.2706,-3.3146,-3.3427,-3.4015,-3.4189,-3.3908,-3.4189,-3.4336,-3.4336,-3.4336,-3.4349,-3.4349,-3.4349,-3.4189,-3.3895,-3.3895,-3.3721,-3.3414,-3.3414,-3.324,-3.2906,-3.2051,-3.153,-3.141,-3.3254,-3.3812,-3.3427,-3.2791,-3.3646,-3.4504,-3.2009,-3.2112,-3.3247,-3.2888,-3.389,-3.5342,-3.5905,-3.7559,-3.9336,-3.9785,-4.0215,-4.0547,-4.0527,-4.0527,-4.0527,-4.0508,-3.9824,-3.9101,-3.8652,-3.7578,-3.6309,-3.498,-3.4746,-3.459,-3.418,-3.4101,0.0,-3.4668,-3.5117,-3.541,-3.543,-3.5801,-3.5684,-3.4805,-3.5117,-3.4629,-3.291,-3.2734,-3.2539,-3.2129,-3.1699,-2.9766,-2.6194,-2.3504,-2.2079,-2.1978,0.0,0.0,0.0,0.0,0.0,0.0,0.0,0.0,0.0,0.0,0.0,0.0,0.0,0.0,0.0,0.0,0.0,0.0,0.0,0.0,0.0,0.0,-2.509,-2.517,-2.6613,-2.8377,-3.0301,-3.1156,-3.145,-3.1129,-3.1503,-3.1637,-3.1289,-3.2358,-3.3146,-3.3387,-3.3748,-3.3988,-3.4068,-3.4229,-3.4282,-3.4202,-3.4496,-3.4643,-3.4643,-3.4857,-3.495,-3.495,-3.495,-3.4683,-3.4202,-3.4202,-3.3895,-3.3414,-3.3414,-3.336,-3.3253,-3.2799,-3.2438,-3.231,-3.2353,-3.1868,-3.118,-3.0794,-3.0747,-3.1181,-3.144,-3.0825,-3.047,-3.3355,-3.4275,-3.4793,-3.6492,-3.8419,-4.0117,-3.9941,-4.0449,-4.0918,-4.0605,-4.0762,-4.082,-4.0195,-3.9883,-3.9473,-3.873,-3.8301,-3.7637,-3.6348,-3.5859,-3.5508,-3.5098,-3.4746,0.0,-3.5137,-3.5312,-3.5625,-3.625,-3.6426,-3.6269,-3.5703,-3.4902,-3.3965,-3.2871,-3.1601,-3.0859,-3.0742,-3.0332,-2.8611,-2.531,-2.4444,-2.3016,0.0,0.0,0.0,0.0,0.0,0.0,0.0,0.0,0.0,0.0,0.0,0.0,0.0,0.0,0.0,0.0,0.0,0.0,0.0,0.0,0.0,0.0,-2.5798,-2.7509,-2.8631,-2.9272,-3.0327,-3.2238,-3.3066,-3.3427,-3.3307,-3.3668,-3.3668,-3.308,-3.3788,-3.4309,-3.4429,-3.4589,-3.4736,-3.487,-3.487,-3.4817,-3.4683,-3.4857,-3.495,-3.495,-3.5124,-3.5191,-3.5191,-3.5191,-3.487,-3.4322,-3.4322,-3.3975,-3.3414,-3.3414,-3.3414,0.0,0.0,0.0,0.0,0.0,-3.1557,-3.0849,-3.0434,-2.994,-2.9568,-3.0437,-2.9603,-2.8873,-3.1301,-3.3059,-3.4498,-3.5794,-3.8375,-4.0742,-4.0488,-4.0801,-4.1113,-4.0859,-4.0996,-4.1035,-4.0547,-4.0293,-3.9961,-3.9258,-3.8965,0.0,-3.7383,-3.6836,-3.6484,-3.623,-3.5664,-3.541,-3.5859,-3.5762,-3.584,-3.6348,-3.6406,-3.6074,-3.5273,-3.4512,0.0,0.0,0.0,-2.9766,-2.9414,-2.8649,0.0,0.0,0.0,-2.3794,-2.1765,-2.3308,0.0,0.0,-2.7676,-2.8745,0.0,0.0,0.0,0.0,0.0,0.0,0.0,0.0,0.0,0.0,0.0,0.0,0.0,0.0,0.0,0.0,-2.7762,-2.9472,-3.1998,-3.2185,-3.2358,-3.3133,-3.4189,-3.4763,-3.4496,-3.4977,-3.507,-3.4509,-3.475,-3.503,-3.5284,0.0,0.0,0.0,0.0,-3.5551,-3.5297,-3.5297,-3.5284,-3.5244,-3.5244,-3.5231,-3.5191,-3.5191,-3.4897,-3.4376,-3.4376,-3.4028,-3.3467,-3.3467,-3.344,-3.3414,-3.3414,-3.3374,-3.3253,-3.2732,-3.2144,-3.1543,-3.0982,0.0,0.0,-2.9205,-2.8711,-2.823,-2.8203,-3.1271,-3.4651,-3.4651,-3.7914,-4.1172,-4.1172,-4.1172,-4.1172,-4.1172,-4.1172,-4.1172,-4.1113,-4.0801,-4.0391,-3.998,-3.9551,-3.9023,-3.8203,-3.7676,-3.7344,-3.7305,-3.6621,-3.623,-3.6621,-3.6289,-3.6035,-3.6094,0.0,0.0,-3.4394,-3.416,-3.3047,-3.0644,-2.9961,-2.9297,-2.8535,-2.7474,-2.7169,-2.7759,-2.6045,-2.4537,-2.3081,-2.4651,-2.5386,-2.5386,-2.6714,-2.8199,0.0,0.0,0.0,0.0,0.0,0.0,0.0,0.0,0.0,0.0,0.0,0.0,0.0,0.0,0.0,-2.8217,-3.01,-3.1931,-3.3654,-3.4255,-3.4576,-3.475,-3.5177,-3.5431,-3.5378,-3.5698,-3.5752,-3.5404,-3.5658,-3.5845,-3.5899,-3.5899,-3.5925,-3.5979,-3.5992,-3.5965,-3.5899,-3.5899,-3.5778,-3.5551,0.0,0.0,-3.5191,-3.5191,-3.5004,-3.4683,-3.4683,-3.4349,-3.3801,-3.3801,-3.3641,-3.3414,-3.3414,-3.3133,-3.2706,-3.2585,-3.2024,-3.1263,-3.0915,-3.0528,-3.01,-2.9566,-2.9152,-2.8818,-2.8591,-3.1464,0.0,-3.4651,-3.7914,-4.1172,-4.1172,-4.1172,-4.1172,-4.1172,-4.1172,-4.1074,-4.0723,-4.0586,-4.0391,-3.998,-3.9824,-3.959,-3.9043,-3.832,-3.7695,-3.7344,-3.6875,-3.6582,-3.666,-3.6289,-3.6152,-3.6504,-3.6543,-3.6309,-3.5703,-3.4687,-3.3555,-3.2363,-3.0898,-3.0,-2.9824,-2.9346,-2.8484,-2.7459,-2.7249,-2.5864,-2.3081,-2.3703,-2.3963,-2.4086,-2.6901,-2.9053,0.0,0.0,0.0,0.0,0.0,0.0,0.0,0.0,0.0,0.0,0.0,-2.4142,0.0,0.0,-2.8631,-3.0114,-3.1837,-3.3414,-3.4589,-3.5391,-3.5792,-3.5658,-3.5885,-3.6126,-3.6273,-3.654,-3.662,-3.6299,-3.6433,-3.65,-3.65,-3.6366,-3.6353,-3.65,-3.6366,-3.6286,-3.6286,-3.6139,-3.6006,-3.5845,-3.5698,-3.5631,-3.5618,-3.5338,-3.5124,-3.4977,-3.483,-3.4429,-3.3881,-3.3721,-3.3547,-3.3414,-3.3414,-3.3146,-3.2746,-3.2599,-3.2171,-3.1583,-3.0996,-3.0595,-3.0261,-2.9673,-2.9179,-2.8791,-2.8644,-3.0687,-3.3022,-3.3022,-3.6121,-3.9531,-3.9531,-4.0353,-4.1172,-4.1172,-4.1172,-4.1113,-4.0898,-4.084,-4.0723,-4.0293,-4.0215,-4.0,-3.9316,-3.8848,-3.834,-3.7715,-3.707,-3.6738,-3.6953,-3.6621,-3.6504,-3.6934,-3.6797,-3.6484,-3.6055,-3.4629,-3.3476,-3.2832,-3.1777,-3.1094,-3.0859,-3.0664,-3.0181,-2.9464,-2.9554,-2.8157,-2.5046,-2.5219,-2.4936,-2.4052,-2.5657,-2.7574,0.0,0.0,0.0,0.0,0.0,0.0,0.0,0.0,-2.2064,-2.3078,-2.4389,-2.5714,-2.7025,-2.8938,-3.0662,-3.1904,-3.3293,-3.4536,-3.5404,-3.6193,-3.662,-3.6433,-3.662,-3.6861,-3.7088,-3.7342,-3.7382,-3.7128,-3.7114,-3.7088,-3.7008,-3.6794,-3.6754,-3.6941,-3.6727,-3.658,-3.658,-3.6353,-3.6219,-3.6153,-3.5912,-3.5859,-3.5965,-3.5498,-3.5244,-3.5177,-3.4897,-3.4496,-3.4028,-3.3654,-3.3507,-3.3494,-3.344,-3.3267,-3.3026,-3.2732,-3.2372,-3.1917,-3.1209,-3.0742,-3.0354,-2.9833,-2.9299,-2.8845,-2.8791,-3.0001,-3.1497,-3.1497,-3.4213,-3.7241,-3.7241,-3.8548,-3.9864,-3.9864,-4.0197,-4.0509,-4.0509,-4.0841,-4.1074,-4.0723,-4.0644,-4.0391,-3.959,-3.9394,-3.9043,-3.8184,-3.7402,-3.7031,-3.7383,-3.7051,-3.6914,-3.7266,-3.6914,-3.6465,-3.5937,-3.4609,-3.3613,-3.3203,-3.2773,-3.2383,-3.2031,-3.1934,-3.1855,-3.1758,-3.1758,-3.0382,-2.7596,-2.7217,-2.62,-2.4401,-2.4401,-2.5881,-1.6122,-1.7944,-1.9664,-2.208,-2.0083,-1.8275,0.0,0.0,-2.0005,-2.2762,-2.403,-2.5466,-2.871,-3.0434,-3.1944,-3.34,-3.4643,-3.5738,-3.6607,-3.7048,-3.7382,-3.7595,-3.7635,-3.7676,-3.7702,-3.7742,-3.7742,-3.7702,-3.7702,-3.7595,-3.7342,-3.7315,-3.7168,-3.6941,-3.6901,-3.6901,-3.6901,-3.6861,-3.6727,-3.6473,-3.6433,-3.6153,-3.5672,-3.5618,-3.5444,-3.5177,-3.4897,-3.4723,-3.4616,-3.4068,-3.3828,-3.3801,-3.3521,-3.3387,-3.3334,-3.304,-3.2412,-3.1704,-3.161,-3.1209,-3.0688,-3.0368,-3.0034,-2.9726,-2.9459,-3.0493,-3.1825,-3.1825,-3.3423,-3.4975,-3.4975,-3.5298,-3.546,-3.546,-3.6922,-3.8231,-3.8231,-3.9864,-4.1152,-4.1113,-4.1094,-4.0937,-4.0469,-4.0059,-3.9512,-3.8633,-3.8086,-3.7793,-3.7851,-3.748,-3.7246,-3.7285,-3.6914,-3.6348,-3.5527,-3.5293,-3.498,-3.4512,-3.4101,-3.3828,-3.3789,-3.3418,-3.3027,-3.2656,-3.2656,-3.1579,-2.9475,-2.7849,-2.62,-2.4531,-2.4401,-2.6136,-1.7866,-1.8595,-1.8899,0.0,-1.9864,-1.8947,-2.0321,-2.0288,-2.0346,-2.2152,-2.4679,-2.7251,-2.8931,-3.163,-3.3975,0.0,-3.4196,-3.4486,-3.6653,-3.5579,-3.5219,-3.6839,-3.7195,-3.7515,-3.8036,-3.7929,-3.7956,-3.8317,-3.8183,-3.7929,-3.7635,-3.7489,-3.7235,-3.6941,-3.6941,-3.6941,-3.6941,-3.6941,-3.6861,-3.6754,-3.658,-3.6473,-3.638,-3.5859,-3.5471,-3.5177,-3.4897,-3.467,-3.4469,-3.4055,-3.3774,-3.3601,-3.3467,-3.3414,-3.3374,-3.3093,-3.2639,-3.2131,-3.1784,-3.1396,-3.0969,-3.0515,-3.0154,-2.986,-2.9566,-2.9863,-3.0139,-2.9971,-3.1475,-3.2943,-3.2757,-3.3676,-3.4651,-3.4651,-3.546,-3.6121,-3.6121,-3.6762,-3.7737,-3.904,-3.9198,-3.9556,-4.0432,-4.0371,-4.0059,-3.9434,-3.8535,-3.8105,-3.8594,-3.8086,-3.7656,-3.7656,-3.75,-3.7168,-3.6562,-3.6269,-3.6055,-3.5859,-3.5449,-3.5098,-3.4863,-3.4668,-3.4355,-3.3906,-3.2838,-3.1838,-3.1117,-2.9048,-2.7206,-2.5802,-2.5487,-2.6157,-1.8613,0.0,0.0,-1.9643,-1.9241,-1.8663,-1.9339,-1.9516,-2.0043,-2.1284,-2.4197,-2.7163,-2.9225,-3.2115,-3.4567,-3.559,-3.4574,-3.4445,-3.6735,-3.5219,-3.457,-3.6122,-3.6299,-3.662,-3.7342,-3.7676,-3.8036,-3.8544,-3.8477,-3.825,-3.7956,-3.7742,-3.7448,-3.7088,-3.7048,-3.7008,-3.6941,-3.6941,-3.6941,-3.6941,-3.6727,-3.6687,-3.6794,-3.5992,-3.5471,-3.5191,-3.4977,-3.471,-3.4416,-3.4122,-3.3828,-3.3534,-3.344,-3.3414,-3.3387,-3.3173,-3.2866,-3.2478,-3.2064,-3.1664,-3.1249,-3.0662,-3.0341,-3.0087,-2.9713,-2.9392,-2.9098,-2.8804,-2.9815,-3.0831,-3.068,-3.1722,-3.2874,-3.2874,-3.3349,-3.3839,-3.3839,-3.4651,-3.6121,-3.7578,-3.839,-3.928,-4.0434,-4.0605,-4.0469,-4.0273,-3.9238,-3.8691,-3.9316,-3.873,-3.8242,-3.8125,-3.7988,-3.7754,-3.7324,-3.7012,-3.6836,-3.6836,-3.6543,-3.623,-3.5937,-3.5801,-3.5527,-3.5078,-3.3575,-3.2643,-3.1998,-3.0338,-2.8853,-2.7308,-2.7061,-2.7092,0.0,0.0,-1.8154,-1.9442,-1.7599,-1.6045,-1.8598,-1.8209,-1.7996,-2.0906,-2.1745,-2.3664,-2.9461,-3.1045,-3.2507,-3.5943,-3.7221,-3.7569,-3.7782,-3.7555,-3.6746,-3.5792,-3.5164,-3.495,0.0,-3.6834,-3.7929,-3.8263,-3.8544,-3.8584,-3.8263,-3.8223,-3.7969,-3.7382,-3.7382,-3.7235,-3.6941,-3.6941,-3.6941,-3.6941,-3.6941,-3.6794,-3.65,-3.5899,-3.5471,-3.5191,-3.5191,-3.5017,-3.4723,-3.4429,-3.4135,-3.3841,-3.3534,-3.3414,-3.3414,-3.34,-3.304,-3.2545,-3.2519,-3.2144,-3.1557,-3.0969,-3.0768,-3.0662,-3.0074,-2.97,-2.9406,-2.9112,-2.8818,-2.8708,-2.8386,-2.8305,-2.8473,-2.8473,-2.9941,-3.1557,-3.1557,-3.4813,-3.7896,-3.7896,-3.9688,-4.1172,-4.1152,-4.0801,-4.0664,-4.1074,-4.0391,-3.9844,-3.9883,-3.9453,-3.9004,-3.8594,-3.8184,-3.7754,-3.7324,-3.7285,-3.7285,-3.7285,-3.7266,-3.7246,-3.7246,-3.6855,-3.6426,-3.5996,-3.5586,-3.4184,-3.1863,-3.198,-3.1003,-2.9083,-2.922,-2.922,-1.7807,0.0,-1.8006,-1.8888,-1.7795,-1.7003,-1.8145,-1.8191,-1.8253,-1.8985,-2.077,-2.2983,-2.6529,-2.8988,-3.172,-3.5072,-3.4744,-3.4719,-3.7011,-3.5469,-3.4258,-3.4754,-3.4937,0.0,0.0,0.0,0.0,-3.7849,-3.8063,-3.8143,-3.8263,-3.8263,-3.8076,-3.7676,-3.7676,-3.7529,-3.7235,-3.7235,-3.7128,-3.6941,-3.6941,-3.6687,-3.6219,-3.6006,-3.5658,-3.5191,-3.5191,-3.503,-3.4736,-3.4442,-3.4148,-3.3855,-3.3534,-3.3414,-3.3414,-3.3414,-3.316,-3.2799,-3.2612,-3.2158,-3.1597,-3.1209,-3.1076,-3.1009,-3.0621,-3.0301,-3.0007,-2.97,-2.9406,-2.9072,-2.8577,-2.8457,-2.8404,-2.819,-2.8796,-2.9286,-2.9286,-3.0426,-3.1887,-3.3349,-3.4164,-3.5137,-3.6602,-3.6817,-3.7258,-3.8706,-3.9719,-4.0215,-3.9922,-3.9766,-3.9609,-3.9473,-3.9043,-3.8711,-3.8574,-3.8047,-3.7715,-3.7715,-3.7461,-3.7305,-3.7305,-3.7168,-3.7012,-3.6875,-3.5142,-3.4583,-3.5021,-3.3193,-3.223,-3.1911,-3.151,-3.0978,-1.7935,-1.8262,-1.8159,-1.8466,-1.8288,-1.8057,-1.8342,-1.8565,-1.8552,-1.8036,-1.9799,-2.2143,-2.4422,-2.7212,-3.0198,-3.395,-3.3549,-3.3621,-3.6467,-3.4782,-3.3701,-3.4276,-3.4376,-3.4148,0.0,0.0,0.0,-3.7195,-3.7635,-3.7956,-3.825,-3.837,-3.829,-3.7996,-3.7969,-3.7782,-3.7382,-3.7382,-3.7235,-3.6941,-3.6941,-3.6647,-3.6072,-3.6072,-3.5752,-3.5191,-3.5191,-3.4977,-3.4589,-3.4402,-3.4082,-3.3694,-3.3494,-3.3414,-3.3414,-3.3414,-3.3227,-3.2933,-3.2652,-3.2225,-3.1757,-3.1356,-3.1223,-3.1156,-3.0755,-3.0515,-3.0274,-2.9873,-2.9633,-2.9379,-2.8885,-2.8764,-2.8684,-2.8377,-2.831,-2.8283,-2.8163,-2.8796,-2.9774,-3.1076,-3.2052,-3.3022,-3.4489,-3.4651,-3.546,-3.7578,-3.8817,-3.9681,-4.0238,-4.0215,-4.0117,-4.0117,-3.9726,-3.9453,-3.9453,-3.8789,-3.8379,-3.8379,-3.7988,-3.7754,-3.7754,-3.7598,-3.7519,-3.7519,-3.5925,-3.5276,-3.5876,-3.4752,-3.4047,-3.3726,-3.4047,-3.3332,-1.7521,-1.8482,-1.8793,-1.8496,-1.8708,-1.9027,-1.8993,-1.8972,-1.8694,-1.7779,-1.888,-2.0739,0.0,0.0,-2.8308,-3.267,-3.3721,-3.4616,-3.6326,-3.5645,-3.483,0.0,0.0,0.0,0.0,0.0,0.0,-3.638,0.0,-3.7889,-3.8263,-3.8584,-3.8584,-3.829,-3.829,-3.801,-3.7422,-3.7382,-3.7235,-3.6967,-3.6941,-3.6647,-3.6072,-3.6072,-3.5752,-3.5191,-3.5177,-3.4857,-3.4336,-3.4309,-3.3961,-3.3427,-3.3414,-3.3414,-3.3414,-3.3414,-3.324,-3.2959,-3.2666,-3.2358,-3.2011,-3.145,-3.1263,-3.1142,-3.0595,-3.0408,-3.0261,-2.9713,-2.9526,-2.9432,-2.9138,-2.9058,-2.8991,-2.8698,-2.8617,-2.8524,-2.8243,-2.9802,-3.1241,-3.1256,-3.2874,-3.4327,-3.4327,-3.4489,-3.5137,-3.7241,-3.7737,-3.8548,-4.0841,-4.082,-4.0566,-4.0566,-4.0176,-3.9922,-3.9922,-3.9492,-3.9238,-3.9238,-3.8848,-3.8613,-3.8613,-3.8184,-3.7969,-3.7969,-3.7539,-3.6437,-3.4666,-3.6417,-3.6417,-3.463,-3.6417,-3.6398,-1.6897,-1.8065,-1.9113,-1.9013,-1.9325,-1.94,-1.9061,-1.8728,-1.8621,-1.8911,-1.8449,-1.9345,0.0,0.0,0.0,-3.1482,-3.4202,0.0,-3.7342,-3.7635,0.0,-3.6086,0.0,-3.5698,-3.5124,-3.5271,0.0,0.0,-3.6834,-3.7342,-3.8544,-3.8691,-3.8691,-3.8611,-3.8611,-3.8437,-3.8036,-3.7595,-3.7342,-3.7275,-3.7048,-3.6647,-3.6072,-3.6072,-3.5752,-3.5191,-3.4963,-3.479,-3.4616,-3.4175,-3.3908,-3.3748,-3.3507,-3.3414,-3.3414,-3.3414,-3.336,-3.3253,-3.2973,-3.2532,-3.2078,-3.1931,-3.173,-3.153,-3.1383,-3.1022,-3.0648,-3.0501,-3.014,-2.974,-2.9446,-2.9366,-2.9299,-2.9005,-2.8764,-2.8644,-2.8778,-2.8955,-2.9033,-2.9267,-2.9621,-2.9774,-2.9774,-3.1241,-3.2381,-3.3022,-3.4489,-3.6922,-4.0685,-4.1074,-4.1016,-4.1016,-4.0625,-4.0371,-4.0371,-3.9961,-3.9726,-3.9726,-3.9297,-3.9043,-3.9043,-3.8633,-3.8418,-3.8418,-3.7988,-3.7468,-3.7019,-3.7158,-3.7003,-3.6559,-3.7144,-3.7003,-1.7636,-1.8654,-1.9447,-1.9746,-1.9786,-1.9556,-1.8782,-1.8145,-1.7718,-1.8068,-1.825,0.0,-2.1508,0.0,0.0,0.0,0.0,0.0,-3.7382,-3.7809,-3.7742,0.0,-3.7128,0.0,-3.6433,-3.654,-3.6941,0.0,-3.7342,-3.7555,-3.8651,-3.8838,-3.8905,-3.8905,-3.8798,-3.8504,-3.8076,-3.7595,-3.7315,-3.7195,-3.6901,-3.6513,-3.6072,-3.5939,-3.5631,-3.5191,0.0,-3.4803,-3.4536,-3.4215,-3.3921,-3.3654,-3.348,-3.3414,-3.3414,-3.3414,-3.3414,-3.3387,-3.3227,-3.2866,-3.2438,-3.2185,-3.1904,-3.1637,-3.1517,-3.1156,-3.0795,-3.0795,-3.0461,-3.0074,-2.9913,-2.9873,-2.9766,-2.9339,-2.9112,-2.9005,-2.9032,-2.8778,-2.8551,-2.8591,-2.8564,-2.8457,-2.819,-2.9243,-3.0432,-3.1256,-3.2546,-3.4489,-3.7914,-3.9198,-3.9707,-3.9707,-4.0453,-4.0801,-4.0801,-4.041,-4.0098,-3.9902,-3.9453,-3.9121,-3.8926,-3.8691,-3.8652,-3.8848,-3.8437,-3.8398,-3.8789,-3.834,-3.8125,-3.8125,-3.8125,-3.8125,-1.8952,-1.9644,-2.0051,-2.0295,-2.0085,-1.9501,-1.8287,-1.7559,-1.6992,-1.692,0.0,-1.9542,-2.0727,-2.3795,-2.7081,-2.9566,0.0,-3.4215,-3.7235,-3.7408,-3.7448,-3.8036,-3.7849,-3.7676,-3.7676,-3.7635,-3.7956,-3.8758,-3.8357,-3.829,-3.8798,-3.9078,-3.9199,-3.9159,-3.8865,-3.8437,-3.7889,-3.7595,-3.7301,-3.6981,-3.6687,-3.6393,-3.6059,-3.5805,-3.5511,-3.5191,-3.5151,-3.4857,-3.4376,-3.4295,-3.3948,-3.3467,-3.3427,-3.3414,-3.3414,-3.3414,-3.3414,-3.3414,-3.3414,-3.3213,-3.2893,-3.2345,-3.1957,-3.1677,-3.137,-3.1076,-3.0849,-3.0849,-3.0635,-3.0421,-3.0421,-3.0394,-3.0234,-2.9726,-2.9539,-2.9419,-2.9205,-2.9125,-2.9005,-2.8724,-2.8871,-2.8858,-2.8297,-2.843,-2.9166,-3.0803,-3.091,-3.1722,-3.3512,-3.5943,-3.7419,-3.7419,-3.9374,-4.0685,-4.0685,-4.0666,-4.0449,-4.0078,-3.9629,-3.9219,-3.8848,-3.8789,-3.8926,-3.9297,-3.8945,-3.9121,-3.9902,-3.9492,-3.9109,-3.8735,-3.8735,-3.8735,-1.9732,-2.0275,-2.0594,-2.0526,-1.9997,-1.9169,-1.7846,-1.7683,0.0,0.0,-1.8854,-1.9815,-2.1526,-2.3879,-2.668,-2.978,0.0,0.0,0.0,0.0,-3.8972,0.0,0.0,0.0,0.0,0.0,0.0,0.0,0.0,-3.9346,-3.9452,-3.9493,-3.9412,-3.9159,-3.8865,-3.8544,-3.8183,-3.7889,-3.7595,-3.7301,-3.7008,-3.658,-3.6072,-3.6019,-3.5698,-3.5177,-3.495,0.0,-3.4643,-3.4162,-3.3895,-3.3774,-3.3507,-3.3414,-3.3414,-3.3414,-3.3414,-3.3414,-3.3414,-3.3213,-3.2919,-3.2585,-3.2265,-3.1971,-3.1677,-3.1383,-3.1156,-3.1156,-3.0942,-3.0715,-3.0715,-3.0541,-3.0341,-3.0234,-2.9833,-2.9539,-2.9726,-2.9579,-2.9312,-2.9018,-2.9005,-2.8938,-2.8591,-2.8577,-2.8668,-2.8683,-2.8796,-2.8964,-2.9286,-3.2874,-3.5298,-3.5298,-3.7259,-3.8548,-3.8548,-4.012,-4.1035,-4.0957,-4.0547,-4.0254,-4.0195,-3.9844,-3.9707,-3.9766,-3.9707,-3.9746,-3.9902,-3.9824,-3.8651,-3.6751,-3.6751,-3.6751,-2.0282,-2.0716,-2.0933,-2.0614,-1.98,-1.862,-1.689,0.0,0.0,0.0,-1.8154,-1.9614,-2.1214,0.0,0.0,0.0,0.0,0.0,0.0,0.0,0.0,0.0,0.0,0.0,0.0,0.0,0.0,0.0,0.0,-4.0,-3.9813,-3.968,-3.9386,-3.8945,-3.8651,-3.833,-3.8036,-3.7742,-3.7448,-3.7155,-3.6861,-3.65,-3.6072,-3.5912,-3.5605,-3.5191,-3.5044,-3.491,-3.4736,-3.4295,-3.4028,-3.3855,-3.3534,-3.3414,-3.3414,-3.3414,-3.3414,-3.3414,-3.3414,-3.332,-3.316,-3.2866,-3.2465,-3.2051,-3.1757,-3.1463,-3.1263,-3.141,-3.1249,-3.1022,-3.1022,-3.0808,-3.0541,-3.0394,-3.002,-2.9793,-3.0087,-2.9913,-2.9619,-2.9325,-2.9392,-2.9352,-2.8911,-2.8965,-2.8911,-2.8457,-2.839,-2.8323,-2.8163,-2.9941,-3.1737,-3.2858,-3.5943,-3.7896,-3.7896,-3.9864,-4.1074,-4.084,-4.0644,-4.043,-4.0195,-4.0,-4.0,-4.0215,-4.0019,-4.0117,-4.0566,-4.0332,-3.9013,-3.6759,-3.6759,-3.6759,-2.0668,-2.1021,-2.1109,-2.0648,-1.959,-1.8131,-1.6453,-1.6441,0.0,0.0,-1.8069,-1.956,-2.0975,0.0,0.0,0.0,0.0,0.0,0.0,0.0,0.0,0.0,0.0,0.0,0.0,0.0,0.0,0.0,0.0,0.0,-4.0147,-3.9786,-3.9386,-3.8945,-3.8544,-3.8183,-3.7809,-3.7595,-3.7301,-3.6941,-3.6727,-3.6393,-3.6059,-3.5832,-3.5525,-3.5191,-3.5191,-3.507,-3.483,-3.4469,-3.4189,-3.3935,-3.3561,-3.3414,-3.3414,-3.3414,-3.3414,-3.3414,-3.3414,-3.3414,-3.336,-3.3066,-3.2625,-3.2144,-3.1851,-3.1557,-3.137,-3.1597,-3.1503,-3.1316,-3.1316,-3.1102,-3.0795,-3.0448,-3.0181,-3.0074,-3.0314,-3.0181,-2.994,-2.9713,-2.9806,-2.9753,-2.9219,-2.9325,-2.9299,-2.8778,-2.8644,-2.8524,-2.827,-2.819,-2.8796,-3.0592,-3.4164,-3.6762,-3.7241,-3.8882,-4.0044,-4.0684,-4.0183,-4.0028,-4.0176,-4.0176,-4.0332,-4.0644,-4.0332,-4.0508,-4.1172,-4.084,-3.9489,-3.7319,-3.7319,-3.7319,-2.0892,-2.1089,-2.1109,-2.0648,-1.9447,-1.8281,-1.781,0.0,0.0,-1.844,-1.9757,-2.0961,-2.147,0.0,0.0,0.0,0.0,-3.0007,0.0,0.0,0.0,0.0,0.0,0.0,0.0,0.0,0.0,0.0,0.0,0.0,-4.0441,-3.9893,-3.9559,-3.9533,-3.8985,-3.8397,-3.7809,-3.7782,-3.7489,-3.6941,-3.6901,-3.662,-3.6072,-3.6046,-3.5725,-3.5191,-3.5191,-3.5177,0.0,-3.4549,-3.4309,-3.4229,-3.3641,-3.3414,-3.3414,-3.3414,-3.3414,-3.3414,-3.3414,-3.3414,-3.336,-3.3066,-3.2759,-3.2452,-3.2144,-3.1864,-3.1637,-3.1664,-3.165,-3.1623,-3.1623,-3.141,-3.1049,-3.0488,-3.0341,-3.0327,-3.0354,-3.0341,-3.0314,-3.0287,-3.0087,-2.982,-2.9499,-2.9459,-2.9379,-2.9045,-2.8778,-2.8591,-2.8564,-2.8323,-2.8305,-2.8473,-3.0592,-3.2858,-3.4813,-3.5137,-3.6922,-4.0958,-3.9318,-3.8966,-4.1055,-4.1055,-4.1074,-4.1113,-4.1074,-4.1094,-4.1172,-4.1133,-3.9929,-3.7475,-3.7475,-3.7475,-2.077,-2.1109,-2.1109,-2.0648,-1.9217,-1.7878,-1.7966,0.0,-1.8001,-1.8438,-1.9889,-2.1149,-2.1269,-2.147,-2.2311,0.0,0.0,0.0,-3.1009,0.0,0.0,0.0,0.0,0.0,0.0,0.0,0.0,0.0,0.0,0.0,-4.0214,-3.9666,-3.9265,-3.9092,-3.8651,-3.825,-3.7809,-3.7635,-3.7342,-3.6941,-3.6941,-3.6647,-3.6072,-3.6072,-3.5752,-3.5191,-3.5191,-3.5191,0.0,-3.4563,-3.4322,-3.4255,-3.3654,-3.3414,-3.3414,-3.3414,-3.3414,-3.3414,-3.3414,-3.3414,-3.3387,-3.328,-3.304,-3.2719,-3.2251,-3.2024,-3.1891,-3.1717,-3.1664,-3.1664,-3.1664,-3.145,-3.1169,-3.0942,-3.0608,-3.0408,-3.0581,-3.0341,-3.014,-3.0327,-3.0114,-2.994,-3.0007,-2.986,-2.9646,-2.9352,-2.9205,-2.9072,-2.8885,-2.8764,-2.8617,-2.8444,-3.0222,-3.1722,-3.271,-3.4002,-3.5477,-3.7259,-3.7737,-3.8231,-3.9198,-4.0509,-4.1172,-4.1172,-4.1172,-4.1172,-4.1172,-4.1172,-3.9945,-3.7661,-3.7661,-3.7661,-2.0261,-2.0845,-2.1034,-2.0539,-1.8986,-1.7777,0.0,0.0,-1.7986,-1.9054,-2.0195,-2.1109,-2.1109,-2.1109,-2.1537,-2.2846,-2.2926,-2.4249,-2.8337,-2.9205,0.0,0.0,0.0,0.0,0.0,0.0,0.0,0.0,0.0,0.0,-3.9893,-3.9265,-3.8838,-3.8718,-3.8437,-3.8076,-3.7702,-3.7489,-3.7235,-3.6941,-3.6941,-3.6647,-3.6072,-3.6072,-3.5752,-3.5191,-3.5191,-3.5191,0.0,-3.4563,-3.4322,-3.4255,-3.3654,-3.3414,-3.3414,-3.3414,-3.3414,-3.3414,-3.3414,-3.3414,-3.3414,-3.3414,-3.328,-3.3013,-3.2519,-3.2238,-3.2064,-3.1851,-3.173,-3.1664,-3.1664,-3.145,-3.1223,-3.1223,-3.0915,-3.0675,-3.0875,-3.0595,-3.0341,-3.0461,-3.0314,-3.0207,-3.0341,-3.0181,-2.998,-2.978,-2.9593,-2.9406,-2.9205,-2.9098,-2.8965,-2.8764,-2.9859,-3.0964,-3.1422,-3.2217,-3.3512,-3.546,-3.6442,-3.7578,-3.8882,-4.0353,-4.1172,-4.1172,-4.1172,-4.1172,-4.1172,-4.1172,-4.0353,-3.8882,-3.8882,-3.8882,-1.9291,-2.0207,-2.0858,-2.0261,-1.8762,-1.7818,0.0,0.0,-1.8238,-2.0605,-2.1109,-2.1109,-2.1109,-2.1109,-2.1403,-2.2285,-2.318,-2.489,-2.815,-2.9606,0.0,0.0,0.0,0.0,0.0,0.0,0.0,0.0,0.0,0.0,-3.9599,-3.8771,-3.8397,-3.8718,-3.8437,-3.7969,-3.7382,-3.7382,-3.7235,-3.6941,-3.6941,-3.6647,-3.6072,-3.6072,-3.5752,-3.5191,-3.5191,-3.5191,0.0,-3.4563,-3.4322,-3.4255,-3.3654,-3.3414,-3.3414,-3.3414,-3.3414,-3.3414,-3.3414,-3.3414,-3.3414,-3.3414,-3.3414,-3.336,-3.3053,-3.2559,-3.2104,-3.2104,-3.1891,-3.1664,-3.1664,-3.145,-3.1223,-3.1223,-3.1223,-3.1223,-3.1223,-3.1209,-3.1129,-3.0849,-3.0782,-3.0688,-3.0408,-3.0354,-3.0354,-3.0354,-2.986,-2.9486,-2.9486,-2.9219,-2.9045,-2.9032,-2.9032,-2.9625,-3.1286,-2.9439,-3.1076,-3.7401,-3.596,-3.6602,-4.1016,-4.1172,-4.1172,-4.1172,-4.1172,-4.1172,-4.1172,-4.1172,-4.1172,-4.1172,-4.1172,-4.1172,-1.7378,-1.807,-1.8423,-1.7935,-1.7783,-1.8065,-1.8994,0.0,-1.9764,-2.0838,-2.1109,-2.1109,-2.1109,-2.1109,-2.167,-2.3367,-2.3875,-2.485,-2.7068,0.0,0.0,0.0,0.0,0.0,0.0,0.0,0.0,0.0,0.0,0.0,-3.9012,-3.8544,-3.829,-3.8397,-3.8103,-3.7782,-3.7382,-3.7382,-3.7235,-3.6941,-3.6727,-3.6433,-3.6059,-3.5859,-3.5565,-3.5191,-3.5191,-3.5191,-3.5151,-3.4563,-3.4322,-3.4255,-3.3654,-3.3414,-3.3414,-3.3414,-3.3414,-3.3414,-3.3414,-3.3414,-3.3414,-3.3414,-3.3414,-3.3387,-3.3307,-3.3,-3.2612,-3.2211,-3.1891,-3.1664,-3.1664,-3.1597,-3.153,-3.153,-3.137,-3.1223,-3.1223,-3.1076,-3.0969,-3.1062,-3.0929,-3.0822,-3.0929,-3.0782,-3.0662,-3.0662,-3.0501,-3.0301,-3.0114,-3.0007,-2.9793,-2.9392,-2.9339,-2.9528,-2.9796,-2.8906,-2.9944,-3.3533,-3.4294,-3.596,-3.8882,-4.0353,-4.1172,-4.1172,-4.1172,-4.1172,-4.1172,-4.1172,-4.1172,-4.1172,-4.1172,-4.1172,0.0,-1.649,-1.7126,-1.7595,-1.7681,0.0,0.0,0.0,-2.0166,-2.0876,-2.1109,-2.1109,-2.1109,-2.1109,-2.1563,-2.2979,-2.3487,-2.4356,-2.6226,0.0,0.0,0.0,0.0,0.0,0.0,0.0,0.0,0.0,0.0,0.0,-3.8758,-3.833,-3.8036,-3.7929,-3.7742,-3.7529,-3.7235,-3.7195,-3.7048,-3.6754,-3.658,-3.6299,-3.5899,-3.5712,-3.5471,-3.5191,-3.5084,-3.503,0.0,-3.4402,-3.4162,-3.4108,-3.3614,-3.3414,-3.3414,-3.3414,-3.3414,-3.3414,-3.3414,-3.3414,-3.3414,-3.3414,-3.3334,-3.3227,-3.312,-3.304,-3.2853,-3.2265,-3.1971,-3.181,-3.1704,-3.1664,-3.1664,-3.1664,-3.153,-3.1396,-3.1396,-3.1249,-3.1116,-3.1076,-3.1089,-3.1116,-3.1076,-3.0996,-3.0955,-3.0955,-3.0862,-3.0728,-3.0541,-3.0528,-3.0341,-2.986,-2.982,-2.97,-2.9392,-2.9005,-3.0097,-3.306,-3.4355,-3.6303,-3.9263,-4.074,-4.1328,-4.1172,-4.1172,-4.1172,-4.1172,-4.1172,-4.1172,-4.1172,-4.1172,-4.1172,0.0,-1.5423,-1.6376,0.0,0.0,0.0,0.0,0.0,0.0,0.0,0.0,0.0,-2.1136,-2.1122,-2.1243,-2.1643,-2.2432,-2.3701,-2.5732,-2.8217,0.0,0.0,0.0,0.0,0.0,0.0,0.0,0.0,0.0,0.0,-3.8691,-3.8103,-3.7635,-3.7342,-3.7342,-3.7235,-3.6941,-3.6901,-3.6754,-3.65,-3.6473,-3.6153,-3.5631,-3.5605,-3.5444,0.0,-3.491,-3.4776,-3.4696,-3.4162,-3.3921,-3.3855,-3.3561,-3.3427,-3.3414,-3.3414,-3.3414,-3.3414,-3.3414,-3.3414,-3.3414,-3.3414,-3.3227,-3.2959,-3.2666,-3.2732,-3.2812,-3.2278,-3.2118,-3.2038,-3.177,-3.1704,-3.169,-3.1677,-3.1664,-3.1664,-3.1664,-3.1664,-3.1503,-3.0955,-3.1303,-3.1503,-3.0955,-3.1076,-3.1263,-3.1263,-3.1022,-3.0849,-3.0822,-3.0822,-3.0715,-3.0421,-3.0394,-3.0274,-2.9967,-2.9406,-3.0909,-3.5422,-3.5724,-3.7561,-4.1697,-4.1816,-4.1621,-4.123,-4.1191,-4.1172,-4.1172,-4.1172,-4.1172,-4.1172,-4.1172,-4.1172,-1.5543,0.0,-1.3647,-1.509,-1.6339,-1.7635,0.0,0.0,0.0,0.0,0.0,0.0,0.0,-2.1256,-2.1577,-2.302,-2.3794,-2.4783,-2.6386,0.0,0.0,0.0,0.0,0.0,0.0,0.0,0.0,0.0,0.0,-3.8651,-3.8063,-3.7676,-3.7342,-3.7048,-3.7048,-3.7008,-3.6941,-3.6727,-3.658,-3.65,-3.6046,-3.5765,-3.5618,-3.5404,-3.5137,-3.487,-3.503,-3.4843,-3.4429,-3.4523,-3.4295,-3.3881,-3.3801,-3.3627,-3.3414,-3.3414,-3.3414,-3.3414,-3.3414,-3.3414,-3.3414,-3.3414,-3.336,-3.3253,-3.2959,-3.2612,-3.2332,-3.2412,-3.2278,-3.2091,-3.2024,-3.1998,-3.1944,-3.1717,-3.1664,-3.1664,-3.1664,-3.1664,-3.1623,-3.149,-3.157,-3.1623,-3.149,-3.1517,-3.157,-3.157,-3.1503,-3.1383,-3.1156,-3.1129,-3.1009,-3.0715,-3.0688,-3.0568,-3.0287,-2.9713,-3.1236,-3.5799,-3.5873,-3.7683,-4.2106,-4.1973,-4.1758,-4.166,-4.1348,-4.1172,-4.1172,-4.1172,-4.1172,-4.1172,-4.1172,-4.1172,-1.6997,-1.4798,-1.2845,-1.644,-1.7126,-1.7642,0.0,0.0,0.0,0.0,0.0,0.0,0.0,0.0,0.0,-2.2926,-2.3768,-2.5371,0.0,0.0,0.0,0.0,0.0,0.0,0.0,0.0,0.0,0.0,0.0,-3.8464,-3.7849,-3.7529,-3.7235,-3.6941,-3.6941,-3.6861,-3.6754,-3.658,-3.6366,-3.6099,-3.5778,-3.5565,-3.5418,-3.5271,-3.511,-3.4963,-3.499,-3.4736,-3.4322,-3.4349,-3.4082,-3.3668,-3.3668,-3.3561,-3.3414,-3.3414,-3.3414,-3.3414,-3.3414,-3.3414,-3.3387,-3.3253,-3.3213,-3.316,-3.2866,-3.2559,-3.2305,-3.2332,-3.2225,-3.2064,-3.1944,-3.1904,-3.1864,-3.1704,-3.1664,-3.1664,-3.1664,-3.1664,-3.1623,-3.149,-3.157,-3.1623,-3.149,-3.1583,-3.1664,-3.1664,-3.1664,-3.161,-3.145,-3.1423,-3.1316,-3.1022,-3.0996,-3.0875,-3.0581,-3.014,-3.172,-3.6191,-3.6335,-3.8188,-4.2573,-4.2324,-4.1914,-4.1523,-4.1289,-4.1172,-4.1172,-4.1172,-4.1172,-4.1172,-4.1172,-4.0685,-1.9088,-1.5875,-1.3818,-1.8702,-1.8186,-1.7539,0.0,0.0,0.0,0.0,0.0,0.0,0.0,0.0,0.0,0.0,0.0,0.0,0.0,0.0,0.0,0.0,0.0,0.0,0.0,0.0,0.0,0.0,0.0,-3.8357,-3.7849,-3.7489,-3.7195,-3.6941,-3.6941,-3.6794,-3.65,-3.6473,-3.6166,-3.5631,-3.5591,-3.5431,-3.5191,-3.5191,-3.5151,-3.5057,0.0,0.0,-3.4175,-3.4068,-3.3788,-3.3414,-3.3467,-3.3454,-3.3414,-3.3414,-3.3414,-3.3414,-3.3414,-3.3414,-3.3374,-3.312,-3.304,-3.2986,-3.2706,-3.2612,-3.2545,-3.2251,-3.2171,-3.2118,-3.1864,-3.177,-3.1717,-3.1677,-3.1664,-3.1664,-3.1664,-3.1664,-3.1597,-3.1343,-3.149,-3.1583,-3.1343,-3.1503,-3.1664,-3.1664,-3.1664,-3.1664,-3.1664,-3.1664,-3.157,-3.1316,-3.1289,-3.1169,-3.0889,-3.0635,-3.211,-3.608,-3.6691,-3.8728,-4.2923,-4.2656,-4.207,-4.1289,-4.1211,-4.1172,-4.1172,-4.1172,-4.1172,-4.1172,-4.1172,-4.0021,-2.1494,-1.9669,-1.6895,-1.6707,-1.6552,-1.6573,0.0,0.0,0.0,0.0,0.0,0.0,0.0,0.0,0.0,0.0,0.0,0.0,0.0,0.0,0.0,0.0,0.0,0.0,0.0,0.0,0.0,0.0,0.0,-3.7916,-3.7809,-3.7301,-3.6981,-3.6941,-3.6941,-3.6794,-3.65,-3.6259,-3.5965,-3.5631,-3.5378,-3.5244,-3.5191,-3.5191,-3.4923,-3.4482,0.0,-3.4536,-3.3614,-3.4336,-3.4148,-3.344,-3.3708,-3.3654,-3.3414,-3.3414,-3.3414,-3.3414,-3.3414,-3.3414,-3.34,-3.336,-3.3347,-3.3293,-3.3,-3.2919,-3.2853,-3.2559,-3.2478,-3.2465,-3.2425,-3.2225,-3.1971,-3.173,-3.1664,-3.1664,-3.1664,-3.1664,-3.165,-3.161,-3.1637,-3.165,-3.161,-3.1637,-3.1664,-3.1664,-3.1664,-3.1664,-3.1664,-3.1664,-3.165,-3.161,-3.1597,-3.1476,-3.1183,-3.1116,-3.1941,-3.4185,-3.5796,-3.8728,-4.2923,-4.2656,-4.2207,-4.1719,-4.1348,-4.1172,-4.1172,-4.1172,-4.1172,-4.1172,-4.1172,-4.0021,-2.1503,-2.0901,-1.9693,-1.8564,-1.7855,-1.7164,0.0,0.0,0.0,0.0,0.0,0.0,0.0,0.0,0.0,0.0,0.0,0.0,0.0,0.0,0.0,0.0,0.0,0.0,0.0,0.0,0.0,0.0,0.0,0.0,-3.7809,-3.7261,-3.6861,-3.6727,-3.6861,-3.6647,-3.6032,-3.6059,-3.5925,-3.5631,-3.5338,-3.511,-3.4963,-3.4963,-3.4723,-3.4336,0.0,-3.4322,-3.3694,-3.4122,-3.3935,-3.3427,-3.3574,-3.3534,-3.3414,-3.3414,-3.3414,-3.3414,-3.3414,-3.3414,-3.3414,-3.3414,-3.3414,-3.3387,-3.3253,-3.3213,-3.3187,-3.3053,-3.2786,-3.2505,-3.2345,-3.2211,-3.2024,-3.1744,-3.1664,-3.1664,-3.1664,-3.1664,-3.1664,-3.1664,-3.1664,-3.1664,-3.1664,-3.1664,-3.1664,-3.1664,-3.1664,-3.1664,-3.1664,-3.1664,-3.1664,-3.1664,-3.1664,-3.161,-3.1476,-3.1316,-3.1868,-3.374,-3.6855,-3.9387,-4.1208,-4.2202,-4.2578,-4.2148,-4.1953,-4.1855,-4.1855,-4.0458,-4.0458,-4.1836,-3.9148,-3.7506,-2.1443,-2.1683,-2.1608,-2.0598,0.0,0.0,0.0,0.0,0.0,0.0,0.0,0.0,0.0,0.0,0.0,0.0,0.0,0.0,0.0,0.0,0.0,0.0,0.0,0.0,0.0,0.0,0.0,0.0,0.0,0.0,-3.7809,-3.7261,-3.6834,-3.662,-3.6754,-3.65,-3.5845,-3.5925,-3.5819,-3.5525,-3.5297,-3.5044,-3.4763,-3.4763,-3.4563,-3.4229,-3.4295,-3.4108,-3.3788,-3.3855,-3.3694,-3.3414,-3.3414,-3.3414,-3.3414,-3.3414,-3.3414,-3.3414,-3.3414,-3.3414,-3.3414,-3.3414,-3.3414,-3.3414,-3.3414,-3.3414,-3.3414,-3.3414,-3.3093,-3.2666,-3.2305,-3.2158,-3.2024,-3.1744,-3.1664,-3.1664,-3.1664,-3.1664,-3.1664,-3.1664,-3.1664,-3.1664,-3.1664,-3.173,-3.1744,-3.1677,-3.173,-3.1744,-3.1677,-3.1664,-3.1664,-3.1664,-3.1664,-3.1664,-3.1664,-3.1396,-3.1751,-3.3075,-3.7631,-4.0114,-3.9808,-4.1922,-4.291,-4.2578,-4.248,-4.2422,-4.2422,-3.9931,-3.9987,-4.2398,-3.8146,-3.6007,-2.2445,-2.2752,0.0,0.0,0.0,0.0,0.0,0.0,0.0,0.0,0.0,0.0,0.0,0.0,0.0,0.0,0.0,0.0,0.0,0.0,0.0,0.0,0.0,0.0,0.0,0.0,0.0,0.0,0.0,0.0,-3.7809,-3.7261,-3.6941,-3.6901,-3.6647,-3.65,-3.6433,-3.5925,-3.5511,-3.5231,-3.5204,-3.5044,-3.4763,-3.4763,-3.4456,-3.3935,-3.4202,-3.3988,-3.3467,-3.3761,-3.3694,-3.3414,-3.3414,-3.3414,-3.3414,-3.3414,-3.3414,-3.3414,-3.3414,-3.3414,-3.3414,-3.3414,-3.3414,-3.3414,-3.3414,-3.3414,-3.3414,-3.3414,-3.3387,-3.3213,-3.2666,-3.2305,-3.2024,-3.1744,-3.1664,-3.1664,-3.1664,-3.1664,-3.1664,-3.1664,-3.1664,-3.1664,-3.1664,-3.1891,-3.1984,-3.1704,-3.1904,-3.1971,-3.1704,-3.1664,-3.1664,-3.1664,-3.1664,-3.1664,-3.1664,-3.1396,-3.1209,-3.1342,-3.7025,-4.0241,-4.0205,-4.2074,-4.3066,-4.3027,-4.2637,-4.2422,-4.2422,-4.0047,-4.0414,-4.3008,-4.005,-3.7909,-2.1657,-2.2311,0.0,0.0,0.0,0.0,0.0,0.0,0.0,0.0,0.0,0.0,0.0,0.0,0.0,0.0,0.0,0.0,0.0,0.0,0.0,0.0,0.0,0.0,0.0,0.0,0.0,0.0,0.0,0.0,-3.7555,-3.6981,-3.658,-3.6393,-3.6286,-3.6059,-3.5698,-3.5645,-3.5391,-3.4923,-3.4923,-3.4776,-3.4482,-3.4309,-3.3988,-3.3601,-3.3708,-3.3627,-3.3427,-3.3547,-3.3521,-3.3414,-3.3414,-3.3414,-3.3414,-3.3414,-3.3414,-3.3414,-3.3414,-3.3414,-3.3414,-3.3414,-3.3414,-3.3414,-3.3414,-3.3414,-3.3414,-3.3414,-3.328,-3.3053,-3.2652,-3.2465,-3.2265,-3.1784,-3.1664,-3.1664,-3.1664,-3.1664,-3.1664,-3.1664,-3.181,-3.1877,-3.1704,-3.1904,-3.2011,-3.1717,-3.1917,-3.1998,-3.1704,-3.1824,-3.1864,-3.169,-3.1664,-3.1664,-3.1664,-3.1396,-3.1223,-3.1223,-3.4472,-3.6435,-3.6435,-3.8578,-4.0314,-4.1639,-4.1732,-4.2348,-4.3652,-4.1398,-4.091,-4.1992,-3.7791,-3.5558,-2.085,-2.1162,0.0,0.0,0.0,0.0,0.0,0.0,0.0,0.0,0.0,0.0,0.0,0.0,0.0,0.0,0.0,0.0,0.0,0.0,0.0,0.0,0.0,0.0,0.0,0.0,0.0,0.0,0.0,0.0,0.0,-3.6767,-3.6366,-3.6086,-3.5979,-3.5738,-3.5338,-3.5351,-3.5151,-3.4763,-3.4576,-3.4376,-3.4175,-3.3975,-3.3708,-3.3414,-3.3414,-3.3414,-3.3414,-3.3414,-3.3414,-3.3414,-3.3414,-3.3414,-3.3414,-3.3414,-3.3414,-3.3414,-3.3414,-3.3414,-3.3414,-3.3414,-3.3414,-3.3414,-3.3414,-3.3414,-3.3414,-3.3414,-3.32,-3.2906,-3.2625,-3.2478,-3.2278,-3.1784,-3.1744,-3.181,-3.181,-3.1877,-3.1944,-3.1944,-3.2104,-3.2171,-3.1984,-3.2104,-3.2144,-3.1851,-3.2051,-3.2131,-3.1837,-3.1984,-3.1984,-3.1704,-3.1664,-3.1664,-3.1664,-3.149,-3.137,-3.137,-3.2617,-3.3678,-3.4186,-3.6495,-3.8334,-3.9652,-4.0088,-4.0976,-4.2289,-4.088,-4.0192,-4.0386,-3.6821,-3.4906,-2.0296,-1.9537,0.0,0.0,0.0,0.0,0.0,0.0,0.0,0.0,0.0,0.0,0.0,0.0,0.0,0.0,0.0,0.0,0.0,0.0,0.0,0.0,0.0,0.0,0.0,0.0,0.0,0.0,0.0,0.0,0.0,-3.6647,-3.6366,-3.6072,-3.5778,-3.5618,-3.5618,-3.5044,-3.4763,-3.475,-3.4162,-3.3881,-3.3881,-3.3881,-3.3708,-3.3414,-3.3414,-3.3414,-3.3414,-3.3414,-3.3414,-3.3414,-3.3414,-3.3414,-3.3414,-3.3414,-3.3414,-3.3414,-3.3414,-3.3414,-3.3414,-3.3414,-3.3414,-3.3414,-3.3414,-3.3414,-3.3414,-3.3414,-3.32,-3.2906,-3.2625,-3.2318,-3.2024,-3.1744,-3.1891,-3.2104,-3.2104,-3.2345,-3.2545,-3.2545,-3.2545,-3.2545,-3.2545,-3.2545,-3.2452,-3.2144,-3.2358,-3.2438,-3.2144,-3.2104,-3.1998,-3.1704,-3.1677,-3.1677,-3.1677,-3.1677,-3.1677,-3.1664,-3.1664,-3.2495,-3.4034,-3.6316,-3.7565,-3.7742,-3.7742,-3.7742,-3.7742,-3.792,-3.8102,-3.8252,-3.8085,-3.6865,-2.0511,0.0,0.0,0.0,0.0,0.0,0.0,0.0,0.0,0.0,0.0,0.0,0.0,0.0,0.0,0.0,0.0,0.0,0.0,0.0,0.0,0.0,0.0,0.0,0.0,0.0,0.0,0.0,0.0,0.0,0.0,-3.6046,-3.5752,-3.5471,-3.5364,-3.5124,-3.471,-3.475,-3.4563,-3.4148,-3.3975,-3.3881,-3.3881,-3.3654,-3.3494,-3.3414,-3.3414,-3.3414,-3.3414,-3.3414,-3.3414,-3.3414,-3.3414,-3.3414,-3.3414,-3.3414,-3.3414,-3.3414,-3.3414,-3.3414,-3.3414,-3.3414,-3.3414,-3.3414,-3.3414,-3.3414,-3.3374,-3.316,-3.2906,-3.2652,-3.2572,-3.2318,-3.2078,-3.1998,-3.2198,-3.2412,-3.2412,-3.2478,-3.2545,-3.2545,-3.2706,-3.2786,-3.2585,-3.2719,-3.2746,-3.2465,-3.2666,-3.2826,-3.2732,-3.2358,-3.2144,-3.2278,-3.2104,-3.1971,-3.1971,-3.1971,-3.1891,-3.1677,-3.1664,-3.1962,-3.2509,-3.3042,-3.4212,-3.5607,-3.5822,-3.7643,-4.0808,-4.1071,-4.1247,-4.1353,-3.9435,-3.7456,-2.068,0.0,0.0,0.0,0.0,0.0,0.0,0.0,0.0,0.0,0.0,0.0,0.0,0.0,0.0,0.0,0.0,0.0,0.0,0.0,0.0,0.0,0.0,0.0,0.0,0.0,0.0,0.0,0.0,0.0,-3.5738,-3.5551,-3.5271,-3.4857,-3.4843,-3.4683,-3.4322,-3.4376,-3.4242,-3.3881,-3.3761,-3.3694,-3.3694,-3.3494,-3.3414,-3.3414,-3.3414,-3.3414,-3.3414,-3.3414,-3.3414,-3.3414,-3.3414,-3.3414,-3.3414,-3.3414,-3.3414,-3.3414,-3.3414,-3.3414,-3.3414,-3.3414,-3.3414,-3.3414,-3.3414,-3.3414,-3.3347,-3.3066,-3.2853,-3.2692,-3.2572,-3.2505,-3.2425,-3.2305,-3.2505,-3.2719,-3.2719,-3.2812,-3.2893,-3.2893,-3.3026,-3.3093,-3.2919,-3.2933,-3.2919,-3.2746,-3.2772,-3.2799,-3.2799,-3.2492,-3.2345,-3.2532,-3.2385,-3.2278,-3.2278,-3.2278,-3.2198,-3.2024,-3.2011,-3.2011,-3.2011,-3.1797,-3.2326,-3.3414,-3.3772,-3.5605,-3.9385,-4.0662,-4.0765,-3.9721,-3.9457,-3.7427,0.0,0.0,0.0,0.0,0.0,0.0,0.0,0.0,0.0,0.0,0.0,0.0,0.0,0.0,0.0,0.0,0.0,0.0,0.0,0.0,0.0,0.0,0.0,0.0,0.0,0.0,0.0,0.0,0.0,-3.5752,-3.5191,-3.5151,-3.4883,-3.4295,-3.4309,-3.4295,-3.4242,-3.4002,-3.3868,-3.3841,-3.3547,-3.3414,-3.3414,-3.3414,-3.3414,-3.3414,-3.3414,-3.3414,-3.3414,-3.3414,-3.3414,-3.3414,-3.3414,-3.3414,-3.3414,-3.3414,-3.3414,-3.3414,-3.3414,-3.3414,-3.3414,-3.3414,-3.3414,-3.3414,-3.3414,-3.3414,-3.3347,-3.3066,-3.2959,-3.2879,-3.2652,-3.2759,-3.2879,-3.2679,-3.2826,-3.3013,-3.3013,-3.3227,-3.3414,-3.3414,-3.3414,-3.3414,-3.3414,-3.3187,-3.3013,-3.3013,-3.2799,-3.2625,-3.2625,-3.2599,-3.2599,-3.2625,-3.2599,-3.2585,-3.2585,-3.2585,-3.2572,-3.2545,-3.2545,-3.2545,-3.2545,-3.2038,-3.173,-3.1704,-3.173,-3.3016,-3.574,-3.828,-3.8465,-3.6158,-3.8788,-3.7257,0.0,0.0,0.0,0.0,0.0,0.0,0.0,0.0,0.0,0.0,0.0,0.0,0.0,0.0,0.0,0.0,0.0,0.0,0.0,0.0,0.0,0.0,0.0,0.0,0.0,0.0,0.0,-3.5725,-3.5511,-3.5231,-3.487,-3.4857,-3.4589,-3.4002,-3.4202,-3.4095,-3.3614,-3.3788,-3.3761,-3.3507,-3.344,-3.3414,-3.3414,-3.3414,-3.3414,-3.3414,-3.3414,-3.3414,-3.3414,-3.3414,-3.3414,-3.3414,-3.3414,-3.3414,-3.3414,-3.3414,-3.3414,-3.3414,-3.3414,-3.3414,-3.3414,-3.3414,-3.3414,-3.3414,-3.3414,-3.3414,-3.3347,-3.3066,-3.2812,-3.2679,-3.2839,-3.2759,-3.2732,-3.3133,-3.328,-3.332,-3.332,-3.3374,-3.3414,-3.3414,-3.3414,-3.3414,-3.3414,-3.336,-3.332,-3.332,-3.3267,-3.3227,-3.3227,-3.3026,-3.2973,-3.32,-3.3026,-3.2879,-3.2879,-3.2879,-3.2786,-3.2559,-3.2545,-3.2545,-3.2545,-3.2425,-3.2251,-3.2011,-3.2238,-3.4488,-3.8667,-3.9583,-4.0646,-4.1873,-4.0444,-3.8068,0.0,0.0,0.0,0.0,0.0,0.0,0.0,0.0,0.0,0.0,0.0,0.0,0.0,0.0,0.0,0.0,0.0,0.0,0.0,0.0,0.0,0.0,0.0,0.0,0.0,0.0,-3.5511,-3.5231,-3.507,-3.4803,-3.4362,-3.4349,-3.4135,-3.3681,-3.3801,-3.3734,-3.3414,-3.3574,-3.3574,-3.3414,-3.3414,-3.3414,-3.3414,-3.3414,-3.3414,-3.3414,-3.3414,-3.3414,-3.3414,-3.3414,-3.3414,-3.3414,-3.3414,-3.3414,-3.3414,-3.3414,-3.332,-3.32,-3.32,-3.32,-3.32,-3.32,-3.32,-3.3227,-3.3374,-3.332,-3.3173,-3.3026,-3.2973,-3.2959,-3.2973,-3.2973,-3.304,-3.3334,-3.3414,-3.3414,-3.3414,-3.3414,-3.3414,-3.3414,-3.3414,-3.3414,-3.3414,-3.3414,-3.336,-3.3227,-3.32,-3.32,-3.32,-3.3066,-3.3093,-3.3374,-3.328,-3.3187,-3.3187,-3.3187,-3.312,-3.2973,-3.2959,-3.2959,-3.2959,-3.2959,-3.2759,-3.2318,-3.2465,-3.491,-3.9785,-3.9018,-3.9666,-4.1931,-3.9487,-3.6951,0.0,0.0,0.0,0.0,0.0,0.0,0.0,0.0,0.0,0.0,0.0,0.0,0.0,0.0,0.0,0.0,0.0,0.0,0.0,0.0,0.0,0.0,0.0,0.0,-3.5231,-3.5324,-3.5231,-3.479,-3.471,-3.4456,-3.3921,-3.3881,-3.3748,-3.3427,-3.3414,-3.3414,-3.3414,-3.3414,-3.3414,-3.3414,-3.3414,-3.3414,-3.3414,-3.3414,-3.3414,-3.3414,-3.3414,-3.3414,-3.3414,-3.3414,-3.3387,-3.3334,-3.3334,-3.3334,-3.3334,-3.328,-3.3146,-3.2973,-3.2919,-3.2906,-3.2919,-3.2959,-3.2946,-3.2973,-3.3307,-3.3213,-3.2986,-3.304,-3.316,-3.3213,-3.3026,-3.312,-3.328,-3.332,-3.3374,-3.3414,-3.3414,-3.3414,-3.3414,-3.3414,-3.3414,-3.3414,-3.3414,-3.3414,-3.3334,-3.3093,-3.3053,-3.3053,-3.3053,-3.3053,-3.3146,-3.3387,-3.3414,-3.3414,-3.3414,-3.3414,-3.3414,-3.3414,-3.3414,-3.3414,-3.3414,-3.3414,-3.3187,-3.2706,-3.2692,-3.5125,-4.0149,-3.8047,-3.8078,-4.0264,-3.8032,-3.5298,0.0,0.0,0.0,0.0,0.0,0.0,0.0,0.0,0.0,0.0,0.0,0.0,0.0,0.0,0.0,0.0,0.0,0.0,0.0,0.0,0.0,0.0,-3.4683,-3.4723,-3.5151,-3.4776,-3.4563,-3.475,-3.4523,-3.4229,-3.3908,-3.3881,-3.3748,-3.3427,-3.3414,-3.3414,-3.3414,-3.3414,-3.3414,-3.3414,-3.3414,-3.3414,-3.3414,-3.3414,-3.3414,-3.3414,-3.3414,-3.3414,-3.3414,-3.3414,-3.3267,-3.304,-3.304,-3.304,-3.3013,-3.2759,-3.2799,-3.2946,-3.2692,-3.2599,-3.2652,-3.2893,-3.2812,-3.2706,-3.324,-3.3213,-3.3026,-3.328,-3.3013,-3.2706,-3.2919,-3.2826,-3.2732,-3.2973,-3.3227,-3.3414,-3.3414,-3.3414,-3.3414,-3.3414,-3.3414,-3.3414,-3.3414,-3.3414,-3.34,-3.336,-3.336,-3.336,-3.336,-3.336,-3.3374,-3.3414,-3.3414,-3.3414,-3.3414,-3.3414,-3.3414,-3.3414,-3.3414,-3.3414,-3.3414,-3.3414,-3.3374,-3.3293,-3.3293,-3.5672,-4.0528,-3.8404,-3.8543,-4.0991,-3.8249,-3.5298,0.0,0.0,0.0,0.0,0.0,0.0,0.0,0.0,0.0,0.0,0.0,0.0,0.0,0.0,0.0,0.0,0.0,0.0,0.0,0.0,0.0,-3.4496,-3.4402,-3.4416,-3.4683,-3.4469,-3.4309,-3.4269,-3.4148,-3.3948,-3.3641,-3.3614,-3.3561,-3.3414,-3.3253,-3.3173,-3.3173,-3.3013,-3.2933,-3.2933,-3.3093,-3.308,-3.2933,-3.2933,-3.3013,-3.3173,-3.3173,-3.308,-3.2933,-3.2933,-3.2853,-3.2732,-3.2732,-3.2732,-3.2719,-3.2599,-3.2519,-3.2492,-3.2532,-3.2438,-3.2372,-3.2826,-3.2786,-3.2652,-3.324,-3.3213,-3.304,-3.3334,-3.3106,-3.2812,-3.2946,-3.2879,-3.2826,-3.2946,-3.32,-3.3414,-3.3414,-3.3414,-3.3414,-3.3414,-3.3414,-3.3414,-3.3414,-3.3414,-3.3414,-3.3414,-3.3414,-3.3414,-3.3414,-3.3414,-3.3414,-3.3414,-3.3414,-3.3414,-3.3414,-3.3414,-3.3414,-3.3414,-3.3414,-3.3414,-3.3414,-3.3414,-3.3414,-3.3414,-3.3414,-3.586,-4.0908,-3.6832,-3.7013,-4.0825,-3.6297,-3.3644,0.0,0.0,0.0,0.0,0.0,0.0,0.0,0.0,0.0,0.0,0.0,0.0,0.0,0.0,0.0,0.0,0.0,0.0,0.0,-3.4135,-3.4122,-3.4202,-3.4135,-3.4148,-3.4309,-3.4175,-3.4028,-3.3895,-3.3814,-3.3668,-3.3427,-3.3414,-3.3414,-3.3414,-3.3133,-3.2973,-3.2973,-3.2692,-3.2545,-3.2545,-3.2759,-3.2759,-3.2545,-3.2545,-3.2585,-3.2652,-3.2799,-3.2746,-3.2545,-3.2545,-3.2505,-3.2438,-3.2438,-3.2438,-3.2425,-3.2358,-3.2225,-3.2131,-3.2358,-3.2291,-3.2198,-3.2786,-3.2786,-3.2652,-3.324,-3.3213,-3.3026,-3.324,-3.3093,-3.2853,-3.2772,-3.2812,-3.2866,-3.2866,-3.3146,-3.3414,-3.3414,-3.3414,-3.3414,-3.3414,-3.3414,-3.3414,-3.3414,-3.3414,-3.3414,-3.3414,-3.3414,-3.3414,-3.3414,-3.3414,-3.3414,-3.3414,-3.3414,-3.3414,-3.3414,-3.3414,-3.3414,-3.3414,-3.3414,-3.3414,-3.3414,-3.3414,-3.3414,-3.3414,-3.3414,-3.5734,-4.0174,-3.5505,-3.539,-3.9771,-3.471,-3.2478,0.0,0.0,0.0,0.0,0.0,0.0,0.0,0.0,0.0,0.0,0.0,0.0,0.0,0.0,0.0,0.0,-3.4095,-3.3908,-3.3908,-3.3654,-3.3574,-3.3868,-3.3641,-3.3681,-3.4269,-3.3801,-3.3574,-3.3868,-3.3601,-3.3427,-3.3414,-3.3414,-3.3414,-3.3414,-3.3133,-3.2973,-3.2973,-3.2692,-3.2545,-3.2545,-3.2559,-3.2559,-3.2545,-3.2545,-3.2251,-3.177,-3.2332,-3.2559,-3.2545,-3.2545,-3.2385,-3.2131,-3.2131,-3.2131,-3.2091,-3.1824,-3.1877,-3.2104,-3.2118,-3.2118,-3.2198,-3.2786,-3.2786,-3.2652,-3.324,-3.3213,-3.2986,-3.3,-3.2786,-3.2505,-3.2225,-3.2358,-3.2572,-3.2572,-3.3,-3.3414,-3.3414,-3.3414,-3.3414,-3.3414,-3.3414,-3.3414,-3.3414,-3.3414,-3.3414,-3.3414,-3.3414,-3.3414,-3.3414,-3.3414,-3.3414,-3.3414,-3.3414,-3.3414,-3.3414,-3.3414,-3.3414,-3.3414,-3.3414,-3.3414,-3.3414,-3.3414,-3.3414,-3.3414,-3.3414,-3.477,-3.7478,-3.4756,-3.4742,-3.7448,-3.4714,-3.3053,0.0,0.0,0.0,0.0,0.0,0.0,0.0,0.0,0.0,0.0,0.0,0.0,-3.3734,-3.3908,-3.4042,-3.4042,-3.3788,-3.3587,-3.3587,-3.348,-3.3454,-3.3574,-3.348,-3.3494,-3.3721,-3.3534,-3.3454,-3.3574,-3.348,-3.3334,-3.3146,-3.3133,-3.3053,-3.2866,-3.2572,-3.2332,-3.2144,-3.2225,-3.2171,-3.1984,-3.2171,-3.2158,-3.1984,-3.1984,-3.1864,-3.1677,-3.1891,-3.1877,-3.1717,-3.1904,-3.1917,-3.1824,-3.1824,-3.1824,-3.181,-3.1704,-3.173,-3.1851,-3.2038,-3.2104,-3.2171,-3.2572,-3.2759,-3.2866,-3.3066,-3.3187,-3.3253,-3.3253,-3.3053,-3.2799,-3.2692,-3.2746,-3.2866,-3.3053,-3.3253,-3.3414,-3.3414,-3.3414,-3.3414,-3.3414,-3.3414,-3.3414,-3.3414,-3.3414,-3.3414,-3.3414,-3.3414,-3.3414,-3.3414,-3.3414,-3.3414,-3.3414,-3.3414,-3.3414,-3.3414,-3.3414,-3.3414,-3.3414,-3.3414,-3.3414,-3.3414,-3.3414,-3.3414,-3.3414,-3.3414,-3.477,-3.7282,-3.4575,-3.4478,-3.6968,-3.4087,-3.2746,0.0,0.0,0.0,0.0,0.0,0.0,0.0,0.0,0.0,0.0,-3.2866,-3.3293,-3.3387,-3.3587,-3.3721,-3.3721,-3.3547,-3.3414,-3.3414,-3.3414,-3.3414,-3.3414,-3.3414,-3.3414,-3.3414,-3.3414,-3.3374,-3.328,-3.3267,0.0,-3.2853,-3.2839,-3.2706,-3.2412,-3.2211,-3.1917,-3.153,-3.181,-3.1757,-3.1383,-3.1664,-3.165,-3.137,-3.137,-3.133,-3.1236,-3.133,-3.137,-3.1383,-3.1583,-3.1664,-3.1664,-3.1664,-3.1664,-3.1664,-3.1664,-3.1664,-3.1717,-3.1998,-3.2104,-3.2144,-3.2452,-3.2746,-3.2973,-3.2973,-3.3187,-3.3387,-3.3293,-3.3133,-3.2959,-3.2866,-3.2906,-3.3053,-3.3347,-3.3414,-3.3414,-3.3414,-3.3414,-3.3414,-3.3414,-3.3414,-3.3414,-3.3414,-3.3414,-3.3414,-3.3414,-3.3414,-3.3414,-3.3414,-3.3414,-3.3414,-3.3414,-3.3414,-3.3414,-3.3414,-3.3414,-3.3414,-3.3414,-3.3414,-3.3414,-3.3414,-3.3414,-3.3414,-3.3414,-3.3414,-3.4186,-3.5932,-3.3981,-3.4083,-3.5615,-3.3694,-3.2839,0.0,0.0,0.0,0.0,0.0,0.0,-3.0221,0.0,-3.0581,-3.177,-3.2492,-3.3,-3.3334,-3.34,-3.3414,-3.3414,-3.3414,-3.3414,-3.3414,-3.3414,-3.3414,-3.3414,-3.3414,-3.3414,-3.34,-3.3414,-3.3293,-3.2986,-3.2973,-3.2853,-3.2545,-3.2519,-3.2385,-3.2104,-3.2078,-3.1797,-3.1236,-3.1503,-3.1356,-3.0795,-3.1076,-3.1062,-3.0795,-3.0795,-3.0635,-3.0394,-3.0675,-3.1116,-3.1637,-3.165,-3.165,-3.1664,-3.1664,-3.1664,-3.1664,-3.1664,-3.1664,-3.1704,-3.1984,-3.2091,-3.2144,-3.2438,-3.2732,-3.2973,-3.2973,-3.3173,-3.3347,-3.3066,-3.2986,-3.2933,-3.2639,-3.2786,-3.3066,-3.3347,-3.3414,-3.3414,-3.3414,-3.3414,-3.3414,-3.3414,-3.3414,-3.3414,-3.3414,-3.3414,-3.3414,-3.3414,-3.3414,-3.3414,-3.3414,-3.3414,-3.3414,-3.3414,-3.3414,-3.3414,-3.3414,-3.3414,-3.3414,-3.3414,-3.3414,-3.3414,-3.3414,-3.3414,-3.3414,-3.3414,-3.3414,-3.3414,-3.3414,-3.3414,-3.3414,-3.3414,-3.3414,-3.3414,-2.0294,0.0,0.0,0.0,0.0,0.0,-2.5558,-2.6694,-2.7949,-2.9553,-3.0528,-3.1503,-3.2853,-3.3267,-3.3414,-3.3414,-3.3414,-3.3414,-3.3414,-3.3414,-3.3414,-3.3414,-3.3414,-3.3334,-3.312,-3.3293,-3.32,0.0,-3.2866,-3.2759,-3.2251,-3.2024,-3.1877,-3.1797,-3.1583,-3.1396,-3.1223,-3.1102,-3.0955,-3.0795,-3.0875,-3.0875,-3.0795,-3.0795,-3.0755,-3.0675,-3.0755,-3.0889,-3.1049,-3.1263,-3.1343,-3.137,-3.1583,-3.1664,-3.1664,-3.1664,-3.1664,-3.1677,-3.1757,-3.1931,-3.2118,-3.2198,-3.2425,-3.2706,-3.2919,-3.304,-3.3133,-3.3253,-3.3293,-3.328,-3.3187,-3.3227,-3.3307,-3.3387,-3.3414,-3.3414,-3.3414,-3.3414,-3.3414,-3.3414,-3.3414,-3.3414,-3.3414,-3.3414,-3.3414,-3.3414,-3.3414,-3.3414,-3.3414,-3.3414,-3.3414,-3.3414,-3.3414,-3.3414,-3.3414,-3.3414,-3.3414,-3.3414,-3.3414,-3.3414,-3.3414,-3.3414,-3.3414,-3.3414,-3.3414,-3.3414,-3.3414,-3.3414,-3.3414,-3.3414,-3.3414,-3.3414,0.0,0.0,0.0,0.0,0.0,0.0,-2.4142,-2.501,-2.6052,0.0,-2.9192,-3.0234,-3.1623,-3.2318,-3.2719,-3.2839,-3.3066,-3.328,-3.3387,-3.3414,-3.3414,-3.3414,-3.3307,-3.316,-3.3,-3.3026,-3.2853,-3.2398,-3.2519,-3.2412,-3.1944,-3.1757,-3.161,-3.149,-3.1316,-3.1116,-3.0862,-3.0822,-3.0675,-3.0434,-3.0555,-3.0541,-3.0421,-3.0421,-3.0368,-3.0247,-3.0368,-3.0354,-3.0274,-3.0688,-3.1009,-3.1249,-3.1423,-3.1557,-3.1664,-3.1664,-3.1664,-3.1664,-3.1664,-3.1784,-3.1917,-3.1917,-3.2118,-3.2412,-3.2706,-3.2879,-3.304,-3.3334,-3.3414,-3.3414,-3.3414,-3.3414,-3.3414,-3.3414,-3.3414,-3.3414,-3.3414,-3.3414,-3.3414,-3.3414,-3.3414,-3.3414,-3.3414,-3.3414,-3.3414,-3.3414,-3.3414,-3.3414,-3.3414,-3.3414,-3.3414,-3.3414,-3.3414,-3.3414,-3.3414,-3.3414,-3.3414,-3.3414,-3.3414,-3.3414,-3.3414,-3.3414,-3.3414,-3.3414,-3.3414,-3.3414,-3.3414,-3.3414,-3.3414,-3.3414,-3.3414,-3.3414,0.0,0.0,0.0,0.0,0.0,0.0,-2.4302,-2.4396,-2.4543,-2.676,-2.7923,-2.8858,-2.9873,-3.0808,-3.149,-3.1677,-3.2345,-3.2959,-3.332,-3.3387,-3.3387,-3.332,-3.312,-3.2946,-3.2893,-3.2679,-3.2412,-3.2078,-3.2051,-3.1944,-3.1677,-3.1637,-3.1503,-3.1236,-3.1169,-3.0889,-3.0368,-3.0581,-3.0434,-2.9913,-3.0181,-3.0167,-2.9913,-2.9913,-2.978,-2.9539,-2.9806,-2.9766,-2.9566,-3.01,-3.0635,-3.1129,-3.1196,-3.1383,-3.1623,-3.1664,-3.1664,-3.1664,-3.1664,-3.1664,-3.1677,-3.1704,-3.1877,-3.2118,-3.2492,-3.2746,-3.3,-3.332,-3.3414,-3.3414,-3.3414,-3.3414,-3.3414,-3.3414,-3.3414,-3.3414,-3.3414,-3.3414,-3.3414,-3.3414,-3.3414,-3.3414,-3.3414,-3.3414,-3.3414,-3.3414,-3.3414,-3.3414,-3.3414,-3.3414,-3.3414,-3.3414,-3.3414,-3.3414,-3.3414,-3.3414,-3.3414,-3.3414,-3.3414,-3.3414,-3.3414,-3.3414,-3.3414,-3.3414,-3.3414,-3.3414,-3.3414,-3.3414,-3.3414,-3.3414,-3.3414,-3.3414,0.0,0.0,0.0,0.0,0.0,0.0,-2.139,-2.1683,-2.2472,-2.3888,-2.4877,-2.6052,-2.7883,-2.9138,-2.978,-2.9352,-3.0768,-3.2198,-3.2959,-3.3267,-3.324,-3.2772,-3.2866,-3.2786,-3.2318,-3.2438,-3.2332,-3.1797,-3.1757,-3.173,-3.1677,-3.1436,-3.1289,-3.1223,-3.0768,-3.0474,-3.0354,-3.0181,-3.0034,-2.9913,-2.998,-2.9967,-2.9913,-2.9913,-2.9887,-2.9833,-2.9887,-2.9887,-2.9847,-2.9953,-3.0207,-3.0581,-3.1036,-3.1263,-3.1343,-3.1583,-3.1664,-3.1664,-3.1664,-3.1664,-3.1704,-3.1944,-3.1891,-3.1904,-3.2666,-3.2772,-3.2746,-3.3267,-3.3414,-3.3414,-3.3414,-3.3414,-3.3414,-3.3414,-3.3414,-3.3414,-3.3414,-3.3414,-3.3414,-3.3414,-3.3414,-3.3414,-3.3414,-3.3414,-3.3414,-3.3414,-3.3414,-3.3414,-3.3414,-3.3414,-3.3414,-3.3414,-3.3414,-3.3414,-3.3414,-3.3414,-3.3414,-3.3414,-3.3414,-3.3414,-3.3414,-3.3414,-3.3414,-3.3414,-3.3414,-3.3414,-3.3414,-3.3414,-3.3414,-3.3414,-3.3414,-3.3414,0.0,0.0,0.0,-2.1363,0.0,0.0,0.0,-2.1216,-2.1496,-2.2819,-2.3327,-2.4022,-2.5651,-2.668,-2.7482,-2.8056,-2.9272,-3.0448,-3.133,-3.2332,-3.2812,-3.2372,-3.2452,-3.2372,-3.1931,-3.2024,-3.1984,-3.169,-3.153,-3.145,-3.145,-3.1169,-3.0875,-3.0581,-3.0434,-3.0154,-2.9713,-2.9847,-2.9766,-2.9486,-2.9633,-2.9619,-2.9472,-2.9472,-2.9472,-2.9486,-2.9633,-2.97,-2.9713,-2.986,-3.0007,-3.0194,-3.0782,-3.1102,-3.1263,-3.1557,-3.1664,-3.1664,-3.1664,-3.1664,-3.169,-3.1837,-3.1784,-3.181,-3.2545,-3.2866,-3.304,-3.3334,-3.3414,-3.3414,-3.3414,-3.3414,-3.3414,-3.3414,-3.3414,-3.3414,-3.3414,-3.3414,-3.3414,-3.3414,-3.3414,-3.3414,-3.3414,-3.3414,-3.3414,-3.3414,-3.3414,-3.3414,-3.3414,-3.3414,-3.3414,-3.3414,-3.3414,-3.3414,-3.3414,-3.3414,-3.3414,-3.3414,-3.3414,-3.3414,-3.3414,-3.3414,-3.3414,-3.3414,-3.3414,-3.3414,-3.3414,-3.3414,-3.3414,-3.3414,-3.3414,-3.3414,0.0,0.0,0.0,0.0,0.0,-2.155,0.0,0.0,0.0,-2.2231,-2.2298,-2.2498,0.0,0.0,0.0,-2.6533,0.0,0.0,0.0,-3.0474,0.0,-3.1583,-3.1704,-3.169,-3.1517,-3.1343,-3.1343,-3.157,-3.1102,-3.0902,-3.1129,-3.0808,-3.0408,-2.9927,-3.0034,-2.9766,-2.9045,-2.9513,-2.9513,-2.9045,-2.9285,-2.9272,-2.9045,-2.9045,-2.9045,-2.9058,-2.9299,-2.9432,-2.9499,-2.974,-2.986,-2.998,-3.0568,-3.0942,-3.1183,-3.1543,-3.1664,-3.1664,-3.1664,-3.1664,-3.1664,-3.1664,-3.1704,-3.1851,-3.2385,-3.2919,-3.3334,-3.34,-3.3414,-3.3414,-3.3414,-3.3414,-3.3414,-3.3414,-3.3414,-3.3414,-3.3414,-3.3414,-3.3414,-3.3414,-3.3414,-3.3414,-3.3414,-3.3414,-3.3414,-3.3414,-3.3414,-3.3414,-3.3414,-3.3414,-3.3414,-3.3414,-3.3414,-3.3414,-3.3414,-3.3414,-3.3414,-3.3414,-3.3414,-3.3414,-3.3414,-3.3414,-3.3414,-3.3414,-3.3414,-3.3414,-3.3414,-3.3414,-3.3414,-3.3414,-3.3414,-3.3414,0.0,0.0,0.0,0.0,-2.3287,0.0,0.0,0.0,-2.1657,-2.1056,0.0,0.0,0.0,0.0,0.0,0.0,0.0,0.0,-2.6386,-2.7028,-2.8043,-2.9593,-3.0247,-3.0648,-3.0875,-3.0194,-3.0154,-3.1196,-3.0047,-2.974,-3.0782,-3.0314,-2.998,-2.9913,-2.9446,-2.9138,-2.9045,-2.9112,-2.9112,-2.9045,-2.9072,-2.9072,-2.9045,-2.9045,-2.9045,-2.9045,-2.9072,-2.9245,-2.9486,-2.9526,-2.9686,-2.998,-3.0568,-3.0808,-3.0902,-3.1463,-3.1664,-3.1664,-3.1664,-3.1664,-3.1664,-3.1664,-3.1837,-3.2118,-3.2452,-3.2772,-3.308,-3.3334,-3.3414,-3.3414,-3.3414,-3.3414,-3.3414,-3.3414,-3.3414,-3.3414,-3.3414,-3.3414,-3.3414,-3.3414,-3.3414,-3.3414,-3.3414,-3.3414,-3.3414,-3.3414,-3.3414,-3.3414,-3.3414,-3.3414,-3.3414,-3.3414,-3.3414,-3.3414,-3.3414,-3.3414,-3.3414,-3.3414,-3.3414,-3.3414,-3.3414,-3.3414,-3.3414,-3.3414,-3.3414,-3.3414,-3.3414,-3.3414,-3.3414,-3.3414,-3.3414,-3.3414,0.0,0.0,0.0,0.0,0.0,0.0,0.0,0.0,-2.1176,0.0,0.0,0.0,0.0,0.0,0.0,0.0,-2.3594,-2.4342,0.0,0.0,-2.6266,-2.8217,0.0,0.0,-2.9179,-2.9085,-2.9312,-3.0154,-2.9165,-2.8885,-2.9726,-2.9539,-2.9325,-2.9165,-2.9085,-2.8871,-2.8524,-2.8858,-2.8858,-2.8524,-2.8698,-2.8698,-2.8524,-2.8524,-2.8711,-2.9045,-2.9045,-2.9299,-2.974,-2.974,-2.9806,-2.9953,-3.0381,-3.0648,-3.0849,-3.1263,-3.1517,-3.1664,-3.1664,-3.1664,-3.1664,-3.1664,-3.1864,-3.2131,-3.2251,-3.2612,-3.3,-3.3133,-3.328,-3.3414,-3.3414,-3.3414,-3.3414,-3.3414,-3.3414,-3.3414,-3.3414,-3.3414,-3.3414,-3.3414,-3.3414,-3.3414,-3.3414,-3.3414,-3.3414,-3.3414,-3.3414,-3.3414,-3.3414,-3.3414,-3.3414,-3.3414,-3.3414,-3.3414,-3.3414,-3.3414,-3.3414,-3.3414,-3.3414,-3.3414,-3.3414,-3.3414,-3.3414,-3.3414,-3.3414,-3.3414,-3.3414,-3.3414,-3.3414,-3.3414,-3.3414,-3.3414,-2.0653,0.0,0.0,0.0,0.0,0.0,0.0,0.0,0.0,0.0,0.0,0.0,0.0,0.0,0.0,0.0,0.0,-2.2993,0.0,-2.3808,-2.4529,-2.6507,0.0,0.0,0.0,-2.7936,-2.823,-2.9058,-2.7989,-2.7736,-2.8738,-2.8711,-2.8657,-2.8604,-2.8724,-2.8577,-2.815,-2.8577,-2.8577,-2.815,-2.8377,-2.8364,-2.8136,-2.8136,-2.843,-2.8925,-2.8925,-2.9259,-2.9793,-2.9793,-2.9847,-2.994,-3.0154,-3.0421,-3.0715,-3.0996,-3.1289,-3.1543,-3.1543,-3.1597,-3.1664,-3.1664,-3.181,-3.1998,-3.2078,-3.2452,-3.2879,-3.2959,-3.3187,-3.3414,-3.3414,-3.3414,-3.3414,-3.3414,-3.3414,-3.3414,-3.3414,-3.3414,-3.3414,-3.3414,-3.3414,-3.3414,-3.3414,-3.3414,-3.3414,-3.3414,-3.3414,-3.3414,-3.3414,-3.3414,-3.3414,-3.3414,-3.3414,-3.3414,-3.3414,-3.3414,-3.3414,-3.3414,-3.3414,-3.3414,-3.3414,-3.3414,-3.3414,-3.3414,-3.3414,-3.3414,-3.3414,-3.3414,-3.3414,-3.3414,-3.3414,-3.3414,0.0,0.0,0.0,-2.3745,0.0,0.0,0.0,0.0,-2.2632,0.0,0.0,0.0,0.0,0.0,0.0,0.0,0.0,0.0,0.0,-2.2178,-2.2311,-2.4102,-2.5785,0.0,0.0,-2.6707,-2.664,-2.8083,-2.6319,-2.6052,-2.807,-2.7896,-2.8003,-2.8591,-2.8323,-2.8163,-2.8136,-2.8163,-2.8163,-2.8136,-2.815,-2.815,-2.8136,-2.8136,-2.8323,-2.8617,-2.8617,-2.8951,-2.9499,-2.9499,-2.9659,-2.9913,-2.9927,-3.0114,-3.0408,-3.0702,-3.0996,-3.1236,-3.1236,-3.1423,-3.1664,-3.1664,-3.1677,-3.173,-3.2011,-3.2318,-3.2612,-3.2906,-3.3187,-3.3414,-3.3414,-3.3414,-3.3414,-3.3414,-3.3414,-3.3414,-3.3414,-3.3414,-3.3414,-3.3414,-3.3414,-3.3414,-3.3414,-3.3414,-3.3414,-3.3414,-3.3414,-3.3414,-3.3414,-3.3414,-3.3414,-3.3414,-3.3414,-3.3414,-3.3414,-3.3414,-3.3414,-3.3414,-3.3414,-3.3414,-3.3414,-3.3414,-3.3414,-3.3414,-3.3414,-3.3414,-3.3414,-3.3414,-3.3414,-3.3414,-3.3414,-3.3414,0.0,0.0,-2.246,-2.28,0.0,0.0,0.0,0.0,0.0,0.0,0.0,0.0,0.0,0.0,0.0,0.0,0.0,0.0,0.0,-2.1443,-2.163,-2.2619,-2.4302,0.0,0.0,-2.485,-2.5371,-2.6066,-2.5117,-2.5144,-2.6613,-2.7148,-2.7509,-2.7709,-2.7989,-2.8136,-2.8136,-2.8136,-2.8243,-2.8444,-2.8243,-2.8243,-2.8444,-2.8444,-2.8617,-2.8898,-2.9098,-2.9299,-2.9499,-2.9686,-2.9713,-2.9646,-2.9847,-2.998,-3.01,-3.0394,-3.0808,-3.1249,-3.145,-3.1583,-3.1664,-3.1664,-3.1797,-3.1971,-3.2078,-3.2438,-3.2853,-3.2946,-3.3187,-3.3414,-3.3414,-3.3414,-3.3414,-3.3414,-3.3414,-3.3414,-3.3414,-3.3414,-3.3414,-3.3414,-3.3414,-3.3414,-3.3414,-3.3414,-3.3414,-3.3414,-3.3414,-3.3414,-3.3414,-3.3414,-3.3414,-3.3414,-3.3414,-3.3414,-3.3414,-3.3414,-3.3414,-3.3414,-3.3414,-3.3414,-3.3414,-3.3414,-3.3414,-3.3414,-3.3414,-3.3414,-3.3414,-3.3414,-3.3414,-3.3414,-3.3414,-3.3414,-1.7427,-1.9018,0.0,-2.1284,-2.0403,0.0,-1.9029,0.0,0.0,0.0,0.0,0.0,0.0,0.0,0.0,0.0,0.0,0.0,0.0,-2.1109,0.0,-2.163,-2.2966,-2.3634,-2.3086,-2.304,-2.3233,-2.3516,-2.3014,-2.3233,-2.4482,-2.5898,-2.6841,-2.7255,-2.7843,-2.8136,-2.8136,-2.8136,-2.8243,-2.8444,-2.8243,-2.8243,-2.8444,-2.8444,-2.8604,-2.8898,-2.9085,-2.9232,-2.9339,-2.9526,-2.9553,-2.9499,-2.9686,-2.982,-2.9953,-3.0247,-3.0728,-3.1276,-3.157,-3.1664,-3.169,-3.1784,-3.1877,-3.1984,-3.2198,-3.2519,-3.2839,-3.2946,-3.3187,-3.3414,-3.3414,-3.3414,-3.3414,-3.3414,-3.3414,-3.3414,-3.3414,-3.3414,-3.3414,-3.3414,-3.3414,-3.3414,-3.3414,-3.3414,-3.3414,-3.3414,-3.3414,-3.3414,-3.3414,-3.3414,-3.3414,-3.3414,-3.3414,-3.3414,-3.3414,-3.3414,-3.3414,-3.3414,-3.3414,-3.3414,-3.3414,-3.3414,-3.3507,-3.3734,-3.3521,-3.3521,-3.3734,-3.3521,-3.3414,-3.3414,-3.3414,-3.3414]}]]